SV20 / HZ-AK43 7700 Squawk Report (10th of October, 2018)

Aircraft B77W Reg No. HZ-AK43 Age 1 years old
Model 777 Jet engines 2 First flight 30-04-17
Registered 23-05-17 Rollout N/A Delivered 23-05-17
Construction No. 62763 Line No. 1492 Series 300(ER)
ADSHEX 710121 Airline name Saudia Owner N/A
Airfield based Jeddah~ ~HZ First tracked 2017-05-15 15:59:16

Flight history for HZ-AK43

Route Flight No Date Playback
Dubai Intl (DXB) - King Abdulaziz Intl (JED) SV589 2018-10-15 15:56:00
King Abdulaziz Intl (JED) - Dubai Intl (DXB) SV588 2018-10-15 13:49:00
Dubai Intl (DXB) - King Abdulaziz Intl (JED) SV595 2018-10-14 21:14:00
King Abdulaziz Intl (JED) - Dubai Intl (DXB) SV594 2018-10-14 19:13:00
King Khaled Intl (RUH) - King Abdulaziz Intl (JED) SV1043 2018-10-13 17:08:00
King Abdulaziz Intl (JED) - King Khaled Intl (RUH) SV1036 2018-10-13 13:23:00
Washington Dulles Intl (IAD) - King Abdulaziz Intl (JED) SV36 2018-10-13 07:50:00
King Abdulaziz Intl (JED) - Washington Dulles Intl (IAD) SV35 2018-10-12 21:12:00
John F Kennedy Intl (JFK) - King Abdulaziz Intl (JED) SV20 2018-10-11 09:01:00
King Abdulaziz Intl (JED) - John F Kennedy Intl (JFK) SV21 2018-10-10 20:18:00
John F Kennedy Intl (JFK) - King Abdulaziz Intl (JED) SV20 2018-10-09 07:13:00
King Abdulaziz Intl (JED) - John F Kennedy Intl (JFK) SV21 2018-10-08 19:57:00
King Khaled Intl (RUH) - King Abdulaziz Intl (JED) SV1057 2018-10-07 00:38:00
Dubai Intl (DXB) - King Khaled Intl (RUH) SV555 2018-10-06 23:50:00
King Khaled Intl (RUH) - Dubai Intl (DXB) SV554 2018-10-06 12:35:00
Los Angeles Intl (LAX) - King Abdulaziz Intl (JED) - King Khaled Intl (RUH) SV42 2018-10-05 16:07:00
King Abdulaziz Intl (JED) - Los Angeles Intl (LAX) SV41 2018-10-04 22:32:00
King Khaled Intl (RUH) - King Abdulaziz Intl (JED) SV1037 2018-10-03 13:10:00
Charles De Gaulle (CDG) - King Khaled Intl (RUH) SV144 2018-10-02 15:34:00
King Khaled Intl (RUH) - Charles De Gaulle (CDG) SV143 2018-10-02 09:29:00
Time Lat Lon Altitude Heading Speed Vertical Rate
2018-10-11 09:00:32 GMT 34.123032 24.378550 35,000 154 509 0
2018-10-11 09:00:29 GMT 34.129440 24.374851 35,000 154 509 0
2018-10-11 08:59:55 GMT 34.201279 24.332943 35,000 154 509 0
2018-10-11 08:59:45 GMT 34.220078 24.321993 35,000 154 509 0
2018-10-11 08:59:40 GMT 34.233215 24.314314 35,000 154 509 0
2018-10-11 08:59:33 GMT 34.249969 24.304504 35,000 154 509 0
2018-10-11 08:58:32 GMT 34.374729 24.231606 35,000 154 512 0
2018-10-11 08:58:21 GMT 34.400208 24.216669 35,000 154 513 0
2018-10-11 08:57:57 GMT 34.454895 24.184628 35,000 154 513 0
2018-10-11 08:57:53 GMT 34.459362 24.181938 35,000 154 513 0
2018-10-11 08:57:50 GMT 34.467819 24.176985 35,000 154 514 0
2018-10-11 08:57:40 GMT 34.487320 24.165550 35,000 154 514 0
2018-10-11 08:57:20 GMT 34.534359 24.137936 35,000 154 514 0
2018-10-11 08:56:57 GMT 34.578072 24.112186 35,000 153 515 0
2018-10-11 08:56:51 GMT 34.591385 24.104347 35,000 153 515 0
2018-10-11 08:56:36 GMT 34.623737 24.085178 35,000 153 515 0
2018-10-11 08:56:27 GMT 34.657928 24.065046 35,000 153 515 0
2018-10-11 08:56:20 GMT 34.657928 24.065046 35,000 153 515 0
2018-10-11 08:56:10 GMT 34.679764 24.052099 35,000 153 515 0
2018-10-11 08:56:02 GMT 34.695755 24.042721 35,000 153 515 0
2018-10-11 08:55:53 GMT 34.717171 24.030075 35,000 153 515 0
2018-10-11 08:55:50 GMT 34.723175 24.026527 35,000 153 515 0
2018-10-11 08:55:41 GMT 34.741005 24.015999 35,000 153 515 0
2018-10-11 08:55:37 GMT 34.749802 24.010792 35,000 153 515 0
2018-10-11 08:55:32 GMT 34.761475 24.003895 35,000 153 515 0
2018-10-11 08:55:28 GMT 34.768753 23.999578 35,000 153 515 0
2018-10-11 08:55:20 GMT 34.787930 23.988247 35,000 153 515 0
2018-10-11 08:55:16 GMT 34.794353 23.984470 35,000 153 515 0
2018-10-11 08:55:11 GMT 34.806549 23.977203 35,000 153 514 0
2018-10-11 08:55:08 GMT 34.811485 23.974285 35,000 153 514 0
2018-10-11 08:55:00 GMT 34.829315 23.963703 35,000 153 514 0
2018-10-11 08:54:57 GMT 34.835083 23.960285 35,000 153 514 0
2018-10-11 08:54:48 GMT 34.855289 23.948250 35,000 153 514 0
2018-10-11 08:54:45 GMT 34.864086 23.943043 35,000 153 514 0
2018-10-11 08:54:38 GMT 34.877357 23.935146 35,000 153 514 0
2018-10-11 08:54:30 GMT 34.896515 23.923794 35,000 153 514 0
2018-10-11 08:54:26 GMT 34.902821 23.920040 35,000 153 514 0
2018-10-11 08:54:17 GMT 34.922150 23.908491 35,000 153 514 0
2018-10-11 08:54:12 GMT 34.934784 23.901037 35,000 153 514 0
2018-10-11 08:54:06 GMT 34.945602 23.894577 35,000 153 514 0
2018-10-11 08:53:56 GMT 34.965958 23.882484 35,000 153 513 0
2018-10-11 08:53:46 GMT 34.987747 23.869535 35,000 153 513 0
2018-10-11 08:53:38 GMT 35.006863 23.858128 35,000 153 514 0
2018-10-11 08:53:35 GMT 35.011047 23.855690 35,000 153 514 0
2018-10-11 08:53:25 GMT 35.032932 23.842621 35,000 153 514 0
2018-10-11 08:53:15 GMT 35.054302 23.829918 35,000 153 513 0
2018-10-11 08:53:04 GMT 35.077652 23.816006 35,000 153 512 0
2018-10-11 08:52:53 GMT 35.100494 23.802441 35,000 153 512 0
2018-10-11 08:52:48 GMT 35.114731 23.793921 35,000 153 512 0
2018-10-11 08:52:44 GMT 35.120590 23.790436 35,000 153 512 0
2018-10-11 08:52:35 GMT 35.140503 23.778505 35,000 153 512 0
2018-10-11 08:52:23 GMT 35.164024 23.764458 35,000 153 511 0
2018-10-11 08:52:12 GMT 35.187580 23.750324 35,000 153 511 0
2018-10-11 08:52:08 GMT 35.198238 23.743916 35,000 153 510 0
2018-10-11 08:52:02 GMT 35.208527 23.737757 35,000 153 510 0
2018-10-11 08:51:52 GMT 35.230133 23.724747 35,000 153 510 0
2018-10-11 08:51:47 GMT 35.245956 23.715216 35,000 153 510 0
2018-10-11 08:51:42 GMT 35.252522 23.711243 35,000 153 510 0
2018-10-11 08:51:34 GMT 35.270004 23.700771 35,000 153 510 0
2018-10-11 08:51:31 GMT 35.275726 23.697338 35,000 153 510 0
2018-10-11 08:51:19 GMT 35.299438 23.683090 35,000 153 509 0
2018-10-11 08:51:11 GMT 35.318298 23.671761 35,000 153 509 0
2018-10-11 08:51:00 GMT 35.345905 23.655142 35,000 153 509 0
2018-10-11 08:50:50 GMT 35.362198 23.645384 35,000 153 509 0
2018-10-11 08:50:47 GMT 35.369705 23.640862 35,000 153 509 0
2018-10-11 08:50:40 GMT 35.383621 23.632450 35,000 153 509 0
2018-10-11 08:50:36 GMT 35.393665 23.626390 35,000 153 509 0
2018-10-11 08:50:29 GMT 35.405640 23.619175 35,000 153 509 0
2018-10-11 08:50:23 GMT 35.421295 23.609734 35,000 153 509 0
2018-10-11 08:50:19 GMT 35.427429 23.606071 35,000 153 509 0
2018-10-11 08:50:12 GMT 35.442360 23.597055 35,000 153 509 0
2018-10-11 08:50:09 GMT 35.448460 23.593372 35,000 153 510 0
2018-10-11 08:50:03 GMT 35.460327 23.586245 35,000 153 510 0
2018-10-11 08:49:59 GMT 35.470001 23.580379 35,000 153 510 0
2018-10-11 08:49:54 GMT 35.483322 23.572311 35,000 153 510 0
2018-10-11 08:49:48 GMT 35.492020 23.567104 35,000 153 510 0
2018-10-11 08:49:41 GMT 35.510185 23.556149 35,000 153 511 0
2018-10-11 08:49:37 GMT 35.515678 23.552816 35,000 153 511 0
2018-10-11 08:49:31 GMT 35.529694 23.544344 35,000 153 512 0
2018-10-11 08:49:27 GMT 35.536907 23.540020 35,000 153 512 0
2018-10-11 08:49:18 GMT 35.558258 23.527050 35,000 153 512 0
2018-10-11 08:49:05 GMT 35.585739 23.510391 35,000 153 512 0
2018-10-11 08:48:57 GMT 35.603149 23.499872 35,000 153 512 0
2018-10-11 08:48:46 GMT 35.625320 23.486423 35,000 153 511 0
2018-10-11 08:48:43 GMT 35.632324 23.482189 35,000 153 510 0
2018-10-11 08:48:36 GMT 35.647934 23.472757 35,000 153 511 0
2018-10-11 08:48:31 GMT 35.655804 23.468023 35,000 153 511 0
2018-10-11 08:48:25 GMT 35.669449 23.459759 35,000 153 511 0
2018-10-11 08:48:15 GMT 35.691414 23.446402 35,000 153 511 0
2018-10-11 08:48:05 GMT 35.713348 23.433094 35,000 153 511 0
2018-10-11 08:47:53 GMT 35.735916 23.419346 35,000 153 511 0
2018-10-11 08:47:47 GMT 35.750538 23.410463 35,000 153 511 0
2018-10-11 08:47:44 GMT 35.757519 23.406197 35,000 153 511 0
2018-10-11 08:47:33 GMT 35.779770 23.392639 35,000 153 511 0
2018-10-11 08:47:25 GMT 35.798622 23.381126 35,000 153 511 0
2018-10-11 08:47:22 GMT 35.801926 23.379135 35,000 153 511 0
2018-10-11 08:47:12 GMT 35.824043 23.365582 35,000 153 511 0
2018-10-11 08:47:02 GMT 35.845688 23.352434 35,000 153 511 0
2018-10-11 08:46:52 GMT 35.867844 23.338909 35,000 153 511 0
2018-10-11 08:46:40 GMT 35.892197 23.324089 35,000 153 511 0
2018-10-11 08:46:31 GMT 35.912521 23.311672 35,000 153 510 0
2018-10-11 08:46:18 GMT 35.939072 23.295458 35,000 153 510 0
2018-10-11 08:46:08 GMT 35.961182 23.281918 35,000 153 509 0
2018-10-11 08:45:57 GMT 35.984276 23.267757 35,000 153 509 0
2018-10-11 08:45:48 GMT 36.001171 23.257355 35,000 153 509 0
2018-10-11 08:45:45 GMT 36.008575 23.252855 35,000 153 510 0
2018-10-11 08:45:37 GMT 36.024216 23.243273 35,000 153 510 0
2018-10-11 08:45:29 GMT 36.043808 23.231277 35,000 153 510 0
2018-10-11 08:45:22 GMT 36.057358 23.222980 35,000 153 510 0
2018-10-11 08:45:18 GMT 36.064957 23.218346 35,000 153 510 0
2018-10-11 08:45:15 GMT 36.070267 23.215084 35,000 153 510 0
2018-10-11 08:45:07 GMT 36.087845 23.204327 35,000 153 510 0
2018-10-11 08:45:04 GMT 36.095673 23.199520 35,000 153 510 0
2018-10-11 08:44:55 GMT 36.112900 23.188866 35,000 153 512 0
2018-10-11 08:44:47 GMT 36.131653 23.177319 35,000 153 512 0
2018-10-11 08:44:39 GMT 36.146835 23.168003 35,000 153 512 0
2018-10-11 08:44:34 GMT 36.157974 23.161125 35,000 153 512 0
2018-10-11 08:44:27 GMT 36.180038 23.147564 35,000 153 512 0
2018-10-11 08:44:18 GMT 36.192764 23.139725 35,000 153 512 0
2018-10-11 08:44:14 GMT 36.203907 23.132883 35,000 153 512 0
2018-10-11 08:44:10 GMT 36.210800 23.128681 35,000 153 512 0
2018-10-11 08:44:03 GMT 36.226158 23.119150 35,000 153 512 0
2018-10-11 08:44:00 GMT 36.232956 23.115002 35,000 153 512 0
2018-10-11 08:43:51 GMT 36.260376 23.098011 35,000 153 512 0
2018-10-11 08:43:44 GMT 36.264404 23.095551 35,000 153 512 0
2018-10-11 08:43:39 GMT 36.277359 23.087482 35,000 153 512 0
2018-10-11 08:43:31 GMT 36.294174 23.077074 35,000 153 512 0
2018-10-11 08:43:23 GMT 36.311234 23.066483 35,000 153 512 0
2018-10-11 08:43:20 GMT 36.317780 23.062420 35,000 153 512 0
2018-10-11 08:43:17 GMT 36.321499 23.060127 35,000 153 512 0
2018-10-11 08:43:13 GMT 36.329319 23.055277 35,000 153 512 0
2018-10-11 08:43:09 GMT 36.339203 23.049202 35,000 153 512 0
2018-10-11 08:43:06 GMT 36.344513 23.045940 35,000 153 512 0
2018-10-11 08:43:02 GMT 36.352753 23.040848 35,000 153 512 0
2018-10-11 08:42:58 GMT 36.364197 23.033752 35,000 153 512 0
2018-10-11 08:42:52 GMT 36.374104 23.027636 35,000 153 512 0
2018-10-11 08:42:47 GMT 36.387131 23.019562 35,000 153 512 0
2018-10-11 08:42:42 GMT 36.395332 23.014545 35,000 153 512 0
2018-10-11 08:42:34 GMT 36.414734 23.002510 35,000 153 512 0
2018-10-11 08:42:31 GMT 36.418991 22.999878 35,000 153 512 0
2018-10-11 08:42:24 GMT 36.435974 22.989349 35,000 153 513 0
2018-10-11 08:42:21 GMT 36.441185 22.986145 35,000 153 513 0
2018-10-11 08:42:13 GMT 36.456390 22.976704 35,000 153 513 0
2018-10-11 08:42:10 GMT 36.462753 22.972755 35,000 153 513 0
2018-10-11 08:42:04 GMT 36.479637 22.962244 35,000 153 513 0
2018-10-11 08:42:00 GMT 36.485409 22.958679 35,000 153 513 0
2018-10-11 08:41:53 GMT 36.503052 22.947693 35,000 153 514 0
2018-10-11 08:41:49 GMT 36.507385 22.944946 35,000 153 514 0
2018-10-11 08:41:42 GMT 36.525398 22.933784 35,000 153 514 0
2018-10-11 08:41:39 GMT 36.532845 22.929110 35,000 153 514 0
2018-10-11 08:41:31 GMT 36.545601 22.921162 35,000 153 514 0
2018-10-11 08:41:28 GMT 36.552109 22.917137 35,000 153 514 0
2018-10-11 08:41:22 GMT 36.566803 22.908039 35,000 153 514 0
2018-10-11 08:41:19 GMT 36.573807 22.903633 35,000 153 514 0
2018-10-11 08:41:10 GMT 36.592346 22.892132 35,000 153 514 0
2018-10-11 08:41:07 GMT 36.599880 22.887444 35,000 153 514 0
2018-10-11 08:40:58 GMT 36.619537 22.875137 35,000 153 514 0
2018-10-11 08:40:49 GMT 36.638260 22.863464 35,000 153 513 0
2018-10-11 08:40:45 GMT 36.647003 22.858028 35,000 153 513 0
2018-10-11 08:40:38 GMT 36.662292 22.848473 35,000 153 513 0
2018-10-11 08:40:34 GMT 36.670456 22.843382 35,000 153 514 0
2018-10-11 08:40:26 GMT 36.685684 22.833881 35,000 153 514 0
2018-10-11 08:40:23 GMT 36.691963 22.829941 35,000 153 514 0
2018-10-11 08:40:15 GMT 36.708954 22.819305 35,000 153 514 0
2018-10-11 08:40:12 GMT 36.714203 22.816086 35,000 153 514 0
2018-10-11 08:40:04 GMT 36.731644 22.805157 35,000 153 515 0
2018-10-11 08:40:01 GMT 36.738007 22.801208 35,000 153 515 0
2018-10-11 08:39:55 GMT 36.753876 22.791256 35,000 153 515 0
2018-10-11 08:39:50 GMT 36.760574 22.787075 35,000 153 515 0
2018-10-11 08:39:44 GMT 36.774918 22.778048 35,000 153 515 0
2018-10-11 08:39:39 GMT 36.784695 22.771912 35,000 153 515 0
2018-10-11 08:39:33 GMT 36.799591 22.762562 35,000 153 515 0
2018-10-11 08:39:29 GMT 36.806763 22.758121 35,000 153 515 0
2018-10-11 08:39:23 GMT 36.821869 22.748623 35,000 153 516 0
2018-10-11 08:39:18 GMT 36.829330 22.743931 35,000 153 516 0
2018-10-11 08:39:12 GMT 36.845024 22.734102 35,000 153 516 0
2018-10-11 08:39:08 GMT 36.852707 22.729280 35,000 153 516 0
2018-10-11 08:39:01 GMT 36.875332 22.715069 35,000 153 516 0
2018-10-11 08:38:57 GMT 36.875332 22.715069 35,000 153 516 0
2018-10-11 08:38:47 GMT 36.901062 22.698864 35,000 153 516 0
2018-10-11 08:38:41 GMT 36.908524 22.694189 35,000 153 516 0
2018-10-11 08:38:34 GMT 36.926769 22.682707 35,000 153 516 0
2018-10-11 08:38:30 GMT 36.931320 22.679813 35,000 153 516 0
2018-10-11 08:38:23 GMT 36.947983 22.669294 35,000 153 516 0
2018-10-11 08:38:19 GMT 36.954704 22.665092 35,000 153 516 0
2018-10-11 08:38:10 GMT 36.975559 22.651897 35,000 153 516 0
2018-10-11 08:38:06 GMT 36.982498 22.647497 35,000 153 516 0
2018-10-11 08:37:59 GMT 36.998787 22.637211 35,000 153 515 0
2018-10-11 08:37:47 GMT 37.022781 22.622078 35,000 153 516 0
2018-10-11 08:37:44 GMT 37.029697 22.617685 35,000 153 516 0
2018-10-11 08:37:37 GMT 37.043941 22.608669 35,000 153 515 0
2018-10-11 08:37:27 GMT 37.066521 22.594398 35,000 153 515 0
2018-10-11 08:37:17 GMT 37.092312 22.578098 35,000 153 515 0
2018-10-11 08:37:05 GMT 37.117767 22.562002 35,000 153 515 0
2018-10-11 08:36:53 GMT 37.143799 22.545557 35,000 153 515 0
2018-10-11 08:36:45 GMT 37.156448 22.537518 35,000 153 515 0
2018-10-11 08:36:42 GMT 37.164001 22.532780 35,000 153 514 0
2018-10-11 08:36:39 GMT 37.168285 22.530092 35,000 153 514 0
2018-10-11 08:36:35 GMT 37.177177 22.524422 35,000 153 514 0
2018-10-11 08:36:31 GMT 37.187302 22.518000 35,000 153 514 0
2018-10-11 08:36:28 GMT 37.191422 22.515406 35,000 153 514 0
2018-10-11 08:36:24 GMT 37.200027 22.509933 35,000 153 514 0
2018-10-11 08:36:21 GMT 37.208954 22.504267 35,000 153 514 0
2018-10-11 08:36:18 GMT 37.214081 22.501053 35,000 153 514 0
2018-10-11 08:36:15 GMT 37.236603 22.486734 35,000 153 514 0
2018-10-11 08:36:07 GMT 37.236603 22.486734 35,000 153 514 0
2018-10-11 08:36:03 GMT 37.244770 22.481550 35,000 152 515 0
2018-10-11 08:35:58 GMT 37.255569 22.474684 35,000 152 514 0
2018-10-11 08:35:54 GMT 37.265766 22.468176 35,000 152 514 0
2018-10-11 08:35:48 GMT 37.278168 22.460262 35,000 153 514 0
2018-10-11 08:35:41 GMT 37.292404 22.451204 35,000 153 514 0
2018-10-11 08:35:38 GMT 37.300354 22.446142 35,000 153 514 0
2018-10-11 08:35:30 GMT 37.314468 22.437120 35,000 152 515 0
2018-10-11 08:35:26 GMT 37.324745 22.430559 35,000 152 515 0
2018-10-11 08:35:19 GMT 37.337357 22.422510 35,000 152 515 0
2018-10-11 08:35:15 GMT 37.348953 22.415154 35,000 152 515 0
2018-10-11 08:35:12 GMT 37.359421 22.408428 35,000 153 514 0
2018-10-11 08:35:04 GMT 37.371552 22.400715 35,000 153 514 0
2018-10-11 08:34:58 GMT 37.382996 22.393410 35,000 153 514 0
2018-10-11 08:34:54 GMT 37.394341 22.386196 35,000 153 514 0
2018-10-11 08:34:50 GMT 37.398811 22.383329 35,000 153 514 0
2018-10-11 08:34:47 GMT 37.405289 22.379267 35,000 153 514 0
2018-10-11 08:34:40 GMT 37.423622 22.367567 35,000 153 513 0
2018-10-11 08:34:37 GMT 37.427765 22.364891 35,000 153 513 0
2018-10-11 08:34:30 GMT 37.442711 22.355387 35,000 153 513 0
2018-10-11 08:34:25 GMT 37.452988 22.348822 35,000 153 513 0
2018-10-11 08:34:20 GMT 37.464890 22.341225 35,000 152 514 0
2018-10-11 08:34:15 GMT 37.474823 22.334854 35,000 152 514 0
2018-10-11 08:34:08 GMT 37.488472 22.326071 35,000 153 513 0
2018-10-11 08:33:58 GMT 37.512726 22.310602 35,000 152 512 0
2018-10-11 08:33:48 GMT 37.531857 22.298306 35,000 152 513 0
2018-10-11 08:33:37 GMT 37.553692 22.284334 35,000 152 514 0
2018-10-11 08:33:28 GMT 37.576965 22.269407 35,000 152 514 0
2018-10-11 08:33:16 GMT 37.598923 22.255320 35,000 153 513 0
2018-10-11 08:33:06 GMT 37.622124 22.240448 35,000 152 514 0
2018-10-11 08:32:55 GMT 37.645397 22.225460 35,000 152 514 0
2018-10-11 08:32:50 GMT 37.653683 22.220146 35,000 152 514 0
2018-10-11 08:32:43 GMT 37.668488 22.210594 35,000 152 514 0
2018-10-11 08:32:40 GMT 37.675186 22.206291 35,000 152 514 0
2018-10-11 08:32:35 GMT 37.689064 22.197338 35,000 152 514 0
2018-10-11 08:32:29 GMT 37.697536 22.191904 35,000 152 514 0
2018-10-11 08:32:23 GMT 37.710663 22.183428 35,000 152 514 0
2018-10-11 08:32:19 GMT 37.720627 22.176977 35,000 152 514 0
2018-10-11 08:32:15 GMT 37.730484 22.170645 35,000 152 514 0
2018-10-11 08:32:08 GMT 37.743210 22.162462 35,000 152 514 0
2018-10-11 08:32:03 GMT 37.755402 22.154587 35,000 152 514 0
2018-10-11 08:31:57 GMT 37.766510 22.147387 35,000 152 514 0
2018-10-11 08:31:52 GMT 37.778595 22.139612 35,000 152 514 0
2018-10-11 08:31:46 GMT 37.788872 22.132973 35,000 152 514 0
2018-10-11 08:31:40 GMT 37.801815 22.124615 35,000 152 514 0
2018-10-11 08:31:35 GMT 37.813915 22.116793 35,000 152 514 0
2018-10-11 08:31:31 GMT 37.824486 22.109926 35,000 152 514 0
2018-10-11 08:31:25 GMT 37.834263 22.103598 35,000 152 514 0
2018-10-11 08:31:22 GMT 37.840824 22.099358 35,000 152 514 0
2018-10-11 08:31:14 GMT 37.857468 22.088596 35,000 152 514 0
2018-10-11 08:31:10 GMT 37.866661 22.082640 35,000 152 514 0
2018-10-11 08:31:02 GMT 37.885513 22.070398 35,000 152 514 0
2018-10-11 08:30:53 GMT 37.902458 22.059412 35,000 152 514 0
2018-10-11 08:30:50 GMT 37.909023 22.055174 35,000 152 514 0
2018-10-11 08:30:46 GMT 37.919495 22.048332 35,000 152 513 0
2018-10-11 08:30:40 GMT 37.930996 22.040903 35,000 152 513 0
2018-10-11 08:30:37 GMT 37.940414 22.034777 35,000 152 513 0
2018-10-11 08:30:30 GMT 37.951527 22.027529 35,000 152 513 0
2018-10-11 08:30:16 GMT 37.980194 22.008945 35,000 152 513 0
2018-10-11 08:30:07 GMT 38.001011 21.995464 35,000 152 513 0
2018-10-11 08:30:03 GMT 38.008530 21.990538 35,000 152 513 0
2018-10-11 08:29:59 GMT 38.018417 21.984110 35,000 152 512 0
2018-10-11 08:29:54 GMT 38.028992 21.977274 35,000 152 512 0
2018-10-11 08:29:49 GMT 38.039230 21.970566 35,000 152 512 0
2018-10-11 08:29:44 GMT 38.053383 21.961370 35,000 152 512 0
2018-10-11 08:29:37 GMT 38.064468 21.954189 35,000 152 512 0
2018-10-11 08:29:32 GMT 38.075310 21.947102 35,000 152 512 0
2018-10-11 08:29:27 GMT 38.087364 21.939220 35,000 152 512 0
2018-10-11 08:29:22 GMT 38.094952 21.934263 35,000 152 512 0
2018-10-11 08:29:15 GMT 38.110016 21.924444 35,000 152 512 0
2018-10-11 08:29:12 GMT 38.116646 21.920113 35,000 152 512 0
2018-10-11 08:29:05 GMT 38.139999 21.904867 35,000 152 512 0
2018-10-11 08:29:00 GMT 38.139999 21.904867 35,000 152 512 0
2018-10-11 08:28:51 GMT 38.162155 21.890375 35,000 152 512 0
2018-10-11 08:28:43 GMT 38.178932 21.879393 35,000 152 513 0
2018-10-11 08:28:40 GMT 38.183258 21.876583 35,000 152 513 0
2018-10-11 08:28:35 GMT 38.193787 21.869690 35,000 152 512 0
2018-10-11 08:28:30 GMT 38.207062 21.860981 35,000 152 512 0
2018-10-11 08:28:19 GMT 38.230042 21.845963 35,000 152 512 0
2018-10-11 08:28:08 GMT 38.253368 21.830730 35,000 152 512 0
2018-10-11 08:28:00 GMT 38.269913 21.819901 35,000 152 512 0
2018-10-11 08:27:57 GMT 38.276367 21.815683 35,000 152 512 0
2018-10-11 08:27:49 GMT 38.293579 21.804413 35,000 152 513 0
2018-10-11 08:27:46 GMT 38.299782 21.800339 35,000 152 513 0
2018-10-11 08:27:38 GMT 38.315735 21.789862 35,000 152 514 0
2018-10-11 08:27:35 GMT 38.320999 21.786415 35,000 152 513 0
2018-10-11 08:27:28 GMT 38.337479 21.775545 35,000 152 514 0
2018-10-11 08:27:25 GMT 38.344147 21.771200 35,000 152 514 0
2018-10-11 08:27:16 GMT 38.361328 21.759825 35,000 152 514 0
2018-10-11 08:27:13 GMT 38.366726 21.756273 35,000 152 514 0
2018-10-11 08:27:06 GMT 38.383018 21.745586 35,000 152 513 0
2018-10-11 08:27:01 GMT 38.391129 21.740191 35,000 152 513 0
2018-10-11 08:26:54 GMT 38.406433 21.730122 35,000 152 513 0
2018-10-11 08:26:51 GMT 38.412998 21.725830 35,000 152 513 0
2018-10-11 08:26:45 GMT 38.428780 21.715393 35,000 152 513 0
2018-10-11 08:26:42 GMT 38.434086 21.711914 35,000 152 513 0
2018-10-11 08:26:37 GMT 38.444374 21.705139 35,000 152 513 0
2018-10-11 08:26:34 GMT 38.451962 21.700134 35,000 152 513 0
2018-10-11 08:26:31 GMT 38.457367 21.696566 35,000 152 513 0
2018-10-11 08:26:26 GMT 38.465561 21.691191 35,000 152 512 0
2018-10-11 08:26:23 GMT 38.482224 21.680204 35,000 152 512 0
2018-10-11 08:26:15 GMT 38.488876 21.675842 35,000 152 513 0
2018-10-11 08:26:12 GMT 38.497192 21.670294 35,000 152 513 0
2018-10-11 08:26:05 GMT 38.509083 21.662476 35,000 152 512 0
2018-10-11 08:25:58 GMT 38.528030 21.649902 35,000 152 512 0
2018-10-11 08:25:54 GMT 38.532120 21.647186 35,000 152 512 0
2018-10-11 08:25:51 GMT 38.540646 21.641541 35,000 152 512 0
2018-10-11 08:25:48 GMT 38.547089 21.637335 35,000 152 512 0
2018-10-11 08:25:44 GMT 38.553406 21.633156 35,000 152 512 0
2018-10-11 08:25:39 GMT 38.566341 21.624573 35,000 152 512 0
2018-10-11 08:25:36 GMT 38.572254 21.620667 35,000 152 513 0
2018-10-11 08:25:32 GMT 38.580681 21.615112 35,000 152 513 0
2018-10-11 08:25:26 GMT 38.591618 21.607849 35,000 152 513 0
2018-10-11 08:25:20 GMT 38.604839 21.599060 35,000 152 513 0
2018-10-11 08:25:13 GMT 38.620743 21.588493 35,000 152 512 0
2018-10-11 08:25:10 GMT 38.625778 21.585150 35,000 152 512 0
2018-10-11 08:25:06 GMT 38.637131 21.577625 35,000 152 511 0
2018-10-11 08:25:02 GMT 38.643524 21.573364 35,000 152 511 0
2018-10-11 08:24:59 GMT 38.649124 21.569685 35,000 152 511 0
2018-10-11 08:24:55 GMT 38.659073 21.563110 35,000 152 511 0
2018-10-11 08:24:50 GMT 38.668671 21.556728 35,000 152 511 0
2018-10-11 08:24:44 GMT 38.683136 21.547115 35,000 152 511 0
2018-10-11 08:24:39 GMT 38.693665 21.540190 35,000 152 511 0
2018-10-11 08:24:33 GMT 38.704971 21.532665 35,000 152 511 0
2018-10-11 08:24:29 GMT 38.712341 21.527769 35,000 152 511 0
2018-10-11 08:24:22 GMT 38.727364 21.517822 35,000 152 511 0
2018-10-11 08:24:19 GMT 38.735558 21.512329 35,000 152 511 0
2018-10-11 08:24:11 GMT 38.750034 21.502686 35,000 152 512 0
2018-10-11 08:24:08 GMT 38.756554 21.498352 35,000 152 512 0
2018-10-11 08:24:00 GMT 38.772629 21.487705 35,000 152 512 0
2018-10-11 08:23:57 GMT 38.782059 21.481377 35,000 152 512 0
2018-10-11 08:23:49 GMT 38.795929 21.472122 35,000 152 512 0
2018-10-11 08:23:46 GMT 38.801941 21.468140 35,000 152 512 0
2018-10-11 08:23:40 GMT 38.815704 21.458986 35,000 152 512 0
2018-10-11 08:23:37 GMT 38.823170 21.453979 35,000 152 512 0
2018-10-11 08:23:28 GMT 38.842072 21.441345 35,000 152 512 0
2018-10-11 08:23:23 GMT 38.852692 21.434265 35,000 152 512 0
2018-10-11 08:23:17 GMT 38.865395 21.425781 35,000 152 512 0
2018-10-11 08:23:08 GMT 38.882263 21.414442 35,000 152 512 0
2018-10-11 08:23:04 GMT 38.890347 21.409058 35,000 152 511 0
2018-10-11 08:22:58 GMT 38.902405 21.400949 35,000 152 511 0
2018-10-11 08:22:55 GMT 38.911945 21.394592 35,000 152 511 -64
2018-10-11 08:22:49 GMT 38.924095 21.386475 35,000 152 511 0
2018-10-11 08:22:43 GMT 38.935223 21.379028 35,000 152 511 0
2018-10-11 08:22:37 GMT 38.946114 21.371704 35,000 152 511 0
2018-10-11 08:22:31 GMT 38.958755 21.363214 35,000 152 511 0
2018-10-11 08:22:27 GMT 38.967064 21.357666 35,000 152 511 0
2018-10-11 08:22:21 GMT 38.979633 21.349243 35,000 152 511 0
2018-10-11 08:22:18 GMT 38.988243 21.343506 35,000 152 511 0
2018-10-11 08:22:10 GMT 39.003021 21.333597 35,000 152 512 0
2018-10-11 08:22:06 GMT 39.011215 21.328106 35,000 152 512 0
2018-10-11 08:22:03 GMT 39.020321 21.321960 35,000 152 512 0
2018-10-11 08:21:56 GMT 39.032516 21.313782 35,000 152 512 0
2018-10-11 08:21:50 GMT 39.048248 21.303223 35,000 152 512 0
2018-10-11 08:21:47 GMT 39.054657 21.298967 35,000 152 512 0
2018-10-11 08:21:42 GMT 39.063263 21.293177 35,000 152 512 0
2018-10-11 08:21:39 GMT 39.071228 21.287802 35,000 152 512 0
2018-10-11 08:21:36 GMT 39.075111 21.285217 35,000 152 512 0
2018-10-11 08:21:30 GMT 39.088028 21.276518 35,000 152 512 0
2018-10-11 08:21:27 GMT 39.093475 21.272816 35,000 152 512 0
2018-10-11 08:21:23 GMT 39.101028 21.267740 35,000 152 512 0
2018-10-11 08:21:20 GMT 39.107574 21.263380 35,000 152 512 0
2018-10-11 08:21:16 GMT 39.118698 21.255857 35,000 152 512 0
2018-10-11 08:21:09 GMT 39.130554 21.247864 35,000 152 513 0
2018-10-11 08:21:04 GMT 39.141682 21.240356 35,000 152 513 0
2018-10-11 08:20:59 GMT 39.153534 21.232393 35,000 152 512 0
2018-10-11 08:20:55 GMT 39.161499 21.227018 35,000 152 512 0
2018-10-11 08:20:50 GMT 39.173904 21.218660 35,000 152 512 0
2018-10-11 08:20:44 GMT 39.184742 21.211365 35,000 152 513 0
2018-10-11 08:20:39 GMT 39.194733 21.204628 35,000 152 513 0
2018-10-11 08:20:34 GMT 39.204620 21.198002 35,000 152 513 0
2018-10-11 08:20:28 GMT 39.217850 21.189045 35,000 152 513 0
2018-10-11 08:20:24 GMT 39.226406 21.183289 35,000 152 513 0
2018-10-11 08:20:17 GMT 39.241116 21.173340 35,000 152 513 0
2018-10-11 08:20:12 GMT 39.251312 21.166475 35,000 152 513 0
2018-10-11 08:20:06 GMT 39.264130 21.157818 35,000 152 513 0
2018-10-11 08:20:02 GMT 39.272633 21.152039 35,000 152 513 0
2018-10-11 08:19:52 GMT 39.295670 21.136440 35,000 152 514 0
2018-10-11 08:19:42 GMT 39.317043 21.121948 35,000 152 514 0
2018-10-11 08:19:39 GMT 39.322174 21.118410 35,000 152 515 0
2018-10-11 08:19:31 GMT 39.337059 21.108398 35,000 152 515 0
2018-10-11 08:19:24 GMT 39.353912 21.096985 35,000 152 515 0
2018-10-11 08:19:20 GMT 39.360352 21.092615 35,000 152 515 0
2018-10-11 08:19:16 GMT 39.371109 21.085331 35,000 152 516 0
2018-10-11 08:19:10 GMT 39.381378 21.078369 35,000 152 516 0
2018-10-11 08:19:05 GMT 39.394272 21.069702 35,000 152 516 0
2018-10-11 08:19:00 GMT 39.404938 21.062464 35,000 152 516 0
2018-10-11 08:18:49 GMT 39.425926 21.048157 35,000 152 516 0
2018-10-11 08:18:43 GMT 39.437984 21.039978 35,000 152 515 0
2018-10-11 08:18:39 GMT 39.448505 21.032837 35,000 152 515 0
2018-10-11 08:18:29 GMT 39.469643 21.018433 35,000 152 515 0
2018-10-11 08:18:23 GMT 39.481522 21.010279 35,000 152 515 0
2018-10-11 08:18:19 GMT 39.490585 21.004128 35,000 152 515 0
2018-10-11 08:18:12 GMT 39.505020 20.994263 35,000 152 515 0
2018-10-11 08:18:09 GMT 39.512608 20.989075 35,000 152 515 0
2018-10-11 08:18:03 GMT 39.524014 20.981262 35,000 151 515 0
2018-10-11 08:17:57 GMT 39.535789 20.973206 35,000 151 515 0
2018-10-11 08:17:52 GMT 39.549362 20.963825 35,000 151 515 0
2018-10-11 08:17:47 GMT 39.557602 20.958212 35,000 151 515 0
2018-10-11 08:17:43 GMT 39.566330 20.952148 35,000 151 516 0
2018-10-11 08:17:36 GMT 39.580536 20.942329 35,000 151 516 0
2018-10-11 08:17:33 GMT 39.588627 20.936768 35,000 151 516 0
2018-10-11 08:17:25 GMT 39.603699 20.926329 35,000 151 516 0
2018-10-11 08:17:14 GMT 39.626587 20.910385 35,000 151 516 0
2018-10-11 08:17:03 GMT 39.650032 20.893982 35,000 151 517 0
2018-10-11 08:16:55 GMT 39.667114 20.882080 35,000 151 517 0
2018-10-11 08:16:51 GMT 39.675308 20.876343 35,000 151 517 0
2018-10-11 08:16:41 GMT 39.696259 20.861664 35,000 151 518 0
2018-10-11 08:16:35 GMT 39.710270 20.851807 35,000 151 518 0
2018-10-11 08:16:30 GMT 39.718826 20.845840 35,000 151 518 0
2018-10-11 08:16:20 GMT 39.743317 20.828766 35,000 151 518 0
2018-10-11 08:16:12 GMT 39.756542 20.819641 35,000 152 518 0
2018-10-11 08:16:09 GMT 39.763107 20.815125 35,000 152 518 0
2018-10-11 08:16:04 GMT 39.773621 20.807985 35,000 152 518 0
2018-10-11 08:15:59 GMT 39.784428 20.800842 35,000 153 517 0
2018-10-11 08:15:49 GMT 39.808228 20.785833 35,000 155 518 0
2018-10-11 08:15:38 GMT 39.829582 20.773499 35,000 157 517 0
2018-10-11 08:15:35 GMT 39.836426 20.769775 35,000 158 517 0
2018-10-11 08:15:28 GMT 39.851852 20.761652 35,000 158 517 0
2018-10-11 08:15:22 GMT 39.866867 20.754309 35,000 160 516 0
2018-10-11 08:15:15 GMT 39.882744 20.746887 35,000 161 517 0
2018-10-11 08:15:04 GMT 39.907883 20.736097 35,000 162 517 0
2018-10-11 08:15:01 GMT 39.914585 20.733337 35,000 162 518 0
2018-10-11 08:14:58 GMT 39.921898 20.730286 35,000 162 518 0
2018-10-11 08:14:47 GMT 39.947159 20.719910 35,000 162 518 0
2018-10-11 08:14:42 GMT 39.957088 20.715845 35,000 162 518 0
2018-10-11 08:14:37 GMT 39.971939 20.709728 35,000 162 518 0
2018-10-11 08:14:32 GMT 39.978783 20.706919 35,000 162 518 0
2018-10-11 08:14:26 GMT 39.993988 20.700684 35,000 162 517 0
2018-10-11 08:14:22 GMT 40.003223 20.696869 35,000 162 517 0
2018-10-11 08:14:15 GMT 40.019989 20.689941 35,000 162 517 0
2018-10-11 08:14:06 GMT 40.041412 20.681091 35,000 162 517 0
2018-10-11 08:13:54 GMT 40.066727 20.670654 35,000 162 517 0
2018-10-11 08:13:44 GMT 40.089706 20.661133 35,000 162 516 0
2018-10-11 08:13:34 GMT 40.114563 20.650818 35,000 162 516 0
2018-10-11 08:13:22 GMT 40.140060 20.640259 35,000 162 516 0
2018-10-11 08:13:11 GMT 40.163956 20.630371 35,000 162 516 0
2018-10-11 08:13:02 GMT 40.186405 20.621088 35,000 162 516 0
2018-10-11 08:12:53 GMT 40.207214 20.612427 35,000 162 516 0
2018-10-11 08:12:40 GMT 40.234772 20.601013 35,000 162 516 0
2018-10-11 08:12:32 GMT 40.255161 20.592499 35,000 162 516 0
2018-10-11 08:12:21 GMT 40.278717 20.582703 35,000 162 516 0
2018-10-11 08:12:08 GMT 40.308651 20.570213 35,000 162 516 0
2018-10-11 08:12:02 GMT 40.324341 20.563660 35,000 162 516 0
2018-10-11 08:11:49 GMT 40.352234 20.552002 35,000 162 516 0
2018-10-11 08:11:41 GMT 40.372616 20.543497 35,000 162 516 0
2018-10-11 08:11:38 GMT 40.376129 20.542053 35,000 162 516 0
2018-10-11 08:11:30 GMT 40.395493 20.533997 35,000 162 516 0
2018-10-11 08:11:27 GMT 40.400024 20.532104 35,000 162 516 0
2018-10-11 08:11:16 GMT 40.425171 20.521587 35,000 162 515 0
2018-10-11 08:11:10 GMT 40.442093 20.514526 35,000 162 515 0
2018-10-11 08:11:06 GMT 40.449142 20.511597 35,000 162 515 0
2018-10-11 08:10:58 GMT 40.467396 20.503922 35,000 162 515 0
2018-10-11 08:10:55 GMT 40.472889 20.501675 35,000 162 515 0
2018-10-11 08:10:48 GMT 40.490021 20.494507 35,000 162 515 0
2018-10-11 08:10:45 GMT 40.496841 20.491638 35,000 162 515 0
2018-10-11 08:10:38 GMT 40.513184 20.484802 35,000 162 515 0
2018-10-11 08:10:34 GMT 40.521790 20.481140 35,000 162 515 0
2018-10-11 08:10:27 GMT 40.544624 20.471586 35,000 162 515 0
2018-10-11 08:10:24 GMT 40.544624 20.471586 35,000 162 515 0
2018-10-11 08:10:18 GMT 40.560837 20.464783 35,000 162 514 0
2018-10-11 08:10:13 GMT 40.568527 20.461548 35,000 162 514 0
2018-10-11 08:10:02 GMT 40.594482 20.450674 35,000 162 514 0
2018-10-11 08:09:53 GMT 40.613522 20.442684 35,000 162 514 0
2018-10-11 08:09:43 GMT 40.659515 20.423334 35,000 162 514 0
2018-10-11 08:09:33 GMT 40.670830 20.418591 35,000 162 514 0
2018-10-11 08:09:23 GMT 40.682373 20.413721 35,000 162 514 0
2018-10-11 08:09:18 GMT 40.693268 20.409164 35,000 162 513 0
2018-10-11 08:09:12 GMT 40.706726 20.403503 35,000 162 513 0
2018-10-11 08:09:02 GMT 40.729111 20.394043 35,000 162 513 0
2018-10-11 08:08:50 GMT 40.756210 20.382568 35,000 162 513 0
2018-10-11 08:08:41 GMT 40.776306 20.374023 35,000 162 512 0
2018-10-11 08:08:31 GMT 40.799377 20.364258 35,000 162 512 0
2018-10-11 08:08:26 GMT 40.812347 20.358789 35,000 162 513 0
2018-10-11 08:08:16 GMT 40.834167 20.349548 35,000 162 513 0
2018-10-11 08:08:10 GMT 40.846573 20.344299 35,000 162 513 0
2018-10-11 08:08:00 GMT 40.870743 20.334106 35,000 162 513 0
2018-10-11 08:07:54 GMT 40.883526 20.328703 35,000 162 512 0
2018-10-11 08:07:49 GMT 40.894138 20.324207 35,000 162 512 0
2018-10-11 08:07:44 GMT 40.907219 20.318651 35,000 162 512 0
2018-10-11 08:07:39 GMT 40.917835 20.314157 35,000 162 512 0
2018-10-11 08:07:33 GMT 40.931488 20.308350 35,000 162 512 0
2018-10-11 08:07:28 GMT 40.942749 20.303589 35,000 162 512 0
2018-10-11 08:07:19 GMT 40.963177 20.294868 35,000 162 512 0
2018-10-11 08:07:12 GMT 40.979050 20.288086 35,000 162 512 0
2018-10-11 08:07:08 GMT 40.987885 20.284363 35,000 162 512 0
2018-10-11 08:07:01 GMT 41.002533 20.278076 35,000 162 512 0
2018-10-11 08:06:58 GMT 41.010754 20.274582 35,000 162 512 0
2018-10-11 08:06:50 GMT 41.027699 20.267342 35,000 162 512 0
2018-10-11 08:06:47 GMT 41.034576 20.264404 35,000 162 512 0
2018-10-11 08:06:44 GMT 41.041306 20.261536 35,000 162 512 0
2018-10-11 08:06:40 GMT 41.050228 20.257729 35,000 162 512 0
2018-10-11 08:06:37 GMT 41.056561 20.255045 35,000 162 512 0
2018-10-11 08:06:32 GMT 41.068405 20.250000 35,000 162 512 0
2018-10-11 08:06:27 GMT 41.079666 20.245178 35,000 162 512 0
2018-10-11 08:06:22 GMT 41.091385 20.240173 35,000 162 512 0
2018-10-11 08:06:17 GMT 41.102135 20.235630 35,000 162 512 0
2018-10-11 08:06:10 GMT 41.118484 20.228638 35,000 162 512 0
2018-10-11 08:06:06 GMT 41.127132 20.224957 35,000 162 511 0
2018-10-11 08:06:01 GMT 41.138634 20.220087 35,000 162 511 0
2018-10-11 08:05:55 GMT 41.151581 20.214539 35,000 162 511 0
2018-10-11 08:05:50 GMT 41.162659 20.209778 35,000 162 511 0
2018-10-11 08:05:46 GMT 41.171776 20.205917 35,000 162 511 0
2018-10-11 08:05:40 GMT 41.186161 20.199738 35,000 162 511 0
2018-10-11 08:05:36 GMT 41.195526 20.195740 35,000 162 511 0
2018-10-11 08:05:29 GMT 41.209717 20.189636 35,000 162 511 0
2018-10-11 08:05:25 GMT 41.218796 20.185755 35,000 162 511 0
2018-10-11 08:05:18 GMT 41.234577 20.179012 35,000 162 511 0
2018-10-11 08:05:14 GMT 41.243328 20.175205 35,000 162 511 0
2018-10-11 08:05:02 GMT 41.272476 20.162659 35,000 162 511 0
2018-10-11 08:04:58 GMT 41.281494 20.158813 35,000 162 511 0
2018-10-11 08:04:55 GMT 41.288223 20.155945 35,000 162 511 0
2018-10-11 08:04:48 GMT 41.302185 20.149902 35,000 162 511 0
2018-10-11 08:04:44 GMT 41.312073 20.145691 35,000 162 511 0
2018-10-11 08:04:41 GMT 41.321209 20.141747 35,000 161 511 0
2018-10-11 08:04:37 GMT 41.328148 20.138750 35,000 161 511 0
2018-10-11 08:04:34 GMT 41.335007 20.135803 35,000 161 511 0
2018-10-11 08:04:29 GMT 41.345581 20.131287 35,000 161 511 0
2018-10-11 08:04:25 GMT 41.355145 20.127140 35,000 161 511 0
2018-10-11 08:04:22 GMT 41.368645 20.121334 35,000 161 511 0
2018-10-11 08:04:19 GMT 41.368645 20.121334 35,000 161 511 0
2018-10-11 08:04:15 GMT 41.378098 20.117277 35,000 161 511 0
2018-10-11 08:04:11 GMT 41.386734 20.113531 35,000 161 511 0
2018-10-11 08:04:08 GMT 41.393364 20.110664 35,000 161 511 0
2018-10-11 08:04:03 GMT 41.405048 20.105619 35,000 161 511 0
2018-10-11 08:03:58 GMT 41.415985 20.100924 35,000 162 511 0
2018-10-11 08:03:55 GMT 41.422600 20.098082 35,000 162 511 0
2018-10-11 08:03:52 GMT 41.429585 20.095016 35,000 162 511 0
2018-10-11 08:03:48 GMT 41.437263 20.091759 35,000 162 511 0
2018-10-11 08:03:41 GMT 41.453651 20.084669 35,000 162 511 0
2018-10-11 08:03:38 GMT 41.460632 20.081667 35,000 162 511 0
2018-10-11 08:03:31 GMT 41.484234 20.071447 35,000 161 511 0
2018-10-11 08:03:27 GMT 41.484234 20.071447 35,000 161 511 0
2018-10-11 08:03:23 GMT 41.493576 20.067465 35,000 161 511 0
2018-10-11 08:03:20 GMT 41.500763 20.064344 35,000 161 511 0
2018-10-11 08:03:16 GMT 41.509651 20.060459 35,000 161 511 0
2018-10-11 08:03:13 GMT 41.518524 20.056665 35,000 161 511 0
2018-10-11 08:03:09 GMT 41.527622 20.052732 35,000 161 511 0
2018-10-11 08:03:05 GMT 41.534138 20.049921 35,000 161 511 0
2018-10-11 08:03:01 GMT 41.543308 20.045897 35,000 161 511 0
2018-10-11 08:02:58 GMT 41.550156 20.042933 35,000 161 511 0
2018-10-11 08:02:55 GMT 41.556931 20.039999 35,000 161 511 0
2018-10-11 08:02:52 GMT 41.565674 20.036192 35,000 161 510 0
2018-10-11 08:02:48 GMT 41.572174 20.033382 35,000 161 510 0
2018-10-11 08:02:45 GMT 41.579132 20.030386 35,000 161 510 0
2018-10-11 08:02:38 GMT 41.596619 20.022770 35,000 161 510 0
2018-10-11 08:02:34 GMT 41.602890 20.020086 35,000 161 510 0
2018-10-11 08:02:31 GMT 41.618912 20.013065 35,000 161 510 0
2018-10-11 08:02:23 GMT 41.627663 20.009296 35,000 161 510 0
2018-10-11 08:02:20 GMT 41.636414 20.005465 35,000 161 510 0
2018-10-11 08:02:17 GMT 41.650333 19.999460 35,000 161 510 0
2018-10-11 08:02:13 GMT 41.650333 19.999460 35,000 161 510 0
2018-10-11 08:02:10 GMT 41.659504 19.995438 35,000 161 510 0
2018-10-11 08:02:05 GMT 41.668674 19.991476 35,000 161 510 0
2018-10-11 08:02:02 GMT 41.674961 19.988729 35,000 161 510 0
2018-10-11 08:01:57 GMT 41.688831 19.982662 35,000 161 510 0
2018-10-11 08:01:54 GMT 41.693207 19.980761 35,000 161 510 0
2018-10-11 08:01:51 GMT 41.699478 19.978077 35,000 161 510 0
2018-10-11 08:01:48 GMT 41.706207 19.975142 35,000 161 509 0
2018-10-11 08:01:45 GMT 41.713165 19.972082 35,000 161 509 0
2018-10-11 08:01:41 GMT 41.722092 19.968212 35,000 161 509 0
2018-10-11 08:01:38 GMT 41.730377 19.964594 35,000 161 509 0
2018-10-11 08:01:31 GMT 41.746033 19.957788 35,000 161 508 0
2018-10-11 08:01:26 GMT 41.757774 19.952705 35,000 161 508 0
2018-10-11 08:01:23 GMT 41.762711 19.950533 35,000 161 508 0
2018-10-11 08:01:18 GMT 41.776302 19.944593 35,000 161 508 0
2018-10-11 08:01:14 GMT 41.783569 19.941372 35,000 161 507 0
2018-10-11 08:01:10 GMT 41.792831 19.937311 35,000 161 507 0
2018-10-11 08:01:06 GMT 41.801605 19.933506 35,000 161 507 0
2018-10-11 08:01:03 GMT 41.807190 19.931072 35,000 161 507 0
2018-10-11 08:00:57 GMT 41.823669 19.923832 35,000 161 506 0
2018-10-11 08:00:52 GMT 41.831795 19.920258 35,000 161 507 0
2018-10-11 08:00:46 GMT 41.846146 19.913967 35,000 161 506 0
2018-10-11 08:00:43 GMT 41.852741 19.911123 35,000 161 506 0
2018-10-11 08:00:38 GMT 41.863724 19.906290 35,000 161 506 0
2018-10-11 08:00:33 GMT 41.875416 19.901159 35,000 161 505 0
2018-10-11 08:00:27 GMT 41.888309 19.895473 35,000 161 505 0
2018-10-11 08:00:22 GMT 41.898735 19.890940 35,000 161 505 0
2018-10-11 08:00:16 GMT 41.921593 19.880911 35,000 161 505 0
2018-10-11 08:00:12 GMT 41.921593 19.880911 35,000 161 505 0
2018-10-11 08:00:04 GMT 41.945663 19.870274 35,000 161 504 0
2018-10-11 08:00:01 GMT 41.945663 19.870274 35,000 161 504 0
2018-10-11 07:59:55 GMT 41.957718 19.864943 35,000 161 504 0
2018-10-11 07:59:51 GMT 41.967449 19.860662 35,000 161 504 0
2018-10-11 07:59:44 GMT 41.982193 19.854168 35,000 161 504 0
2018-10-11 07:59:41 GMT 41.989700 19.850859 35,000 161 504 0
2018-10-11 07:59:33 GMT 42.007530 19.842970 35,000 161 504 0
2018-10-11 07:59:29 GMT 42.015720 19.839329 35,000 161 503 0
2018-10-11 07:59:23 GMT 42.028992 19.833452 35,000 161 503 0
2018-10-11 07:59:20 GMT 42.036064 19.830322 35,000 161 503 0
2018-10-11 07:59:11 GMT 42.056873 19.821188 35,000 161 503 0
2018-10-11 07:59:00 GMT 42.079742 19.811096 35,000 161 502 0
2018-10-11 07:58:51 GMT 42.099518 19.802408 35,000 161 502 0
2018-10-11 07:58:48 GMT 42.105942 19.799599 35,000 161 502 0
2018-10-11 07:58:39 GMT 42.126053 19.790720 35,000 161 503 0
2018-10-11 07:58:33 GMT 42.143417 19.783070 35,000 161 503 0
2018-10-11 07:58:29 GMT 42.150238 19.780071 35,000 161 503 0
2018-10-11 07:58:19 GMT 42.171345 19.770727 35,000 161 503 0
2018-10-11 07:58:07 GMT 42.198067 19.758974 35,000 161 502 0
2018-10-11 07:57:58 GMT 42.217945 19.750223 35,000 161 502 0
2018-10-11 07:57:48 GMT 42.240475 19.740389 35,000 162 502 0
2018-10-11 07:57:38 GMT 42.264862 19.729696 35,000 161 501 0
2018-10-11 07:57:27 GMT 42.286743 19.720209 35,000 162 501 0
2018-10-11 07:57:16 GMT 42.310364 19.709972 35,000 162 500 0
2018-10-11 07:57:05 GMT 42.334625 19.699423 35,000 162 501 0
2018-10-11 07:56:54 GMT 42.357559 19.689499 35,000 162 501 0
2018-10-11 07:56:43 GMT 42.382874 19.678450 35,000 161 500 0
2018-10-11 07:56:33 GMT 42.403919 19.669231 35,000 161 500 0
2018-10-11 07:56:26 GMT 42.420170 19.661949 35,000 160 500 0
2018-10-11 07:56:23 GMT 42.427505 19.658598 35,000 161 500 0
2018-10-11 07:56:12 GMT 42.450287 19.647835 35,000 159 501 0
2018-10-11 07:56:04 GMT 42.467278 19.638828 35,000 157 500 0
2018-10-11 07:56:01 GMT 42.473969 19.635002 35,000 156 500 0
2018-10-11 07:55:51 GMT 42.495770 19.621710 35,000 154 500 0
2018-10-11 07:55:40 GMT 42.517914 19.606602 35,000 151 499 0
2018-10-11 07:55:34 GMT 42.529613 19.598076 35,000 150 499 0
2018-10-11 07:55:30 GMT 42.539295 19.590796 35,000 149 499 0
2018-10-11 07:55:24 GMT 42.550606 19.581724 35,000 147 500 0
2018-10-11 07:55:19 GMT 42.559731 19.573805 35,000 145 500 0
2018-10-11 07:55:12 GMT 42.574024 19.560007 35,000 141 499 0
2018-10-11 07:55:09 GMT 42.578659 19.555101 35,000 141 499 0
2018-10-11 07:55:06 GMT 42.585892 19.547298 35,000 141 499 0
2018-10-11 07:55:02 GMT 42.590641 19.542124 35,000 141 499 0
2018-10-11 07:54:58 GMT 42.598370 19.533628 35,000 141 499 0
2018-10-11 07:54:52 GMT 42.609356 19.521683 35,000 141 499 0
2018-10-11 07:54:48 GMT 42.617157 19.513092 35,000 141 499 0
2018-10-11 07:54:41 GMT 42.629654 19.499454 35,000 141 499 0
2018-10-11 07:54:37 GMT 42.637009 19.491343 35,000 141 499 0
2018-10-11 07:54:31 GMT 42.647552 19.479883 35,000 141 499 0
2018-10-11 07:54:26 GMT 42.655792 19.470833 35,000 141 499 0
2018-10-11 07:54:20 GMT 42.667221 19.458321 35,000 140 499 0
2018-10-11 07:54:16 GMT 42.673458 19.451422 35,000 140 499 0
2018-10-11 07:54:10 GMT 42.685410 19.438311 35,000 141 499 0
2018-10-11 07:54:06 GMT 42.692497 19.430534 35,000 141 499 0
2018-10-11 07:54:00 GMT 42.702621 19.419395 35,000 140 498 0
2018-10-11 07:53:55 GMT 42.711632 19.409456 35,000 140 498 0
2018-10-11 07:53:49 GMT 42.721500 19.398663 35,000 140 497 0
2018-10-11 07:53:45 GMT 42.730133 19.389120 35,000 140 497 0
2018-10-11 07:53:39 GMT 42.740215 19.377968 35,000 140 497 0
2018-10-11 07:53:34 GMT 42.748592 19.368706 35,000 140 497 0
2018-10-11 07:53:29 GMT 42.758148 19.358221 35,000 140 497 0
2018-10-11 07:53:24 GMT 42.767120 19.348265 35,000 140 496 0
2018-10-11 07:53:18 GMT 42.776825 19.337498 35,000 140 496 0
2018-10-11 07:53:12 GMT 42.788406 19.324764 35,000 140 496 0
2018-10-11 07:53:08 GMT 42.794727 19.317734 35,000 140 496 0
2018-10-11 07:53:02 GMT 42.805664 19.305662 35,000 140 496 0
2018-10-11 07:52:58 GMT 42.813675 19.296783 35,000 140 496 0
2018-10-11 07:52:52 GMT 42.824020 19.285349 35,000 140 496 0
2018-10-11 07:52:48 GMT 42.831665 19.276918 35,000 140 496 0
2018-10-11 07:52:41 GMT 42.842697 19.264654 35,000 140 496 0
2018-10-11 07:52:37 GMT 42.850079 19.256483 35,000 140 496 0
2018-10-11 07:52:31 GMT 42.861374 19.243959 35,000 140 496 0
2018-10-11 07:52:27 GMT 42.868607 19.236013 35,000 140 496 0
2018-10-11 07:52:20 GMT 42.880337 19.223001 35,000 140 496 0
2018-10-11 07:52:16 GMT 42.887558 19.215025 35,000 140 496 0
2018-10-11 07:52:10 GMT 42.898773 19.202633 35,000 140 496 0
2018-10-11 07:52:05 GMT 42.906738 19.193754 35,000 140 496 0
2018-10-11 07:51:59 GMT 42.918930 19.180231 35,000 140 495 0
2018-10-11 07:51:55 GMT 42.925049 19.173443 35,000 140 495 0
2018-10-11 07:51:49 GMT 42.936630 19.160667 35,000 140 495 0
2018-10-11 07:51:45 GMT 42.942902 19.153618 35,000 140 495 0
2018-10-11 07:51:38 GMT 42.954823 19.140408 35,000 140 496 0
2018-10-11 07:51:35 GMT 42.961441 19.133011 35,000 140 496 0
2018-10-11 07:51:28 GMT 42.973068 19.120134 35,000 140 495 0
2018-10-11 07:51:24 GMT 42.979446 19.113007 35,000 140 495 0
2018-10-11 07:51:17 GMT 42.993412 19.097378 35,000 140 495 0
2018-10-11 07:51:14 GMT 42.998020 19.092276 35,000 140 495 0
2018-10-11 07:51:07 GMT 43.010963 19.077824 35,000 140 493 0
2018-10-11 07:51:04 GMT 43.016411 19.071741 35,000 140 493 0
2018-10-11 07:50:57 GMT 43.028549 19.058212 35,000 140 493 0
2018-10-11 07:50:53 GMT 43.034470 19.051601 35,000 140 493 0
2018-10-11 07:50:46 GMT 43.048065 19.036364 35,000 140 493 0
2018-10-11 07:50:43 GMT 43.052536 19.031385 35,000 140 493 0
2018-10-11 07:50:33 GMT 43.076649 19.004387 35,000 140 493 0
2018-10-11 07:50:23 GMT 43.088799 18.990784 35,000 140 493 0
2018-10-11 07:50:14 GMT 43.103851 18.973965 35,000 140 493 0
2018-10-11 07:50:11 GMT 43.108349 18.968876 35,000 140 493 0
2018-10-11 07:50:06 GMT 43.118134 18.957932 35,000 140 493 0
2018-10-11 07:50:02 GMT 43.125000 18.950266 35,000 140 493 0
2018-10-11 07:49:56 GMT 43.135445 18.938534 35,000 140 492 0
2018-10-11 07:49:51 GMT 43.152603 18.919287 35,000 140 491 0
2018-10-11 07:49:46 GMT 43.152603 18.919287 35,000 140 491 0
2018-10-11 07:49:41 GMT 43.161327 18.909563 35,000 140 491 0
2018-10-11 07:49:36 GMT 43.170452 18.899296 35,000 140 491 0
2018-10-11 07:49:31 GMT 43.179520 18.889202 35,000 140 491 0
2018-10-11 07:49:24 GMT 43.191166 18.876146 35,000 140 491 0
2018-10-11 07:49:20 GMT 43.198383 18.868103 35,000 140 491 0
2018-10-11 07:49:14 GMT 43.209183 18.855988 35,000 140 490 0
2018-10-11 07:49:10 GMT 43.230083 18.832527 35,000 137 489 0
2018-10-11 07:49:02 GMT 43.230083 18.832527 35,000 140 490 0
2018-10-11 07:48:59 GMT 43.235275 18.826735 35,000 140 489 0
2018-10-11 07:48:49 GMT 43.252476 18.807350 35,000 140 489 0
2018-10-11 07:48:38 GMT 43.272541 18.784594 35,000 140 489 0
2018-10-11 07:48:31 GMT 43.284622 18.770908 35,000 140 489 0
2018-10-11 07:48:28 GMT 43.289951 18.764845 35,000 140 488 0
2018-10-11 07:48:20 GMT 43.304535 18.748425 35,000 140 489 0
2018-10-11 07:48:17 GMT 43.308838 18.743443 35,000 139 489 0
2018-10-11 07:48:09 GMT 43.323257 18.726517 35,000 138 489 0
2018-10-11 07:47:58 GMT 43.341763 18.703569 35,000 136 488 0
2018-10-11 07:47:52 GMT 43.350609 18.692125 35,000 136 488 0
2018-10-11 07:47:48 GMT 43.357773 18.682507 35,000 134 488 0
2018-10-11 07:47:42 GMT 43.366158 18.671003 35,000 134 488 0
2018-10-11 07:47:37 GMT 43.374527 18.659128 35,000 133 488 0
2018-10-11 07:47:30 GMT 43.387115 18.640541 35,000 132 487 0
2018-10-11 07:47:27 GMT 43.390224 18.635885 35,000 132 487 0
2018-10-11 07:47:23 GMT 43.396603 18.626272 35,000 132 487 0
2018-10-11 07:47:15 GMT 43.407539 18.609859 35,000 132 487 0
2018-10-11 07:47:12 GMT 43.412888 18.601770 35,000 132 487 0
2018-10-11 07:47:06 GMT 43.422207 18.587690 35,000 132 486 0
2018-10-11 07:47:01 GMT 43.428772 18.577753 35,000 132 486 0
2018-10-11 07:46:55 GMT 43.438156 18.563574 35,000 132 486 0
2018-10-11 07:46:51 GMT 43.443924 18.554886 35,000 132 486 0
2018-10-11 07:46:45 GMT 43.453857 18.539812 35,000 132 485 0
2018-10-11 07:46:41 GMT 43.460285 18.530144 35,000 132 485 0
2018-10-11 07:46:34 GMT 43.469971 18.515348 35,000 131 482 0
2018-10-11 07:46:30 GMT 43.476254 18.505880 35,000 132 485 0
2018-10-11 07:46:24 GMT 43.485748 18.491493 35,000 132 485 0
2018-10-11 07:46:19 GMT 43.493382 18.479855 35,000 132 485 0
2018-10-11 07:46:13 GMT 43.502136 18.466579 35,000 132 485 0
2018-10-11 07:46:10 GMT 43.506683 18.459585 35,000 132 485 0
2018-10-11 07:46:03 GMT 43.516521 18.444672 35,000 132 485 0
2018-10-11 07:45:59 GMT 43.522339 18.435825 35,000 132 484 0
2018-10-11 07:45:53 GMT 43.531555 18.421783 35,000 132 484 0
2018-10-11 07:45:48 GMT 43.539051 18.410404 35,000 132 484 0
2018-10-11 07:45:43 GMT 43.547012 18.398308 35,000 132 484 0
2018-10-11 07:45:37 GMT 43.556992 18.383129 35,000 132 484 0
2018-10-11 07:45:32 GMT 43.562931 18.374111 35,000 132 483 0
2018-10-11 07:45:28 GMT 43.569820 18.363647 35,000 132 483 0
2018-10-11 07:45:22 GMT 43.578140 18.350937 35,000 132 483 0
2018-10-11 07:45:18 GMT 43.584999 18.340563 35,000 132 483 0
2018-10-11 07:45:12 GMT 43.593887 18.326984 35,000 132 483 0
2018-10-11 07:45:07 GMT 43.601433 18.315451 35,000 132 483 0
2018-10-11 07:45:00 GMT 43.611374 18.300283 35,000 132 483 0
2018-10-11 07:44:56 GMT 43.617966 18.290192 35,000 131 482 0
2018-10-11 07:44:51 GMT 43.624615 18.280006 35,000 131 482 0
2018-10-11 07:44:46 GMT 43.632294 18.268284 35,000 131 482 0
2018-10-11 07:44:41 GMT 43.643372 18.251356 35,000 131 482 0
2018-10-11 07:44:35 GMT 43.648682 18.243256 35,000 131 482 0
2018-10-11 07:44:31 GMT 43.665394 18.217621 35,000 131 482 0
2018-10-11 07:44:24 GMT 43.665394 18.217621 35,000 131 482 0
2018-10-11 07:44:20 GMT 43.671677 18.208008 35,000 132 483 0
2018-10-11 07:44:17 GMT 43.675644 18.201982 35,000 132 483 0
2018-10-11 07:44:14 GMT 43.680450 18.194637 35,000 132 483 0
2018-10-11 07:44:09 GMT 43.688965 18.181606 35,000 131 483 0
2018-10-11 07:44:03 GMT 43.696701 18.169725 35,000 131 483 0
2018-10-11 07:43:56 GMT 43.707001 18.153885 35,000 131 482 0
2018-10-11 07:43:52 GMT 43.712952 18.144751 35,000 131 482 0
2018-10-11 07:43:48 GMT 43.718948 18.135553 35,000 131 482 0
2018-10-11 07:43:44 GMT 43.724979 18.126329 35,000 131 482 0
2018-10-11 07:43:39 GMT 43.733780 18.112793 35,000 131 482 0
2018-10-11 07:43:35 GMT 43.739738 18.103638 35,000 131 482 0
2018-10-11 07:43:31 GMT 43.744125 18.096910 35,000 131 482 0
2018-10-11 07:43:25 GMT 43.753471 18.082581 35,000 131 482 0
2018-10-11 07:43:19 GMT 43.761566 18.070084 35,000 131 482 0
2018-10-11 07:43:15 GMT 43.769165 18.058393 35,000 131 482 0
2018-10-11 07:43:10 GMT 43.775166 18.049097 35,000 131 482 0
2018-10-11 07:43:04 GMT 43.784637 18.034506 35,000 131 482 0
2018-10-11 07:42:59 GMT 43.791321 18.024157 35,000 131 482 0
2018-10-11 07:42:56 GMT 43.795807 18.017260 35,000 131 482 0
2018-10-11 07:42:53 GMT 43.801437 18.008509 35,000 131 482 0
2018-10-11 07:42:49 GMT 43.806587 18.000574 35,000 131 482 0
2018-10-11 07:42:42 GMT 43.818558 17.982128 35,000 131 482 0
2018-10-11 07:42:38 GMT 43.823719 17.974155 35,000 131 482 0
2018-10-11 07:42:35 GMT 43.827164 17.968924 35,000 131 482 0
2018-10-11 07:42:31 GMT 43.833076 17.959703 35,000 131 482 0
2018-10-11 07:42:28 GMT 43.837784 17.952492 35,000 131 482 0
2018-10-11 07:42:24 GMT 43.843460 17.943741 35,000 131 482 0
2018-10-11 07:42:20 GMT 43.852203 17.930199 35,000 131 482 0
2018-10-11 07:42:16 GMT 43.856689 17.923300 35,000 131 482 0
2018-10-11 07:42:12 GMT 43.862915 17.913654 35,000 131 482 0
2018-10-11 07:42:07 GMT 43.869247 17.903856 35,000 131 482 0
2018-10-11 07:42:01 GMT 43.878464 17.889601 35,000 131 482 0
2018-10-11 07:41:56 GMT 43.890659 17.870768 35,000 131 482 0
2018-10-11 07:41:53 GMT 43.898064 17.859257 35,000 131 482 0
2018-10-11 07:41:49 GMT 43.902603 17.852207 35,000 131 482 0
2018-10-11 07:41:45 GMT 43.902603 17.852207 35,000 131 482 0
2018-10-11 07:41:38 GMT 43.912949 17.836111 35,000 131 482 0
2018-10-11 07:41:35 GMT 43.917473 17.829044 35,000 131 482 0
2018-10-11 07:41:29 GMT 43.926178 17.815609 35,000 131 482 0
2018-10-11 07:41:24 GMT 43.933487 17.804195 35,000 131 482 0
2018-10-11 07:41:17 GMT 43.948151 17.781437 35,000 131 482 0
2018-10-11 07:41:14 GMT 43.948151 17.781437 35,000 131 482 0
2018-10-11 07:41:07 GMT 43.958393 17.765547 35,000 131 482 0
2018-10-11 07:41:03 GMT 43.964443 17.756063 35,000 131 482 0
2018-10-11 07:40:58 GMT 43.972092 17.744198 35,000 131 481 0
2018-10-11 07:40:51 GMT 43.981949 17.728861 35,000 131 481 0
2018-10-11 07:40:45 GMT 43.990376 17.715780 35,000 131 481 0
2018-10-11 07:40:42 GMT 43.995682 17.707476 35,000 131 481 0
2018-10-11 07:40:38 GMT 44.002716 17.696484 35,000 131 481 0
2018-10-11 07:40:31 GMT 44.011871 17.682177 35,000 131 482 0
2018-10-11 07:40:26 GMT 44.018307 17.672163 35,000 131 482 0
2018-10-11 07:40:23 GMT 44.025055 17.661608 35,000 131 482 0
2018-10-11 07:40:20 GMT 44.027336 17.658037 35,000 131 482 0
2018-10-11 07:40:16 GMT 44.033714 17.648096 35,000 131 482 0
2018-10-11 07:40:12 GMT 44.039429 17.639189 35,000 131 482 0
2018-10-11 07:40:09 GMT 44.043957 17.632141 35,000 131 482 0
2018-10-11 07:40:06 GMT 44.054672 17.615364 35,000 131 483 0
2018-10-11 07:40:03 GMT 44.054672 17.615364 35,000 131 483 0
2018-10-11 07:39:58 GMT 44.060204 17.606703 35,000 131 483 0
2018-10-11 07:39:55 GMT 44.064068 17.600685 35,000 131 483 0
2018-10-11 07:39:51 GMT 44.070236 17.591028 35,000 131 483 0
2018-10-11 07:39:44 GMT 44.080719 17.574612 35,000 131 483 0
2018-10-11 07:39:41 GMT 44.085110 17.567726 35,000 131 482 0
2018-10-11 07:39:38 GMT 44.090416 17.559357 35,000 131 482 0
2018-10-11 07:39:32 GMT 44.099991 17.544462 35,000 131 482 0
2018-10-11 07:39:26 GMT 44.107544 17.532583 35,000 131 483 0
2018-10-11 07:39:23 GMT 44.111984 17.525684 35,000 131 483 0
2018-10-11 07:39:20 GMT 44.116158 17.519073 35,000 131 483 0
2018-10-11 07:39:16 GMT 44.121933 17.509983 35,000 131 483 0
2018-10-11 07:39:13 GMT 44.126541 17.502790 35,000 131 483 0
2018-10-11 07:39:10 GMT 44.131027 17.495728 35,000 131 483 0
2018-10-11 07:39:06 GMT 44.137527 17.485508 35,000 131 483 0
2018-10-11 07:39:03 GMT 44.142288 17.478033 35,000 131 483 0
2018-10-11 07:39:00 GMT 44.146683 17.471071 35,000 131 483 0
2018-10-11 07:38:54 GMT 44.156433 17.455742 35,000 131 483 0
2018-10-11 07:38:51 GMT 44.161331 17.448078 35,000 131 483 0
2018-10-11 07:38:45 GMT 44.168976 17.436005 35,000 131 482 0
2018-10-11 07:38:40 GMT 44.186920 17.407705 35,000 131 483 0
2018-10-11 07:38:32 GMT 44.191200 17.400970 35,000 131 482 0
2018-10-11 07:38:29 GMT 44.191200 17.400970 35,000 131 482 0
2018-10-11 07:38:21 GMT 44.203911 17.380907 35,000 131 483 0
2018-10-11 07:38:18 GMT 44.208939 17.373001 35,000 131 483 0
2018-10-11 07:38:11 GMT 44.220062 17.355455 35,000 131 483 0
2018-10-11 07:38:06 GMT 44.226288 17.345646 35,000 131 483 0
2018-10-11 07:37:59 GMT 44.236588 17.329363 35,000 131 483 0
2018-10-11 07:37:48 GMT 44.252186 17.304741 35,000 131 484 0
2018-10-11 07:37:38 GMT 44.266850 17.281561 35,000 131 485 0
2018-10-11 07:37:35 GMT 44.273392 17.271162 35,000 131 484 0
2018-10-11 07:37:28 GMT 44.282272 17.257101 35,000 131 484 0
2018-10-11 07:37:17 GMT 44.297791 17.232513 35,000 131 484 0
2018-10-11 07:37:07 GMT 44.313766 17.207140 35,000 131 485 0
2018-10-11 07:36:56 GMT 44.329605 17.182030 35,000 131 486 0
2018-10-11 07:36:51 GMT 44.338806 17.167446 35,000 131 486 0
2018-10-11 07:36:45 GMT 44.345490 17.156853 35,000 131 486 0
2018-10-11 07:36:39 GMT 44.355698 17.140635 35,000 131 488 0
2018-10-11 07:36:35 GMT 44.360916 17.132330 35,000 131 488 0
2018-10-11 07:36:27 GMT 44.372360 17.114149 35,000 131 488 0
2018-10-11 07:36:24 GMT 44.376846 17.107086 35,000 131 488 0
2018-10-11 07:36:21 GMT 44.381149 17.100155 35,000 131 490 0
2018-10-11 07:36:16 GMT 44.388817 17.087961 35,000 131 491 0
2018-10-11 07:36:13 GMT 44.392540 17.081999 35,000 131 490 0
2018-10-11 07:36:05 GMT 44.405045 17.062160 35,000 131 495 0
2018-10-11 07:36:02 GMT 44.410324 17.053661 35,000 131 492 0
2018-10-11 07:35:52 GMT 44.431870 17.019325 35,000 131 495 0
2018-10-11 07:35:44 GMT 44.437408 17.010433 35,000 131 495 0
2018-10-11 07:35:41 GMT 44.452358 16.986471 35,000 131 495 0
2018-10-11 07:35:34 GMT 44.452358 16.986471 35,000 131 496 0
2018-10-11 07:35:29 GMT 44.458603 16.976427 35,000 131 496 0
2018-10-11 07:35:23 GMT 44.468327 16.960880 35,000 131 496 0
2018-10-11 07:35:19 GMT 44.473633 16.952440 35,000 131 496 0
2018-10-11 07:35:12 GMT 44.484898 16.934353 35,000 131 496 0
2018-10-11 07:35:09 GMT 44.488770 16.928165 35,000 131 496 0
2018-10-11 07:35:04 GMT 44.497562 16.914055 35,000 131 496 0
2018-10-11 07:34:59 GMT 44.505020 16.902073 35,000 131 496 0
2018-10-11 07:34:54 GMT 44.512711 16.889713 35,000 131 496 0
2018-10-11 07:34:51 GMT 44.515949 16.884514 35,000 131 496 0
2018-10-11 07:34:47 GMT 44.524155 16.871338 35,000 131 496 0
2018-10-11 07:34:41 GMT 44.533356 16.856560 35,000 131 496 0
2018-10-11 07:34:38 GMT 44.536514 16.851458 35,000 131 496 0
2018-10-11 07:34:30 GMT 44.548351 16.832460 35,000 131 496 0
2018-10-11 07:34:27 GMT 44.554276 16.822880 35,000 131 496 0
2018-10-11 07:34:21 GMT 44.563660 16.807840 35,000 131 496 0
2018-10-11 07:34:16 GMT 44.571030 16.795938 35,000 131 497 0
2018-10-11 07:34:08 GMT 44.581078 16.779806 35,000 131 498 0
2018-10-11 07:34:05 GMT 44.586411 16.771152 35,000 131 498 0
2018-10-11 07:33:56 GMT 44.599930 16.749393 35,000 130 497 0
2018-10-11 07:33:50 GMT 44.609940 16.733290 35,000 130 497 0
2018-10-11 07:33:45 GMT 44.615982 16.723545 35,000 130 497 0
2018-10-11 07:33:38 GMT 44.626099 16.707197 35,000 130 498 0
2018-10-11 07:33:35 GMT 44.642570 16.680529 35,000 130 498 0
2018-10-11 07:33:27 GMT 44.642570 16.680529 35,000 130 498 0
2018-10-11 07:33:23 GMT 44.648392 16.671099 35,000 130 499 0
2018-10-11 07:33:20 GMT 44.653606 16.662708 35,000 130 499 0
2018-10-11 07:33:16 GMT 44.661804 16.649387 35,000 130 499 0
2018-10-11 07:33:13 GMT 44.664173 16.645626 35,000 130 499 0
2018-10-11 07:33:09 GMT 44.669952 16.636177 35,000 130 499 0
2018-10-11 07:33:06 GMT 44.675346 16.627541 35,000 130 499 0
2018-10-11 07:33:02 GMT 44.680664 16.618849 35,000 130 499 64
2018-10-11 07:32:56 GMT 44.691101 16.601976 35,000 130 499 0
2018-10-11 07:32:51 GMT 44.696960 16.592428 35,000 130 499 0
2018-10-11 07:32:46 GMT 44.712120 16.567852 35,000 130 498 0
2018-10-11 07:32:41 GMT 44.712120 16.567852 35,000 130 498 0
2018-10-11 07:32:35 GMT 44.721542 16.552538 35,000 130 498 0
2018-10-11 07:32:30 GMT 44.729233 16.540113 35,000 130 498 0
2018-10-11 07:32:25 GMT 44.738571 16.524942 35,000 130 498 0
2018-10-11 07:32:22 GMT 44.741032 16.520891 35,000 130 498 0
2018-10-11 07:32:19 GMT 44.745621 16.513432 35,000 130 498 0
2018-10-11 07:32:15 GMT 44.752342 16.502537 35,000 130 499 0
2018-10-11 07:32:12 GMT 44.756393 16.495905 35,000 130 500 0
2018-10-11 07:32:09 GMT 44.760223 16.489695 35,000 130 499 0
2018-10-11 07:32:04 GMT 44.768265 16.476545 35,000 130 499 0
2018-10-11 07:32:01 GMT 44.772125 16.470337 35,000 130 499 0
2018-10-11 07:31:58 GMT 44.776875 16.462610 35,000 130 499 0
2018-10-11 07:31:51 GMT 44.788513 16.443720 35,000 130 500 0
2018-10-11 07:31:48 GMT 44.791763 16.438423 35,000 130 500 0
2018-10-11 07:31:43 GMT 44.799965 16.425030 35,000 130 500 0
2018-10-11 07:31:38 GMT 44.807877 16.412069 35,000 130 500 0
2018-10-11 07:31:33 GMT 44.815613 16.399513 35,000 130 501 0
2018-10-11 07:31:29 GMT 44.821098 16.390530 35,000 130 501 0
2018-10-11 07:31:26 GMT 44.826782 16.381334 35,000 130 500 0
2018-10-11 07:31:23 GMT 44.831528 16.373514 35,000 130 500 0
2018-10-11 07:31:19 GMT 44.837769 16.363285 35,000 130 500 0
2018-10-11 07:31:16 GMT 44.847107 16.347982 35,000 130 500 0
2018-10-11 07:31:12 GMT 44.847107 16.347982 35,000 130 500 0
2018-10-11 07:31:05 GMT 44.856804 16.332048 35,000 130 499 0
2018-10-11 07:31:01 GMT 44.863415 16.321262 35,000 130 499 0
2018-10-11 07:30:57 GMT 44.869606 16.311148 35,000 130 499 0
2018-10-11 07:30:54 GMT 44.873379 16.304983 35,000 130 499 0
2018-10-11 07:30:47 GMT 44.884502 16.286762 35,000 130 498 0
2018-10-11 07:30:44 GMT 44.889019 16.279394 35,000 130 498 0
2018-10-11 07:30:41 GMT 44.895023 16.269547 35,000 130 499 0
2018-10-11 07:30:36 GMT 44.901310 16.259230 35,000 130 499 0
2018-10-11 07:30:33 GMT 44.905426 16.252441 35,000 130 500 0
2018-10-11 07:30:27 GMT 44.913986 16.238382 35,000 130 500 0
2018-10-11 07:30:24 GMT 44.926163 16.218435 35,000 130 500 0
2018-10-11 07:30:20 GMT 44.926163 16.218435 35,000 130 500 0
2018-10-11 07:30:15 GMT 44.931801 16.209122 35,000 130 499 0
2018-10-11 07:30:12 GMT 44.938831 16.197533 35,000 130 499 0
2018-10-11 07:30:06 GMT 44.947220 16.183842 35,000 130 499 0
2018-10-11 07:29:59 GMT 44.957703 16.166578 35,000 130 500 0
2018-10-11 07:29:55 GMT 44.963745 16.156704 35,000 130 500 0
2018-10-11 07:29:51 GMT 44.968624 16.148630 35,000 130 500 0
2018-10-11 07:29:47 GMT 44.973743 16.140188 35,000 130 500 0
2018-10-11 07:29:42 GMT 44.984024 16.123220 35,000 130 500 0
2018-10-11 07:29:39 GMT 44.987915 16.116814 35,000 130 500 0
2018-10-11 07:29:36 GMT 44.992264 16.109619 35,000 130 500 0
2018-10-11 07:29:29 GMT 45.000885 16.095306 35,000 130 500 0
2018-10-11 07:29:26 GMT 45.005402 16.087870 35,000 130 500 0
2018-10-11 07:29:23 GMT 45.011684 16.077419 35,000 130 500 0
2018-10-11 07:29:19 GMT 45.022888 16.058937 35,000 130 500 0
2018-10-11 07:29:16 GMT 45.022888 16.058937 35,000 130 500 0
2018-10-11 07:29:11 GMT 45.028954 16.048882 35,000 130 500 0
2018-10-11 07:29:08 GMT 45.032181 16.043570 35,000 130 500 0
2018-10-11 07:29:05 GMT 45.037720 16.034349 35,000 130 500 0
2018-10-11 07:29:00 GMT 45.045685 16.021206 35,000 130 500 0
2018-10-11 07:28:56 GMT 45.052414 16.010023 35,000 130 500 0
2018-10-11 07:28:49 GMT 45.060837 15.996159 35,000 130 500 0
2018-10-11 07:28:45 GMT 45.069736 15.981356 35,000 130 500 0
2018-10-11 07:28:37 GMT 45.078674 15.966484 35,000 130 498 0
2018-10-11 07:28:33 GMT 45.086105 15.954176 35,000 130 498 0
2018-10-11 07:28:27 GMT 45.093895 15.941162 35,000 130 496 0
2018-10-11 07:28:23 GMT 45.101898 15.927887 35,000 130 498 0
2018-10-11 07:28:17 GMT 45.114120 15.907615 35,000 130 496 0
2018-10-11 07:28:14 GMT 45.114120 15.907615 35,000 130 497 0
2018-10-11 07:28:10 GMT 45.119080 15.899293 35,000 130 497 0
2018-10-11 07:28:06 GMT 45.125748 15.888258 35,000 130 497 0
2018-10-11 07:28:03 GMT 45.130394 15.880469 35,000 130 497 0
2018-10-11 07:28:00 GMT 45.134861 15.873033 35,000 130 498 0
2018-10-11 07:27:56 GMT 45.140961 15.862918 35,000 130 496 0
2018-10-11 07:27:53 GMT 45.145569 15.855214 35,000 130 498 0
2018-10-11 07:27:50 GMT 45.151291 15.845686 35,000 130 497 0
2018-10-11 07:27:45 GMT 45.157242 15.835746 35,000 130 496 0
2018-10-11 07:27:42 GMT 45.163376 15.825609 35,000 130 497 0
2018-10-11 07:27:34 GMT 45.173409 15.808924 35,000 130 497 0
2018-10-11 07:27:31 GMT 45.179646 15.798474 35,000 130 497 0
2018-10-11 07:27:27 GMT 45.183975 15.791306 35,000 130 497 0
2018-10-11 07:27:20 GMT 45.195564 15.772013 35,000 130 497 0
2018-10-11 07:27:15 GMT 45.200920 15.763103 35,000 130 496 0
2018-10-11 07:27:10 GMT 45.209610 15.748640 35,000 130 495 0
2018-10-11 07:27:06 GMT 45.216515 15.737111 35,000 130 495 0
2018-10-11 07:27:03 GMT 45.220276 15.730787 35,000 130 495 0
2018-10-11 07:26:59 GMT 45.225079 15.722775 35,000 130 495 0
2018-10-11 07:26:53 GMT 45.235462 15.705492 35,000 130 495 0
2018-10-11 07:26:49 GMT 45.240627 15.696783 35,000 130 495 0
2018-10-11 07:26:44 GMT 45.248634 15.683452 35,000 130 495 0
2018-10-11 07:26:41 GMT 45.251709 15.678294 35,000 130 494 0
2018-10-11 07:26:37 GMT 45.257622 15.668380 35,000 130 494 0
2018-10-11 07:26:33 GMT 45.264977 15.656053 35,000 130 493 0
2018-10-11 07:26:29 GMT 45.270748 15.646407 35,000 130 494 0
2018-10-11 07:26:25 GMT 45.275070 15.639103 35,000 130 493 0
2018-10-11 07:26:21 GMT 45.282623 15.626482 35,000 130 493 0
2018-10-11 07:26:18 GMT 45.285786 15.621219 35,000 130 493 0
2018-10-11 07:26:15 GMT 45.289673 15.614646 35,000 130 493 0
2018-10-11 07:26:10 GMT 45.298233 15.600324 35,000 130 493 0
2018-10-11 07:26:07 GMT 45.301300 15.595158 35,000 130 493 0
2018-10-11 07:26:04 GMT 45.305878 15.587507 35,000 130 493 0
2018-10-11 07:25:59 GMT 45.314182 15.573522 35,000 130 493 0
2018-10-11 07:25:55 GMT 45.320435 15.563049 35,000 130 493 0
2018-10-11 07:25:48 GMT 45.329269 15.548270 35,000 130 492 0
2018-10-11 07:25:45 GMT 45.335449 15.537872 35,000 130 492 0
2018-10-11 07:25:38 GMT 45.345371 15.521069 35,000 130 491 0
2018-10-11 07:25:34 GMT 45.350166 15.513030 35,000 130 492 0
2018-10-11 07:25:28 GMT 45.360126 15.496283 35,000 130 492 0
2018-10-11 07:25:24 GMT 45.364426 15.488957 35,000 129 490 0
2018-10-11 07:25:18 GMT 45.373947 15.472935 35,000 129 490 0
2018-10-11 07:25:14 GMT 45.379448 15.463659 35,000 129 490 0
2018-10-11 07:25:08 GMT 45.389099 15.447235 35,000 129 490 64
2018-10-11 07:25:03 GMT 45.395134 15.437064 35,000 129 490 0
2018-10-11 07:24:57 GMT 45.405888 15.418776 35,000 129 489 64
2018-10-11 07:24:53 GMT 45.410404 15.411139 35,000 129 489 0
2018-10-11 07:24:47 GMT 45.420776 15.393546 35,000 129 489 0
2018-10-11 07:24:44 GMT 45.424988 15.386418 35,000 129 489 0
2018-10-11 07:24:41 GMT 45.427322 15.382494 35,000 129 489 0
2018-10-11 07:24:36 GMT 45.435219 15.369069 35,000 129 488 0
2018-10-11 07:24:33 GMT 45.439636 15.361568 35,000 129 488 0
2018-10-11 07:24:23 GMT 45.455513 15.334569 35,000 129 488 0
2018-10-11 07:24:19 GMT 45.459843 15.327201 35,000 129 489 0
2018-10-11 07:24:14 GMT 45.467880 15.313503 35,000 129 489 0
2018-10-11 07:24:10 GMT 45.473202 15.304558 35,000 129 491 0
2018-10-11 07:24:03 GMT 45.482574 15.288587 35,000 129 490 -64
2018-10-11 07:24:00 GMT 45.487030 15.281112 35,000 129 491 -64
2018-10-11 07:23:55 GMT 45.493790 15.269557 35,000 129 491 0
2018-10-11 07:23:52 GMT 45.498596 15.261383 35,000 129 491 0
2018-10-11 07:23:49 GMT 45.502853 15.254255 35,000 129 491 0
2018-10-11 07:23:42 GMT 45.514683 15.234152 35,000 130 491 0
2018-10-11 07:23:38 GMT 45.519333 15.226266 35,000 129 491 0
2018-10-11 07:23:35 GMT 45.523819 15.218549 35,000 129 491 0
2018-10-11 07:23:32 GMT 45.529438 15.209031 35,000 129 491 0
2018-10-11 07:23:29 GMT 45.532928 15.203068 35,000 129 491 0
2018-10-11 07:23:21 GMT 45.545197 15.182125 35,000 129 491 0
2018-10-11 07:23:16 GMT 45.551086 15.172050 35,000 129 490 0
2018-10-11 07:23:12 GMT 45.558487 15.159416 35,000 129 491 0
2018-10-11 07:23:06 GMT 45.571148 15.137856 35,000 129 492 0
2018-10-11 07:23:03 GMT 45.571148 15.137856 35,000 129 491 64
2018-10-11 07:22:57 GMT 45.579437 15.123711 35,000 129 491 64
2018-10-11 07:22:50 GMT 45.589493 15.106544 35,000 129 492 -64
2018-10-11 07:22:46 GMT 45.595367 15.096488 35,000 129 492 -64
2018-10-11 07:22:43 GMT 45.600174 15.088248 35,000 129 492 0
2018-10-11 07:22:38 GMT 45.607414 15.075920 35,000 129 492 0
2018-10-11 07:22:35 GMT 45.610298 15.070976 35,000 129 492 0
2018-10-11 07:22:27 GMT 45.621872 15.051136 35,000 129 492 0
2018-10-11 07:22:24 GMT 45.626312 15.043510 35,000 129 492 0
2018-10-11 07:22:18 GMT 45.635017 15.028542 35,000 129 492 0
2018-10-11 07:22:15 GMT 45.640652 15.018860 35,000 129 492 0
2018-10-11 07:22:07 GMT 45.653091 14.997477 35,000 129 492 0
2018-10-11 07:22:03 GMT 45.656807 14.991119 35,000 129 492 0
2018-10-11 07:21:59 GMT 45.663712 14.979255 35,000 129 492 0
2018-10-11 07:21:55 GMT 45.669388 14.969542 35,000 129 493 0
2018-10-11 07:21:52 GMT 45.673798 14.961868 35,000 129 493 -64
2018-10-11 07:21:46 GMT 45.682434 14.946966 35,000 129 493 -64
2018-10-11 07:21:43 GMT 45.687901 14.937561 35,000 129 493 0
2018-10-11 07:21:37 GMT 45.694839 14.925664 35,000 129 493 64
2018-10-11 07:21:34 GMT 45.699402 14.917786 35,000 129 493 64
2018-10-11 07:21:31 GMT 45.703720 14.910390 35,000 129 493 64
2018-10-11 07:21:27 GMT 45.710480 14.898766 35,000 129 493 0
2018-10-11 07:21:24 GMT 45.714531 14.891762 35,000 129 493 0
2018-10-11 07:21:21 GMT 45.718826 14.884331 35,000 129 493 0
2018-10-11 07:21:17 GMT 45.723560 14.876175 35,000 129 493 0
2018-10-11 07:21:11 GMT 45.732651 14.860483 35,000 129 494 0
2018-10-11 07:21:08 GMT 45.737778 14.851707 35,000 129 494 0
2018-10-11 07:21:05 GMT 45.743729 14.841457 35,000 129 494 0
2018-10-11 07:20:59 GMT 45.756474 14.819458 35,000 129 494 0
2018-10-11 07:20:55 GMT 45.756474 14.819458 35,000 129 495 0
2018-10-11 07:20:50 GMT 45.763176 14.807854 35,000 129 494 0
2018-10-11 07:20:47 GMT 45.770020 14.796043 35,000 129 494 0
2018-10-11 07:20:38 GMT 45.781311 14.776544 35,000 129 495 0
2018-10-11 07:20:35 GMT 45.785290 14.769608 35,000 129 495 0
2018-10-11 07:20:28 GMT 45.797012 14.749279 35,000 129 497 0
2018-10-11 07:20:25 GMT 45.799862 14.744339 35,000 129 496 0
2018-10-11 07:20:19 GMT 45.808613 14.729164 35,000 129 496 0
2018-10-11 07:20:16 GMT 45.813080 14.721479 35,000 129 497 0
2018-10-11 07:20:13 GMT 45.817505 14.713715 35,000 129 497 0
2018-10-11 07:20:08 GMT 45.824066 14.702316 35,000 129 497 0
2018-10-11 07:20:05 GMT 45.829048 14.693733 35,000 129 497 0
2018-10-11 07:19:57 GMT 45.846832 14.662766 35,000 129 497 0
2018-10-11 07:19:48 GMT 45.854748 14.649033 35,000 129 497 -64
2018-10-11 07:19:44 GMT 45.859222 14.641292 35,000 129 498 0
2018-10-11 07:19:37 GMT 45.875015 14.613826 35,000 129 498 0
2018-10-11 07:19:34 GMT 45.875015 14.613826 35,000 129 498 0
2018-10-11 07:19:26 GMT 45.885681 14.595203 35,000 129 498 0
2018-10-11 07:19:23 GMT 45.891724 14.584753 35,000 129 499 0
2018-10-11 07:19:17 GMT 45.899002 14.572024 35,000 129 499 0
2018-10-11 07:19:12 GMT 45.908386 14.555679 35,000 129 499 0
2018-10-11 07:19:05 GMT 45.916580 14.541343 35,000 129 499 0
2018-10-11 07:19:01 GMT 45.922993 14.530243 35,000 129 499 0
2018-10-11 07:18:55 GMT 45.931183 14.515892 35,000 129 498 0
2018-10-11 07:18:52 GMT 45.935349 14.508652 35,000 129 499 0
2018-10-11 07:18:49 GMT 45.940933 14.498939 35,000 129 499 0
2018-10-11 07:18:46 GMT 45.945381 14.491104 35,000 129 499 0
2018-10-11 07:18:43 GMT 45.950737 14.481766 35,000 129 499 0
2018-10-11 07:18:38 GMT 45.955994 14.472612 35,000 129 499 0
2018-10-11 07:18:34 GMT 45.962376 14.461510 35,000 129 499 0
2018-10-11 07:18:31 GMT 45.966843 14.453720 35,000 129 499 0
2018-10-11 07:18:27 GMT 45.972107 14.444476 35,000 129 498 0
2018-10-11 07:18:24 GMT 45.978973 14.432485 35,000 129 497 0
2018-10-11 07:18:21 GMT 45.981834 14.427452 35,000 129 498 0
2018-10-11 07:18:18 GMT 45.987579 14.417412 35,000 129 498 0
2018-10-11 07:18:14 GMT 45.991379 14.410780 35,000 129 498 0
2018-10-11 07:18:11 GMT 45.996323 14.402071 35,000 129 498 0
2018-10-11 07:18:08 GMT 46.000778 14.394218 35,000 129 498 0
2018-10-11 07:18:05 GMT 46.005249 14.386463 35,000 129 498 0
2018-10-11 07:18:02 GMT 46.009533 14.378906 35,000 129 498 0
2018-10-11 07:17:59 GMT 46.013260 14.372395 35,000 129 498 0
2018-10-11 07:17:53 GMT 46.021683 14.357590 35,000 129 497 0
2018-10-11 07:17:49 GMT 46.029968 14.342986 35,000 129 498 0
2018-10-11 07:17:45 GMT 46.035694 14.332901 35,000 129 498 0
2018-10-11 07:17:41 GMT 46.039513 14.326241 35,000 129 498 0
2018-10-11 07:17:38 GMT 46.044586 14.317314 35,000 129 498 0
2018-10-11 07:17:33 GMT 46.051289 14.305504 35,000 129 498 0
2018-10-11 07:17:30 GMT 46.057022 14.295424 35,000 129 498 0
2018-10-11 07:17:27 GMT 46.059856 14.290398 35,000 129 498 -64
2018-10-11 07:17:22 GMT 46.067047 14.277738 35,000 129 498 -64
2018-10-11 07:17:19 GMT 46.071491 14.269867 35,000 129 498 0
2018-10-11 07:17:15 GMT 46.078262 14.257976 35,000 129 498 0
2018-10-11 07:17:12 GMT 46.081329 14.252617 35,000 129 498 0
2018-10-11 07:17:09 GMT 46.086342 14.243774 35,000 129 498 0
2018-10-11 07:17:06 GMT 46.090622 14.236205 35,000 129 498 0
2018-10-11 07:16:59 GMT 46.102432 14.215371 35,000 129 498 0
2018-10-11 07:16:55 GMT 46.107193 14.206863 35,000 129 498 0
2018-10-11 07:16:51 GMT 46.112274 14.197886 35,000 129 498 0
2018-10-11 07:16:47 GMT 46.118225 14.187369 35,000 129 498 0
2018-10-11 07:16:44 GMT 46.122375 14.179985 35,000 129 498 0
2018-10-11 07:16:41 GMT 46.127171 14.171539 35,000 129 498 0
2018-10-11 07:16:38 GMT 46.131729 14.163387 35,000 129 498 0
2018-10-11 07:16:34 GMT 46.137596 14.153000 35,000 129 498 0
2018-10-11 07:16:30 GMT 46.142029 14.145165 35,000 129 498 0
2018-10-11 07:16:26 GMT 46.149124 14.132571 35,000 129 497 0
2018-10-11 07:16:23 GMT 46.153564 14.124710 35,000 129 497 0
2018-10-11 07:16:20 GMT 46.157272 14.118169 35,000 129 497 0
2018-10-11 07:16:16 GMT 46.163361 14.107383 35,000 129 497 0
2018-10-11 07:16:13 GMT 46.167763 14.099579 35,000 129 498 0
2018-10-11 07:16:09 GMT 46.173302 14.089828 35,000 129 498 0
2018-10-11 07:16:05 GMT 46.178658 14.080284 35,000 129 498 0
2018-10-11 07:16:02 GMT 46.184334 14.070259 35,000 129 498 0
2018-10-11 07:15:59 GMT 46.187302 14.064979 35,000 129 498 64
2018-10-11 07:15:55 GMT 46.193878 14.053230 35,000 129 498 0
2018-10-11 07:15:52 GMT 46.197464 14.046958 35,000 129 498 0
2018-10-11 07:15:49 GMT 46.202499 14.037915 35,000 129 498 0
2018-10-11 07:15:45 GMT 46.207520 14.028992 35,000 129 498 64
2018-10-11 07:15:42 GMT 46.212524 14.020162 35,000 129 498 64
2018-10-11 07:15:38 GMT 46.217743 14.010851 35,000 129 498 0
2018-10-11 07:15:32 GMT 46.227173 13.994103 35,000 128 499 0
2018-10-11 07:15:28 GMT 46.233124 13.983519 35,000 128 499 64
2018-10-11 07:15:24 GMT 46.238243 13.974335 35,000 128 499 0
2018-10-11 07:15:21 GMT 46.242691 13.966504 35,000 128 499 0
2018-10-11 07:15:18 GMT 46.247414 13.958061 35,000 128 499 0
2018-10-11 07:15:13 GMT 46.254135 13.946072 35,000 128 499 0
2018-10-11 07:15:10 GMT 46.259399 13.936760 35,000 128 499 0
2018-10-11 07:15:07 GMT 46.262878 13.930597 35,000 128 499 0
2018-10-11 07:15:01 GMT 46.277527 13.904471 35,000 128 498 0
2018-10-11 07:14:57 GMT 46.277527 13.904471 35,000 128 498 0
2018-10-11 07:14:52 GMT 46.286564 13.888298 35,000 128 499 0
2018-10-11 07:14:47 GMT 46.292542 13.877541 35,000 128 499 0
2018-10-11 07:14:40 GMT 46.302158 13.860283 35,000 128 499 0
2018-10-11 07:14:36 GMT 46.308472 13.849003 35,000 128 499 0
2018-10-11 07:14:33 GMT 46.312588 13.841675 35,000 128 499 0
2018-10-11 07:14:30 GMT 46.316986 13.833730 35,000 128 499 0
2018-10-11 07:14:27 GMT 46.321335 13.825959 35,000 128 499 0
2018-10-11 07:14:24 GMT 46.325901 13.817780 35,000 128 499 0
2018-10-11 07:14:20 GMT 46.332138 13.806656 35,000 128 499 0
2018-10-11 07:14:17 GMT 46.340984 13.790863 35,000 128 499 0
2018-10-11 07:14:09 GMT 46.347244 13.779535 35,000 128 499 0
2018-10-11 07:14:06 GMT 46.353058 13.769219 35,000 128 499 0
2018-10-11 07:14:03 GMT 46.355835 13.764153 35,000 128 499 0
2018-10-11 07:13:56 GMT 46.365936 13.745956 35,000 128 498 64
2018-10-11 07:13:52 GMT 46.371643 13.735724 35,000 128 497 0
2018-10-11 07:13:49 GMT 46.377621 13.724945 35,000 128 498 0
2018-10-11 07:13:46 GMT 46.380508 13.719795 35,000 128 498 0
2018-10-11 07:13:43 GMT 46.384834 13.711967 35,000 128 497 0
2018-10-11 07:13:40 GMT 46.388947 13.704573 35,000 128 498 0
2018-10-11 07:13:37 GMT 46.393845 13.695798 35,000 128 497 0
2018-10-11 07:13:34 GMT 46.398331 13.687759 35,000 128 497 0
2018-10-11 07:13:30 GMT 46.407787 13.670769 35,000 128 497 0
2018-10-11 07:13:27 GMT 46.407787 13.670769 35,000 128 497 0
2018-10-11 07:13:23 GMT 46.413559 13.660400 35,000 128 497 0
2018-10-11 07:13:19 GMT 46.418728 13.651062 35,000 128 497 0
2018-10-11 07:13:16 GMT 46.424637 13.640419 35,000 128 496 0
2018-10-11 07:13:12 GMT 46.428909 13.632760 35,000 128 497 0
2018-10-11 07:13:09 GMT 46.441116 13.610687 35,000 128 497 0
2018-10-11 07:13:04 GMT 46.441116 13.610687 35,000 128 497 0
2018-10-11 07:13:01 GMT 46.444794 13.604095 35,000 128 496 0
2018-10-11 07:12:58 GMT 46.449875 13.594911 35,000 128 496 0
2018-10-11 07:12:55 GMT 46.454292 13.586792 35,000 128 496 0
2018-10-11 07:12:51 GMT 46.459900 13.576690 35,000 128 496 -64
2018-10-11 07:12:47 GMT 46.466354 13.565034 35,000 128 495 0
2018-10-11 07:12:39 GMT 46.481895 13.536942 35,000 128 495 0
2018-10-11 07:12:35 GMT 46.481895 13.536942 35,000 128 496 0
2018-10-11 07:12:31 GMT 46.487904 13.526093 35,000 128 495 0
2018-10-11 07:12:27 GMT 46.496098 13.511330 35,000 128 496 -64
2018-10-11 07:12:22 GMT 46.501823 13.500961 35,000 128 496 0
2018-10-11 07:12:19 GMT 46.505310 13.494627 35,000 128 496 -64
2018-10-11 07:12:16 GMT 46.511414 13.483521 35,000 128 496 0
2018-10-11 07:12:12 GMT 46.515137 13.476791 35,000 128 496 0
2018-10-11 07:12:09 GMT 46.521194 13.465755 35,000 128 496 0
2018-10-11 07:12:05 GMT 46.527054 13.455103 35,000 128 496 0
2018-10-11 07:12:01 GMT 46.536037 13.438889 35,000 128 496 0
2018-10-11 07:11:58 GMT 46.536037 13.438889 35,000 128 496 0
2018-10-11 07:11:55 GMT 46.540237 13.431255 35,000 128 496 0
2018-10-11 07:11:52 GMT 46.544464 13.423576 35,000 128 497 0
2018-10-11 07:11:48 GMT 46.550262 13.413034 35,000 128 497 0
2018-10-11 07:11:45 GMT 46.555962 13.402771 35,000 128 497 0
2018-10-11 07:11:42 GMT 46.558941 13.397278 35,000 128 497 0
2018-10-11 07:11:38 GMT 46.566055 13.384362 35,000 128 498 0
2018-10-11 07:11:34 GMT 46.571640 13.374180 35,000 128 498 0
2018-10-11 07:11:28 GMT 46.578728 13.361229 35,000 128 498 0
2018-10-11 07:11:25 GMT 46.583893 13.351891 35,000 128 498 -64
2018-10-11 07:11:22 GMT 46.589199 13.342209 35,000 128 498 0
2018-10-11 07:11:19 GMT 46.591827 13.337335 35,000 128 498 0
2018-10-11 07:11:15 GMT 46.597549 13.326885 35,000 128 498 64
2018-10-11 07:11:12 GMT 46.601257 13.320119 35,000 128 498 64
2018-10-11 07:11:08 GMT 46.607117 13.309401 35,000 128 498 -64
2018-10-11 07:11:05 GMT 46.616867 13.291648 35,000 128 498 0
2018-10-11 07:11:02 GMT 46.621971 13.282333 35,000 128 498 -64
2018-10-11 07:10:58 GMT 46.621971 13.282333 35,000 128 498 -64
2018-10-11 07:10:55 GMT 46.625748 13.275437 35,000 128 498 0
2018-10-11 07:10:51 GMT 46.632820 13.262489 35,000 128 498 -64
2018-10-11 07:10:46 GMT 46.638126 13.252739 35,000 128 498 0
2018-10-11 07:10:43 GMT 46.644379 13.241406 35,000 128 498 0
2018-10-11 07:10:40 GMT 46.647079 13.236382 35,000 128 498 0
2018-10-11 07:10:37 GMT 46.651627 13.228157 35,000 128 498 0
2018-10-11 07:10:33 GMT 46.657494 13.217377 35,000 128 501 0
2018-10-11 07:10:30 GMT 46.662243 13.208656 35,000 128 500 0
2018-10-11 07:10:27 GMT 46.666443 13.200944 35,000 128 501 0
2018-10-11 07:10:24 GMT 46.671753 13.191164 35,000 128 501 0
2018-10-11 07:10:18 GMT 46.679398 13.177230 35,000 128 501 0
2018-10-11 07:10:15 GMT 46.684212 13.168350 35,000 128 501 0
2018-10-11 07:10:11 GMT 46.690063 13.157669 35,000 128 501 0
2018-10-11 07:10:08 GMT 46.693150 13.152008 35,000 128 501 0
2018-10-11 07:10:02 GMT 46.706772 13.127054 35,000 128 501 0
2018-10-11 07:09:59 GMT 46.706772 13.127054 35,000 128 501 0
2018-10-11 07:09:55 GMT 46.712677 13.116202 35,000 128 501 0
2018-10-11 07:09:52 GMT 46.716705 13.108833 35,000 128 501 0
2018-10-11 07:09:49 GMT 46.721558 13.099856 35,000 128 501 0
2018-10-11 07:09:45 GMT 46.726391 13.091034 35,000 128 501 0
2018-10-11 07:09:42 GMT 46.731697 13.081215 35,000 128 501 0
2018-10-11 07:09:39 GMT 46.735886 13.073593 35,000 128 501 0
2018-10-11 07:09:36 GMT 46.738678 13.068438 35,000 128 500 0
2018-10-11 07:09:31 GMT 46.746082 13.054848 35,000 128 500 0
2018-10-11 07:09:27 GMT 46.751667 13.044548 35,000 128 500 0
2018-10-11 07:09:20 GMT 46.761612 13.026168 35,000 128 500 0
2018-10-11 07:09:17 GMT 46.767334 13.015583 35,000 128 500 0
2018-10-11 07:09:13 GMT 46.771732 13.007538 35,000 128 500 0
2018-10-11 07:09:09 GMT 46.777317 12.997238 35,000 128 500 -64
2018-10-11 07:09:06 GMT 46.781738 12.989067 35,000 128 500 -64
2018-10-11 07:09:01 GMT 46.789856 12.974117 35,000 128 499 0
2018-10-11 07:08:57 GMT 46.795715 12.963331 35,000 128 499 0
2018-10-11 07:08:52 GMT 46.803131 12.949598 35,000 128 499 0
2018-10-11 07:08:49 GMT 46.806839 12.942765 35,000 128 499 0
2018-10-11 07:08:46 GMT 46.811207 12.934685 35,000 128 499 0
2018-10-11 07:08:42 GMT 46.822998 12.912955 35,000 128 499 0
2018-10-11 07:08:38 GMT 46.822998 12.912955 35,000 128 499 0
2018-10-11 07:08:35 GMT 46.825779 12.907768 35,000 128 499 0
2018-10-11 07:08:32 GMT 46.837322 12.886414 35,000 128 499 0
2018-10-11 07:08:28 GMT 46.837322 12.886414 35,000 128 499 0
2018-10-11 07:08:25 GMT 46.840118 12.881269 35,000 128 499 64
2018-10-11 07:08:22 GMT 46.845520 12.871220 35,000 128 499 0
2018-10-11 07:08:18 GMT 46.851242 12.860636 35,000 128 499 0
2018-10-11 07:08:11 GMT 46.861771 12.841075 35,000 128 499 0
2018-10-11 07:08:08 GMT 46.866623 12.832098 35,000 128 499 0
2018-10-11 07:08:05 GMT 46.869537 12.826609 35,000 128 499 0
2018-10-11 07:07:59 GMT 46.882759 12.802030 35,000 128 499 0
2018-10-11 07:07:47 GMT 46.903656 12.763298 35,000 128 499 0
2018-10-11 07:07:38 GMT 46.907776 12.755608 35,000 128 499 0
2018-10-11 07:07:35 GMT 46.913452 12.744965 35,000 128 499 0
2018-10-11 07:07:26 GMT 46.926331 12.721041 35,000 128 500 0
2018-10-11 07:07:17 GMT 46.938995 12.697378 35,000 128 500 0
2018-10-11 07:07:14 GMT 46.941925 12.691956 35,000 128 500 0
2018-10-11 07:07:07 GMT 46.951859 12.673347 35,000 128 500 0
2018-10-11 07:07:04 GMT 46.956310 12.664983 35,000 128 500 0
2018-10-11 07:06:56 GMT 46.968338 12.642448 35,000 127 500 0
2018-10-11 07:06:52 GMT 46.972733 12.634209 35,000 127 500 0
2018-10-11 07:06:46 GMT 46.981934 12.616905 35,000 127 500 64
2018-10-11 07:06:43 GMT 46.986649 12.608116 35,000 127 500 64
2018-10-11 07:06:40 GMT 46.989552 12.602656 35,000 128 500 0
2018-10-11 07:06:34 GMT 46.999741 12.583603 35,000 127 500 0
2018-10-11 07:06:31 GMT 47.002724 12.577937 35,000 127 500 0
2018-10-11 07:06:28 GMT 47.011150 12.562092 35,000 127 500 0
2018-10-11 07:06:25 GMT 47.011150 12.562092 35,000 127 500 0
2018-10-11 07:06:21 GMT 47.016876 12.551387 35,000 127 500 0
2018-10-11 07:06:18 GMT 47.021347 12.543022 35,000 127 498 0
2018-10-11 07:06:15 GMT 47.030933 12.524977 35,000 127 500 -64
2018-10-11 07:06:12 GMT 47.030933 12.524977 35,000 127 500 0
2018-10-11 07:06:08 GMT 47.035358 12.516738 35,000 128 500 0
2018-10-11 07:06:03 GMT 47.043045 12.502167 35,000 127 500 64
2018-10-11 07:06:00 GMT 47.047691 12.493357 35,000 127 500 0
2018-10-11 07:05:55 GMT 47.054165 12.481243 35,000 127 499 -64
2018-10-11 07:05:50 GMT 47.062172 12.466102 35,000 128 500 0
2018-10-11 07:05:44 GMT 47.068954 12.453346 35,000 127 499 -64
2018-10-11 07:05:40 GMT 47.075394 12.441242 35,000 127 499 -64
2018-10-11 07:05:34 GMT 47.083694 12.425606 35,000 127 498 -64
2018-10-11 07:05:31 GMT 47.089451 12.414832 35,000 127 498 64
2018-10-11 07:05:27 GMT 47.094177 12.405899 35,000 127 500 0
2018-10-11 07:05:21 GMT 47.107048 12.381592 35,000 127 498 0
2018-10-11 07:05:18 GMT 47.107048 12.381592 35,000 127 498 0
2018-10-11 07:05:11 GMT 47.116882 12.362915 35,000 127 499 0
2018-10-11 07:05:07 GMT 47.122456 12.352365 35,000 127 499 0
2018-10-11 07:05:03 GMT 47.127914 12.342110 35,000 127 500 0
2018-10-11 07:04:59 GMT 47.133072 12.332365 35,000 127 498 0
2018-10-11 07:04:53 GMT 47.142147 12.315322 35,000 127 500 0
2018-10-11 07:04:50 GMT 47.146523 12.307012 35,000 128 500 0
2018-10-11 07:04:47 GMT 47.152481 12.295814 35,000 127 500 0
2018-10-11 07:04:41 GMT 47.160370 12.280998 35,000 127 500 64
2018-10-11 07:04:38 GMT 47.163025 12.275917 35,000 127 500 64
2018-10-11 07:04:35 GMT 47.167007 12.268419 35,000 128 500 0
2018-10-11 07:04:32 GMT 47.171474 12.259968 35,000 127 500 -64
2018-10-11 07:04:29 GMT 47.175758 12.251939 35,000 127 500 -64
2018-10-11 07:04:26 GMT 47.179996 12.243911 35,000 127 500 0
2018-10-11 07:04:22 GMT 47.186050 12.232521 35,000 127 500 0
2018-10-11 07:04:18 GMT 47.193008 12.219475 35,000 127 500 -64
2018-10-11 07:04:15 GMT 47.195709 12.214325 35,000 127 500 0
2018-10-11 07:04:11 GMT 47.201797 12.202858 35,000 127 500 0
2018-10-11 07:04:08 GMT 47.207321 12.192359 35,000 127 500 0
2018-10-11 07:04:05 GMT 47.209854 12.187546 35,000 127 500 0
2018-10-11 07:04:00 GMT 47.217190 12.173767 35,000 127 500 0
2018-10-11 07:03:56 GMT 47.224125 12.160668 35,000 127 500 64
2018-10-11 07:03:49 GMT 47.233154 12.143600 35,000 127 501 0
2018-10-11 07:03:46 GMT 47.241074 12.128563 35,000 127 501 0
2018-10-11 07:03:39 GMT 47.246937 12.117427 35,000 127 501 0
2018-10-11 07:03:36 GMT 47.251640 12.108553 35,000 127 501 64
2018-10-11 07:03:33 GMT 47.257225 12.097919 35,000 127 501 -64
2018-10-11 07:03:29 GMT 47.260345 12.092033 35,000 127 501 -64
2018-10-11 07:03:26 GMT 47.266254 12.080665 35,000 127 501 -64
2018-10-11 07:03:23 GMT 47.269089 12.075279 35,000 127 500 -64
2018-10-11 07:03:18 GMT 47.275890 12.062214 35,000 127 501 64
2018-10-11 07:03:15 GMT 47.280224 12.053833 35,000 127 501 -64
2018-10-11 07:03:12 GMT 47.284378 12.045822 35,000 127 501 0
2018-10-11 07:03:08 GMT 47.289997 12.034818 35,000 127 501 0
2018-10-11 07:03:05 GMT 47.295685 12.023849 35,000 127 501 0
2018-10-11 07:03:02 GMT 47.303970 12.007851 35,000 127 503 0
2018-10-11 07:02:59 GMT 47.303970 12.007851 35,000 127 503 0
2018-10-11 07:02:55 GMT 47.308105 11.999887 35,000 126 502 0
2018-10-11 07:02:52 GMT 47.312992 11.990309 35,000 119 504 0
2018-10-11 07:02:47 GMT 47.319260 11.977020 35,000 122 504 0
2018-10-11 07:02:44 GMT 47.324863 11.964252 35,000 120 504 0
2018-10-11 07:02:41 GMT 47.327179 11.958481 35,000 118 504 0
2018-10-11 07:02:38 GMT 47.330078 11.950942 35,000 117 504 0
2018-10-11 07:02:35 GMT 47.336655 11.932251 35,000 114 505 0
2018-10-11 07:02:29 GMT 47.339905 11.922020 35,000 113 504 0
2018-10-11 07:02:25 GMT 47.346176 11.899498 35,000 109 505 0
2018-10-11 07:02:22 GMT 47.346176 11.899498 35,000 108 505 64
2018-10-11 07:02:18 GMT 47.349976 11.883293 35,000 101 505 0
2018-10-11 07:02:15 GMT 47.351448 11.876221 35,000 99 504 0
2018-10-11 07:02:12 GMT 47.352768 11.869492 35,000 103 505 0
2018-10-11 07:02:09 GMT 47.354984 11.856713 35,000 102 505 64
2018-10-11 07:02:06 GMT 47.356430 11.846764 35,000 100 505 0
2018-10-11 07:02:02 GMT 47.358383 11.830726 35,000 99 505 -64
2018-10-11 07:01:59 GMT 47.359634 11.819710 35,000 99 504 0
2018-10-11 07:01:56 GMT 47.360779 11.809547 35,000 99 504 0
2018-10-11 07:01:53 GMT 47.363846 11.782425 35,000 99 505 0
2018-10-11 07:01:48 GMT 47.363846 11.782425 35,000 99 504 0
2018-10-11 07:01:44 GMT 47.365311 11.769585 35,000 99 505 0
2018-10-11 07:01:40 GMT 47.368439 11.741920 35,000 99 505 0
2018-10-11 07:01:36 GMT 47.368439 11.741920 35,000 99 504 -64
2018-10-11 07:01:33 GMT 47.369202 11.734978 35,000 99 505 0
2018-10-11 07:01:30 GMT 47.370441 11.723961 35,000 99 505 0
2018-10-11 07:01:26 GMT 47.371792 11.711707 35,000 99 505 0
2018-10-11 07:01:23 GMT 47.373138 11.699524 35,000 99 505 0
2018-10-11 07:01:20 GMT 47.375515 11.678115 35,000 99 504 0
2018-10-11 07:01:17 GMT 47.375515 11.678115 35,000 99 505 64
2018-10-11 07:01:14 GMT 47.376213 11.671706 35,000 99 505 0
2018-10-11 07:01:11 GMT 47.377167 11.663361 35,000 99 505 0
2018-10-11 07:01:08 GMT 47.378586 11.650864 35,000 99 505 0
2018-10-11 07:01:05 GMT 47.379684 11.641045 35,000 99 505 0
2018-10-11 07:01:02 GMT 47.381195 11.627449 35,000 99 505 0
2018-10-11 07:00:59 GMT 47.381927 11.620651 35,000 99 504 0
2018-10-11 07:00:56 GMT 47.383057 11.610295 35,000 99 505 0
2018-10-11 07:00:53 GMT 47.384583 11.596962 35,000 99 504 0
2018-10-11 07:00:50 GMT 47.385288 11.590294 35,000 99 504 0
2018-10-11 07:00:47 GMT 47.386406 11.580153 35,000 99 504 0
2018-10-11 07:00:42 GMT 47.388290 11.563042 35,000 99 504 0
2018-10-11 07:00:39 GMT 47.389713 11.550363 35,000 99 504 0
2018-10-11 07:00:36 GMT 47.390533 11.543060 35,000 99 504 0
2018-10-11 07:00:32 GMT 47.392273 11.527123 35,000 99 504 0
2018-10-11 07:00:27 GMT 47.394135 11.510010 35,000 99 504 0
2018-10-11 07:00:21 GMT 47.396183 11.491418 35,000 99 503 0
2018-10-11 07:00:18 GMT 47.397446 11.480095 35,000 99 503 0
2018-10-11 07:00:15 GMT 47.400093 11.455923 35,000 99 503 0
2018-10-11 07:00:11 GMT 47.400093 11.455923 35,000 99 503 0
2018-10-11 07:00:08 GMT 47.400841 11.449162 35,000 99 503 0
2018-10-11 07:00:05 GMT 47.402374 11.434937 35,000 99 503 0
2018-10-11 07:00:01 GMT 47.403809 11.421936 35,000 99 503 0
2018-10-11 06:59:57 GMT 47.405319 11.408409 35,000 99 503 0
2018-10-11 06:59:54 GMT 47.407543 11.387822 35,000 99 502 0
2018-10-11 06:59:50 GMT 47.407543 11.387822 35,000 99 503 0
2018-10-11 06:59:47 GMT 47.408615 11.377991 35,000 99 502 0
2018-10-11 06:59:44 GMT 47.409729 11.368033 35,000 99 502 0
2018-10-11 06:59:41 GMT 47.410847 11.357610 35,000 99 502 0
2018-10-11 06:59:38 GMT 47.412277 11.344551 35,000 99 502 0
2018-10-11 06:59:35 GMT 47.413082 11.336975 35,000 99 502 0
2018-10-11 06:59:32 GMT 47.414433 11.324862 35,000 99 502 0
2018-10-11 06:59:28 GMT 47.415920 11.310988 35,000 99 502 64
2018-10-11 06:59:24 GMT 47.417404 11.296967 35,000 99 502 0
2018-10-11 06:59:19 GMT 47.418995 11.282325 35,000 99 502 0
2018-10-11 06:59:16 GMT 47.420425 11.269020 35,000 99 501 0
2018-10-11 06:59:13 GMT 47.421249 11.261536 35,000 99 501 0
2018-10-11 06:59:09 GMT 47.423492 11.240662 35,000 99 501 0
2018-10-11 06:59:05 GMT 47.424534 11.230704 35,000 99 501 0
2018-10-11 06:59:02 GMT 47.425644 11.220818 35,000 99 501 0
2018-10-11 06:58:57 GMT 47.427429 11.203926 35,000 98 500 0
2018-10-11 06:58:54 GMT 47.428165 11.197392 35,000 98 500 0
2018-10-11 06:58:51 GMT 47.429283 11.186969 35,000 98 500 0
2018-10-11 06:58:48 GMT 47.430359 11.176666 35,000 98 500 0
2018-10-11 06:58:45 GMT 47.432831 11.153458 35,000 98 500 0
2018-10-11 06:58:42 GMT 47.432831 11.153458 35,000 98 500 0
2018-10-11 06:58:38 GMT 47.433891 11.143728 35,000 98 500 0
2018-10-11 06:58:34 GMT 47.435379 11.129784 35,000 98 499 0
2018-10-11 06:58:31 GMT 47.436310 11.121254 35,000 98 498 0
2018-10-11 06:58:28 GMT 47.437756 11.107107 35,000 99 498 0
2018-10-11 06:58:24 GMT 47.438782 11.097702 35,000 98 498 0
2018-10-11 06:58:21 GMT 47.440247 11.083969 35,000 98 498 0
2018-10-11 06:58:17 GMT 47.441338 11.073726 35,000 98 498 0
2018-10-11 06:58:13 GMT 47.443062 11.057246 35,025 98 498 0
2018-10-11 06:58:09 GMT 47.444084 11.047528 35,000 98 498 0
2018-10-11 06:58:06 GMT 47.445202 11.036964 35,000 98 498 64
2018-10-11 06:58:03 GMT 47.446274 11.026682 35,000 98 498 0
2018-10-11 06:58:00 GMT 47.447762 11.012949 35,000 98 498 0
2018-10-11 06:57:57 GMT 47.448486 11.006035 35,000 98 498 0
2018-10-11 06:57:54 GMT 47.449532 10.996188 35,000 98 498 0
2018-10-11 06:57:51 GMT 47.450592 10.986259 35,000 98 498 0
2018-10-11 06:57:48 GMT 47.451626 10.976398 35,000 98 498 0
2018-10-11 06:57:45 GMT 47.453110 10.962433 35,000 98 498 0
2018-10-11 06:57:42 GMT 47.455124 10.943001 35,000 98 498 0
2018-10-11 06:57:38 GMT 47.455124 10.943001 35,000 98 498 0
2018-10-11 06:57:34 GMT 47.457642 10.919174 35,000 98 498 0
2018-10-11 06:57:31 GMT 47.457642 10.919174 35,000 98 500 64
2018-10-11 06:57:28 GMT 47.458611 10.909635 35,000 99 498 -64
2018-10-11 06:57:25 GMT 47.459793 10.898369 35,000 98 499 -64
2018-10-11 06:57:21 GMT 47.461170 10.885057 35,000 98 500 64
2018-10-11 06:57:18 GMT 47.462475 10.872662 35,000 98 499 0
2018-10-11 06:57:15 GMT 47.463173 10.865549 35,000 98 500 64
2018-10-11 06:57:11 GMT 47.464691 10.850922 35,000 98 500 0
2018-10-11 06:57:08 GMT 47.465424 10.844193 35,000 98 500 64
2018-10-11 06:57:05 GMT 47.466663 10.832027 35,000 98 501 0
2018-10-11 06:57:02 GMT 47.468666 10.812660 35,000 98 503 0
2018-10-11 06:56:56 GMT 47.470062 10.799279 35,000 99 502 64
2018-10-11 06:56:53 GMT 47.471085 10.789278 35,000 98 503 0
2018-10-11 06:56:50 GMT 47.471970 10.780827 35,000 98 505 0
2018-10-11 06:56:46 GMT 47.473553 10.765686 35,000 98 504 0
2018-10-11 06:56:43 GMT 47.474625 10.755203 35,000 98 504 0
2018-10-11 06:56:40 GMT 47.475697 10.744840 35,000 98 505 0
2018-10-11 06:56:37 GMT 47.476765 10.734629 35,000 98 505 0
2018-10-11 06:56:34 GMT 47.477604 10.726248 35,000 98 505 0
2018-10-11 06:56:30 GMT 47.480026 10.702744 35,000 98 505 0
2018-10-11 06:56:27 GMT 47.480026 10.702744 35,000 98 505 0
2018-10-11 06:56:24 GMT 47.480942 10.693886 35,000 98 505 0
2018-10-11 06:56:21 GMT 47.482166 10.681739 35,000 98 506 -64
2018-10-11 06:56:18 GMT 47.483231 10.671364 35,000 98 506 0
2018-10-11 06:56:15 GMT 47.484283 10.661133 35,000 98 506 0
2018-10-11 06:56:11 GMT 47.486774 10.636738 35,025 98 507 0
2018-10-11 06:56:05 GMT 47.487751 10.627019 35,000 98 506 0
2018-10-11 06:56:02 GMT 47.489136 10.613617 35,025 98 508 0
2018-10-11 06:55:59 GMT 47.489799 10.606596 35,000 98 508 0
2018-10-11 06:55:56 GMT 47.490875 10.596176 35,000 99 509 0
2018-10-11 06:55:53 GMT 47.492111 10.584160 35,000 98 510 64
2018-10-11 06:55:50 GMT 47.492889 10.576607 35,000 98 511 0
2018-10-11 06:55:47 GMT 47.493988 10.565895 35,000 98 513 64
2018-10-11 06:55:44 GMT 47.496552 10.540695 35,000 98 513 64
2018-10-11 06:55:40 GMT 47.496552 10.540695 35,000 98 514 0
2018-10-11 06:55:36 GMT 47.499344 10.513229 35,000 98 515 0
2018-10-11 06:55:32 GMT 47.499344 10.513229 35,000 98 516 0
2018-10-11 06:55:29 GMT 47.501160 10.495324 35,000 98 519 0
2018-10-11 06:55:23 GMT 47.502369 10.483070 35,000 98 518 0
2018-10-11 06:55:20 GMT 47.503860 10.468421 35,000 98 518 0
2018-10-11 06:55:16 GMT 47.504929 10.457928 35,000 98 519 0
2018-10-11 06:55:13 GMT 47.506325 10.443913 35,000 98 519 0
2018-10-11 06:55:10 GMT 47.507118 10.436237 35,000 98 519 0
2018-10-11 06:55:07 GMT 47.508003 10.427504 35,000 98 520 0
2018-10-11 06:55:04 GMT 47.509117 10.416236 35,000 98 519 0
2018-10-11 06:55:00 GMT 47.510422 10.403278 35,000 98 520 0
2018-10-11 06:54:57 GMT 47.512665 10.380981 35,000 98 520 0
2018-10-11 06:54:54 GMT 47.512665 10.380981 35,000 98 520 0
2018-10-11 06:54:51 GMT 47.513729 10.370460 35,000 98 520 0
2018-10-11 06:54:48 GMT 47.514725 10.360313 35,000 98 520 0
2018-10-11 06:54:45 GMT 47.515778 10.349808 35,000 98 520 0
2018-10-11 06:54:42 GMT 47.518196 10.325388 35,000 98 520 0
2018-10-11 06:54:39 GMT 47.518196 10.325388 35,000 98 520 0
2018-10-11 06:54:36 GMT 47.519268 10.314472 35,000 98 520 0
2018-10-11 06:54:32 GMT 47.520676 10.300232 35,000 98 520 -64
2018-10-11 06:54:29 GMT 47.521362 10.293344 35,000 98 520 -64
2018-10-11 06:54:26 GMT 47.522385 10.283203 35,000 98 520 64
2018-10-11 06:54:23 GMT 47.523548 10.271020 35,000 97 520 64
2018-10-11 06:54:20 GMT 47.524429 10.262329 35,000 98 520 -64
2018-10-11 06:54:17 GMT 47.525551 10.251160 35,000 98 520 -64
2018-10-11 06:54:13 GMT 47.526993 10.236580 35,000 98 520 0
2018-10-11 06:54:10 GMT 47.528019 10.225877 35,000 98 520 0
2018-10-11 06:54:07 GMT 47.528824 10.217628 35,000 98 520 0
2018-10-11 06:54:04 GMT 47.529881 10.206933 35,000 98 520 0
2018-10-11 06:54:01 GMT 47.531113 10.194489 35,000 98 520 0
2018-10-11 06:53:58 GMT 47.532303 10.182198 35,000 98 519 0
2018-10-11 06:53:54 GMT 47.533421 10.170805 34,975 98 520 -128
2018-10-11 06:53:50 GMT 47.534863 10.156015 35,000 98 520 128
2018-10-11 06:53:47 GMT 47.535934 10.145522 35,000 98 520 -128
2018-10-11 06:53:44 GMT 47.536911 10.135029 35,000 98 520 0
2018-10-11 06:53:41 GMT 47.537842 10.125521 35,000 97 520 0
2018-10-11 06:53:38 GMT 47.538914 10.114676 35,000 98 520 0
2018-10-11 06:53:35 GMT 47.540222 10.101105 35,000 98 520 0
2018-10-11 06:53:32 GMT 47.541241 10.090802 35,000 98 520 0
2018-10-11 06:53:28 GMT 47.542511 10.077621 35,000 98 520 0
2018-10-11 06:53:25 GMT 47.543335 10.069392 35,000 98 520 0
2018-10-11 06:53:22 GMT 47.544312 10.059181 35,000 98 520 64
2018-10-11 06:53:18 GMT 47.545708 10.045025 35,000 98 520 0
2018-10-11 06:53:15 GMT 47.546722 10.034431 35,000 98 520 0
2018-10-11 06:53:12 GMT 47.547989 10.020940 35,000 98 520 0
2018-10-11 06:53:09 GMT 47.548645 10.014450 35,000 98 520 64
2018-10-11 06:53:06 GMT 47.549835 10.001816 35,000 98 519 0
2018-10-11 06:53:03 GMT 47.550644 9.993192 35,000 98 520 0
2018-10-11 06:53:00 GMT 47.551903 9.980164 35,000 97 520 0
2018-10-11 06:52:57 GMT 47.553158 9.967205 35,000 98 520 -64
2018-10-11 06:52:54 GMT 47.553864 9.959656 35,000 98 520 0
2018-10-11 06:52:51 GMT 47.554878 9.948965 35,000 98 520 -64
2018-10-11 06:52:48 GMT 47.555904 9.938049 35,000 98 520 0
2018-10-11 06:52:42 GMT 47.557800 9.918251 35,000 98 519 0
2018-10-11 06:52:37 GMT 47.559998 9.895386 35,000 98 519 0
2018-10-11 06:52:34 GMT 47.561005 9.884880 35,000 98 519 64
2018-10-11 06:52:30 GMT 47.562000 9.874526 35,000 98 519 0
2018-10-11 06:52:26 GMT 47.563202 9.862083 35,000 98 519 0
2018-10-11 06:52:23 GMT 47.564392 9.849449 35,000 98 519 0
2018-10-11 06:52:19 GMT 47.565994 9.832626 35,000 97 519 0
2018-10-11 06:52:15 GMT 47.567184 9.820335 35,000 97 519 0
2018-10-11 06:52:12 GMT 47.568329 9.808044 35,000 97 518 0
2018-10-11 06:52:09 GMT 47.570244 9.787480 35,000 97 518 0
2018-10-11 06:52:05 GMT 47.570244 9.787480 35,000 97 518 0
2018-10-11 06:52:02 GMT 47.571266 9.776987 35,000 97 518 0
2018-10-11 06:51:59 GMT 47.572151 9.767198 35,000 97 518 0
2018-10-11 06:51:56 GMT 47.573360 9.754521 35,000 97 518 0
2018-10-11 06:51:53 GMT 47.574509 9.742058 35,000 97 517 0
2018-10-11 06:51:50 GMT 47.575176 9.734943 35,000 97 517 0
2018-10-11 06:51:43 GMT 47.577457 9.710717 35,000 97 517 0
2018-10-11 06:51:40 GMT 47.578766 9.696877 35,000 97 517 0
2018-10-11 06:51:37 GMT 47.579315 9.690971 35,000 97 517 0
2018-10-11 06:51:34 GMT 47.580460 9.678680 35,000 97 517 0
2018-10-11 06:51:31 GMT 47.581463 9.667969 35,000 97 517 0
2018-10-11 06:51:28 GMT 47.582394 9.658180 35,000 97 517 0
2018-10-11 06:51:24 GMT 47.584068 9.640292 35,000 97 517 0
2018-10-11 06:51:21 GMT 47.584579 9.634728 35,000 97 517 64
2018-10-11 06:51:18 GMT 47.585697 9.622474 35,000 98 517 0
2018-10-11 06:51:14 GMT 47.586960 9.608986 35,000 97 517 -64
2018-10-11 06:51:11 GMT 47.587933 9.598670 35,000 97 517 0
2018-10-11 06:51:08 GMT 47.588909 9.587614 35,000 97 517 0
2018-10-11 06:51:05 GMT 47.590027 9.575684 35,000 97 517 0
2018-10-11 06:51:01 GMT 47.591400 9.560989 35,000 97 517 0
2018-10-11 06:50:58 GMT 47.592407 9.550140 35,000 97 517 0
2018-10-11 06:50:55 GMT 47.593380 9.539513 35,000 97 517 0
2018-10-11 06:50:52 GMT 47.594078 9.532119 35,000 97 517 64
2018-10-11 06:50:49 GMT 47.595062 9.521095 35,000 97 517 0
2018-10-11 06:50:43 GMT 47.597214 9.497681 35,000 97 517 0
2018-10-11 06:50:39 GMT 47.598450 9.484360 35,000 97 517 -64
2018-10-11 06:50:36 GMT 47.599411 9.473511 35,000 98 517 -64
2018-10-11 06:50:33 GMT 47.600361 9.463172 35,000 97 515 0
2018-10-11 06:50:30 GMT 47.601013 9.456130 35,000 97 517 0
2018-10-11 06:50:27 GMT 47.602318 9.441763 35,000 98 517 0
2018-10-11 06:50:24 GMT 47.602921 9.435143 35,000 97 517 -64
2018-10-11 06:50:21 GMT 47.604218 9.421257 35,000 97 517 0
2018-10-11 06:50:17 GMT 47.605225 9.410408 35,000 97 517 0
2018-10-11 06:50:14 GMT 47.607159 9.389226 35,000 97 517 0
2018-10-11 06:50:08 GMT 47.608063 9.379234 35,000 97 517 0
2018-10-11 06:50:05 GMT 47.609161 9.367355 35,000 98 517 0
2018-10-11 06:50:02 GMT 47.610168 9.356506 35,000 97 517 64
2018-10-11 06:49:59 GMT 47.611301 9.344013 35,000 97 517 0
2018-10-11 06:49:56 GMT 47.612232 9.333520 35,000 97 517 0
2018-10-11 06:49:53 GMT 47.612976 9.325773 35,000 97 518 0
2018-10-11 06:49:50 GMT 47.613876 9.315445 35,000 97 518 0
2018-10-11 06:49:47 GMT 47.614838 9.304939 35,000 97 518 -64
2018-10-11 06:49:44 GMT 47.615955 9.292462 35,000 97 518 0
2018-10-11 06:49:40 GMT 47.616898 9.282074 35,000 97 518 0
2018-10-11 06:49:37 GMT 47.618050 9.268940 35,000 97 517 64
2018-10-11 06:49:34 GMT 47.619278 9.255775 35,000 97 518 0
2018-10-11 06:49:31 GMT 47.620007 9.247178 35,000 97 517 0
2018-10-11 06:49:28 GMT 47.620983 9.236685 35,000 97 518 0
2018-10-11 06:49:25 GMT 47.621964 9.225417 35,000 97 517 0
2018-10-11 06:49:22 GMT 47.622940 9.214571 35,000 97 517 0
2018-10-11 06:49:16 GMT 47.624908 9.192673 35,000 97 517 0
2018-10-11 06:49:13 GMT 47.625366 9.187042 35,000 97 517 0
2018-10-11 06:49:10 GMT 47.626648 9.172691 35,000 97 517 0
2018-10-11 06:49:07 GMT 47.627518 9.162872 35,000 97 517 -64
2018-10-11 06:49:04 GMT 47.629303 9.142891 35,000 97 516 0
2018-10-11 06:49:01 GMT 47.629303 9.142891 35,000 97 514 -64
2018-10-11 06:48:58 GMT 47.630199 9.132597 35,000 97 515 0
2018-10-11 06:48:55 GMT 47.631226 9.121047 35,000 97 515 0
2018-10-11 06:48:52 GMT 47.632156 9.111117 35,000 97 515 0
2018-10-11 06:48:49 GMT 47.633087 9.100412 35,000 97 515 0
2018-10-11 06:48:46 GMT 47.634205 9.087877 35,000 97 515 0
2018-10-11 06:48:43 GMT 47.634995 9.078792 35,000 97 515 0
2018-10-11 06:48:40 GMT 47.635647 9.071467 35,000 97 515 0
2018-10-11 06:48:37 GMT 47.636673 9.060081 35,000 97 516 0
2018-10-11 06:48:34 GMT 47.637909 9.046143 35,000 97 515 64
2018-10-11 06:48:31 GMT 47.639839 9.023930 35,000 97 516 0
2018-10-11 06:48:27 GMT 47.639839 9.023930 35,000 97 516 0
2018-10-11 06:48:24 GMT 47.640747 9.013596 35,000 97 516 -64
2018-10-11 06:48:21 GMT 47.641800 9.001717 35,000 97 516 -64
2018-10-11 06:48:18 GMT 47.642624 8.992241 35,000 97 516 0
2018-10-11 06:48:15 GMT 47.643795 8.978788 35,000 97 515 0
2018-10-11 06:48:12 GMT 47.644402 8.971816 35,000 97 515 0
2018-10-11 06:48:09 GMT 47.645470 8.959210 35,000 97 515 0
2018-10-11 06:48:06 GMT 47.646240 8.950356 35,000 97 515 0
2018-10-11 06:48:03 GMT 47.647430 8.936691 35,000 97 515 0
2018-10-11 06:48:00 GMT 47.648029 8.929913 35,000 97 514 0
2018-10-11 06:47:57 GMT 47.649197 8.916321 35,000 97 514 0
2018-10-11 06:47:54 GMT 47.649986 8.907236 35,000 97 514 0
2018-10-11 06:47:50 GMT 47.651047 8.894806 35,000 97 514 -64
2018-10-11 06:47:47 GMT 47.652969 8.872147 35,000 97 514 64
2018-10-11 06:47:44 GMT 47.652969 8.872147 35,000 97 514 64
2018-10-11 06:47:40 GMT 47.654083 8.859417 35,000 97 514 64
2018-10-11 06:47:37 GMT 47.655121 8.847084 35,000 97 514 0
2018-10-11 06:47:34 GMT 47.656036 8.836459 35,000 97 514 0
2018-10-11 06:47:31 GMT 47.656597 8.829768 35,000 97 514 0
2018-10-11 06:47:28 GMT 47.657574 8.818289 35,000 97 514 0
2018-10-11 06:47:25 GMT 47.658691 8.805199 35,000 97 514 -64
2018-10-11 06:47:22 GMT 47.659561 8.794693 35,000 97 514 0
2018-10-11 06:47:19 GMT 47.660431 8.784256 35,000 97 514 0
2018-10-11 06:47:16 GMT 47.661987 8.766129 35,000 97 514 0
2018-10-11 06:47:13 GMT 47.661987 8.766129 35,000 97 514 0
2018-10-11 06:47:10 GMT 47.663113 8.752653 35,000 97 513 0
2018-10-11 06:47:06 GMT 47.663998 8.742230 35,000 97 513 0
2018-10-11 06:47:03 GMT 47.664917 8.731247 35,000 97 511 0
2018-10-11 06:47:00 GMT 47.665741 8.721153 35,000 97 513 0
2018-10-11 06:46:57 GMT 47.666607 8.710820 35,000 97 512 0
2018-10-11 06:46:54 GMT 47.667618 8.698837 35,000 97 512 0
2018-10-11 06:46:51 GMT 47.668625 8.686272 35,000 97 512 0
2018-10-11 06:46:47 GMT 47.669769 8.673019 35,000 97 512 0
2018-10-11 06:46:44 GMT 47.670319 8.666428 35,000 97 512 0
2018-10-11 06:46:41 GMT 47.671188 8.655991 35,000 97 512 0
2018-10-11 06:46:38 GMT 47.672379 8.641874 35,000 97 512 0
2018-10-11 06:46:35 GMT 47.672981 8.634620 35,000 97 513 0
2018-10-11 06:46:32 GMT 47.673889 8.623650 35,000 97 512 0
2018-10-11 06:46:29 GMT 47.674850 8.612114 35,000 96 511 0
2018-10-11 06:46:26 GMT 47.676056 8.598422 35,000 97 512 0
2018-10-11 06:46:23 GMT 47.676708 8.590745 35,000 97 512 0
2018-10-11 06:46:20 GMT 47.677685 8.579688 35,000 97 512 0
2018-10-11 06:46:17 GMT 47.678570 8.569266 35,000 97 512 0
2018-10-11 06:46:14 GMT 47.679474 8.559036 35,000 97 512 0
2018-10-11 06:46:11 GMT 47.680340 8.548772 35,000 97 511 0
2018-10-11 06:46:08 GMT 47.681084 8.540109 35,000 97 511 0
2018-10-11 06:46:05 GMT 47.682037 8.528069 35,000 97 512 0
2018-10-11 06:46:02 GMT 47.682999 8.517357 35,000 98 510 0
2018-10-11 06:45:59 GMT 47.684052 8.506989 35,000 100 509 0
2018-10-11 06:45:56 GMT 47.685196 8.496620 35,000 100 509 0
2018-10-11 06:45:53 GMT 47.686478 8.486664 35,000 103 507 0
2018-10-11 06:45:50 GMT 47.687649 8.477994 35,000 102 508 64
2018-10-11 06:45:47 GMT 47.691101 8.455833 35,000 103 506 0
2018-10-11 06:45:44 GMT 47.691101 8.455833 35,000 104 505 0
2018-10-11 06:45:40 GMT 47.693558 8.441937 35,000 106 505 -64
2018-10-11 06:45:37 GMT 47.695236 8.433274 35,000 106 504 0
2018-10-11 06:45:34 GMT 47.697098 8.424049 35,000 107 503 0
2018-10-11 06:45:31 GMT 47.699295 8.414017 35,000 109 502 0
2018-10-11 06:45:28 GMT 47.702408 8.400696 35,000 110 502 0
2018-10-11 06:45:25 GMT 47.704010 8.394241 35,000 110 501 0
2018-10-11 06:45:22 GMT 47.706825 8.383484 35,000 112 500 64
2018-10-11 06:45:19 GMT 47.709000 8.375771 35,000 114 499 0
2018-10-11 06:45:16 GMT 47.711853 8.365807 35,000 114 499 -64
2018-10-11 06:45:13 GMT 47.714722 8.356339 35,000 114 499 -64
2018-10-11 06:45:10 GMT 47.718658 8.343567 35,000 114 499 0
2018-10-11 06:45:07 GMT 47.720654 8.337215 35,000 114 499 0
2018-10-11 06:45:04 GMT 47.724285 8.325383 35,000 114 499 0
2018-10-11 06:45:01 GMT 47.726334 8.318904 35,000 114 499 0
2018-10-11 06:44:58 GMT 47.729591 8.308340 35,000 114 499 0
2018-10-11 06:44:55 GMT 47.732197 8.299889 35,000 114 499 64
2018-10-11 06:44:52 GMT 47.735001 8.290764 35,000 114 499 0
2018-10-11 06:44:49 GMT 47.740623 8.272564 35,000 114 500 0
2018-10-11 06:44:46 GMT 47.744064 8.261513 35,000 114 500 0
2018-10-11 06:44:43 GMT 47.744064 8.261513 35,000 114 500 0
2018-10-11 06:44:40 GMT 47.745987 8.255264 35,000 114 500 0
2018-10-11 06:44:37 GMT 47.749142 8.245169 35,000 114 500 0
2018-10-11 06:44:34 GMT 47.752960 8.232704 35,000 114 500 0
2018-10-11 06:44:30 GMT 47.755894 8.223337 35,000 114 500 0
2018-10-11 06:44:27 GMT 47.758942 8.213516 35,000 114 500 0
2018-10-11 06:44:24 GMT 47.761990 8.203688 35,000 114 500 0
2018-10-11 06:44:21 GMT 47.765156 8.193406 35,000 114 500 0
2018-10-11 06:44:15 GMT 47.770557 8.175941 35,000 114 502 64
2018-10-11 06:44:12 GMT 47.773178 8.167374 35,000 114 501 64
2018-10-11 06:44:09 GMT 47.776062 8.157967 35,000 114 501 64
2018-10-11 06:44:06 GMT 47.779400 8.147207 35,000 114 502 0
2018-10-11 06:44:03 GMT 47.782700 8.136406 35,000 114 502 0
2018-10-11 06:44:00 GMT 47.785080 8.128578 35,000 114 502 -64
2018-10-11 06:43:57 GMT 47.788433 8.117770 35,000 114 502 -64
2018-10-11 06:43:54 GMT 47.791412 8.108051 35,000 114 502 -64
2018-10-11 06:43:51 GMT 47.794296 8.098684 35,000 114 502 64
2018-10-11 06:43:48 GMT 47.797184 8.089247 35,000 114 502 64
2018-10-11 06:43:45 GMT 47.799545 8.081612 35,000 114 502 0
2018-10-11 06:43:42 GMT 47.802864 8.070796 35,000 114 503 64
2018-10-11 06:43:39 GMT 47.808243 8.053391 35,000 114 503 64
2018-10-11 06:43:36 GMT 47.808243 8.053391 35,000 114 503 -64
2018-10-11 06:43:33 GMT 47.810684 8.045373 35,000 114 503 -64
2018-10-11 06:43:30 GMT 47.813992 8.034668 35,000 114 503 -64
2018-10-11 06:43:27 GMT 47.816971 8.024949 35,000 114 503 0
2018-10-11 06:43:24 GMT 47.819412 8.016998 35,000 114 503 0
2018-10-11 06:43:21 GMT 47.822937 8.005669 35,000 114 503 0
2018-10-11 06:43:18 GMT 47.824883 7.999244 35,000 114 503 0
2018-10-11 06:43:15 GMT 47.828655 7.986990 35,000 114 503 0
2018-10-11 06:43:12 GMT 47.831909 7.976486 35,000 114 503 0
2018-10-11 06:43:09 GMT 47.833866 7.970088 35,000 114 503 64
2018-10-11 06:43:03 GMT 47.840244 7.949313 35,000 114 503 0
2018-10-11 06:43:00 GMT 47.843319 7.939242 35,000 114 503 -64
2018-10-11 06:42:54 GMT 47.848995 7.920720 35,000 114 503 0
2018-10-11 06:42:51 GMT 47.852280 7.909882 35,000 114 503 -64
2018-10-11 06:42:48 GMT 47.853836 7.904800 35,000 114 503 0
2018-10-11 06:42:45 GMT 47.857773 7.891891 35,000 114 503 0
2018-10-11 06:42:42 GMT 47.860031 7.884521 35,000 114 503 0
2018-10-11 06:42:39 GMT 47.863678 7.872391 35,000 114 502 0
2018-10-11 06:42:35 GMT 47.867249 7.860786 35,000 114 502 0
2018-10-11 06:42:31 GMT 47.870922 7.848675 35,000 114 502 0
2018-10-11 06:42:28 GMT 47.873657 7.839706 35,000 114 502 0
2018-10-11 06:42:25 GMT 47.877068 7.828533 35,000 114 502 0
2018-10-11 06:42:22 GMT 47.879425 7.820824 35,000 114 499 64
2018-10-11 06:42:19 GMT 47.881531 7.813889 35,000 114 502 0
2018-10-11 06:42:16 GMT 47.884422 7.804307 35,000 114 502 0
2018-10-11 06:42:13 GMT 47.891499 7.781067 35,000 114 502 0
2018-10-11 06:42:09 GMT 47.891499 7.781067 35,000 114 502 0
2018-10-11 06:42:06 GMT 47.895493 7.768021 35,000 114 502 64
2018-10-11 06:42:02 GMT 47.898483 7.758108 35,000 114 502 0
2018-10-11 06:41:59 GMT 47.904053 7.739731 35,000 114 502 0
2018-10-11 06:41:53 GMT 47.907074 7.729637 35,000 114 502 0
2018-10-11 06:41:49 GMT 47.914581 7.704849 35,000 114 501 -64
2018-10-11 06:41:46 GMT 47.914581 7.704849 35,000 114 500 64
2018-10-11 06:41:43 GMT 47.916546 7.698388 35,000 114 501 -64
2018-10-11 06:41:40 GMT 47.919758 7.687683 35,000 114 500 -64
2018-10-11 06:41:37 GMT 47.921757 7.681134 35,000 114 500 -64
2018-10-11 06:41:34 GMT 47.925888 7.667496 35,000 114 500 0
2018-10-11 06:41:31 GMT 47.927765 7.661344 35,000 114 500 0
2018-10-11 06:41:27 GMT 47.932663 7.645248 35,000 114 499 0
2018-10-11 06:41:24 GMT 47.934700 7.638526 35,000 114 499 0
2018-10-11 06:41:21 GMT 47.937286 7.629868 35,000 114 499 0
2018-10-11 06:41:17 GMT 47.941727 7.615173 35,000 114 499 0
2018-10-11 06:41:14 GMT 47.943649 7.608925 35,000 114 499 0
2018-10-11 06:41:10 GMT 47.947495 7.596085 35,000 114 499 64
2018-10-11 06:41:06 GMT 47.951202 7.583862 35,000 114 499 0
2018-10-11 06:41:03 GMT 47.954865 7.571640 35,000 114 499 0
2018-10-11 06:41:00 GMT 47.956814 7.565214 35,000 114 499 0
2018-10-11 06:40:57 GMT 47.960175 7.554131 35,000 114 498 0
2018-10-11 06:40:54 GMT 47.963013 7.544724 35,000 114 498 0
2018-10-11 06:40:51 GMT 47.965576 7.536278 35,000 114 498 0
2018-10-11 06:40:48 GMT 47.968460 7.526596 35,000 113 499 -64
2018-10-11 06:40:45 GMT 47.971115 7.517807 35,000 114 498 0
2018-10-11 06:40:42 GMT 47.973896 7.508592 35,000 114 498 0
2018-10-11 06:40:39 GMT 47.976974 7.498375 35,000 114 498 -64
2018-10-11 06:40:35 GMT 47.980228 7.487605 35,000 114 498 -64
2018-10-11 06:40:32 GMT 47.983383 7.477089 35,000 113 499 0
2018-10-11 06:40:29 GMT 47.986141 7.467886 35,000 114 498 0
2018-10-11 06:40:26 GMT 47.989075 7.458167 35,000 113 499 0
2018-10-11 06:40:23 GMT 47.991772 7.449083 35,000 113 499 0
2018-10-11 06:40:20 GMT 47.994427 7.440279 35,000 113 499 0
2018-10-11 06:40:17 GMT 47.998215 7.427582 35,000 113 499 0
2018-10-11 06:40:14 GMT 48.001007 7.418175 35,000 113 499 0
2018-10-11 06:40:10 GMT 48.004990 7.404991 35,000 113 499 0
2018-10-11 06:40:06 GMT 48.007965 7.394897 35,000 113 499 0
2018-10-11 06:40:03 GMT 48.011353 7.383636 35,000 113 499 0
2018-10-11 06:40:00 GMT 48.013687 7.375809 35,000 113 499 0
2018-10-11 06:39:57 GMT 48.015747 7.368874 35,000 113 499 0
2018-10-11 06:39:54 GMT 48.018768 7.358849 35,000 113 499 0
2018-10-11 06:39:51 GMT 48.022449 7.346403 35,000 113 499 0
2018-10-11 06:39:47 GMT 48.026184 7.333992 35,000 113 499 0
2018-10-11 06:39:44 GMT 48.028610 7.325821 35,000 113 499 0
2018-10-11 06:39:41 GMT 48.031769 7.315178 35,000 113 499 0
2018-10-11 06:39:38 GMT 48.033646 7.308861 35,000 113 499 0
2018-10-11 06:39:35 GMT 48.036510 7.299288 35,000 113 499 0
2018-10-11 06:39:32 GMT 48.040234 7.286753 35,000 113 499 0
2018-10-11 06:39:28 GMT 48.043911 7.274499 35,000 113 499 0
2018-10-11 06:39:24 GMT 48.047104 7.263680 35,000 113 497 0
2018-10-11 06:39:21 GMT 48.049870 7.254427 35,000 113 497 0
2018-10-11 06:39:18 GMT 48.053375 7.242668 35,000 113 497 0
2018-10-11 06:39:13 GMT 48.058685 7.224815 35,000 113 497 0
2018-10-11 06:39:07 GMT 48.062763 7.211186 35,000 113 497 0
2018-10-11 06:39:04 GMT 48.066055 7.200027 35,000 113 497 0
2018-10-11 06:39:01 GMT 48.069794 7.187383 35,000 113 496 0
2018-10-11 06:38:58 GMT 48.072495 7.178298 35,000 113 496 0
2018-10-11 06:38:51 GMT 48.078598 7.157799 35,000 113 496 0
2018-10-11 06:38:48 GMT 48.083679 7.140564 35,000 113 496 0
2018-10-11 06:38:42 GMT 48.086227 7.131958 35,000 113 496 0
2018-10-11 06:38:38 GMT 48.090179 7.118660 35,000 113 496 0
2018-10-11 06:38:35 GMT 48.092930 7.109422 35,000 113 496 0
2018-10-11 06:38:31 GMT 48.099216 7.088154 35,000 113 496 0
2018-10-11 06:38:25 GMT 48.102219 7.077942 35,000 113 497 0
2018-10-11 06:38:20 GMT 48.109680 7.052536 35,000 113 497 0
2018-10-11 06:38:17 GMT 48.109680 7.052536 35,000 113 496 0
2018-10-11 06:38:14 GMT 48.112297 7.043645 35,000 113 496 0
2018-10-11 06:38:11 GMT 48.114944 7.034683 35,000 113 496 0
2018-10-11 06:38:08 GMT 48.117744 7.025123 35,000 113 492 0
2018-10-11 06:38:05 GMT 48.121445 7.012436 35,000 113 495 0
2018-10-11 06:38:00 GMT 48.125282 6.999418 35,000 113 495 0
2018-10-11 06:37:56 GMT 48.129272 6.985794 35,000 113 495 0
2018-10-11 06:37:53 GMT 48.131149 6.979417 35,000 113 494 0
2018-10-11 06:37:50 GMT 48.134399 6.968285 35,000 113 494 0
2018-10-11 06:37:47 GMT 48.136925 6.959698 35,000 113 494 0
2018-10-11 06:37:44 GMT 48.139668 6.950331 35,000 113 494 0
2018-10-11 06:37:40 GMT 48.146072 6.928596 35,000 113 494 0
2018-10-11 06:37:37 GMT 48.146072 6.928596 35,000 113 493 0
2018-10-11 06:37:34 GMT 48.148819 6.919258 35,000 113 493 0
2018-10-11 06:37:30 GMT 48.153397 6.903671 35,000 113 493 0
2018-10-11 06:37:26 GMT 48.156235 6.893990 35,000 113 493 0
2018-10-11 06:37:23 GMT 48.161636 6.875610 35,000 113 492 0
2018-10-11 06:37:20 GMT 48.161636 6.875610 35,000 113 492 0
2018-10-11 06:37:17 GMT 48.165207 6.863427 35,000 113 492 0
2018-10-11 06:37:14 GMT 48.167881 6.854240 35,000 113 492 0
2018-10-11 06:37:11 GMT 48.170792 6.844412 35,000 113 492 0
2018-10-11 06:37:08 GMT 48.172623 6.838215 35,000 113 492 0
2018-10-11 06:37:05 GMT 48.175323 6.828848 35,000 113 492 0
2018-10-11 06:37:02 GMT 48.178120 6.819402 35,000 113 491 0
2018-10-11 06:36:59 GMT 48.181366 6.808354 35,000 113 492 0
2018-10-11 06:36:55 GMT 48.184128 6.798802 35,000 113 492 0
2018-10-11 06:36:52 GMT 48.187851 6.786081 35,000 113 492 0
2018-10-11 06:36:49 GMT 48.189560 6.780325 35,000 113 491 0
2018-10-11 06:36:46 GMT 48.193085 6.768212 35,000 113 491 0
2018-10-11 06:36:42 GMT 48.195950 6.758399 35,000 113 491 0
2018-10-11 06:36:39 GMT 48.199631 6.745817 35,000 113 491 0
2018-10-11 06:36:36 GMT 48.202423 6.736168 35,000 113 490 0
2018-10-11 06:36:33 GMT 48.205215 6.726669 35,000 113 490 0
2018-10-11 06:36:28 GMT 48.209637 6.711418 35,000 113 490 0
2018-10-11 06:36:23 GMT 48.214325 6.695392 35,000 113 490 0
2018-10-11 06:36:20 GMT 48.216568 6.687575 35,000 113 491 0
2018-10-11 06:36:17 GMT 48.218674 6.680392 35,000 113 491 0
2018-10-11 06:36:14 GMT 48.221321 6.671231 35,000 113 490 0
2018-10-11 06:36:11 GMT 48.224113 6.661618 35,000 113 490 0
2018-10-11 06:36:08 GMT 48.228165 6.647596 35,000 113 490 0
2018-10-11 06:36:05 GMT 48.230301 6.640249 35,000 113 490 0
2018-10-11 06:36:01 GMT 48.233334 6.629815 35,000 113 490 0
2018-10-11 06:35:57 GMT 48.237396 6.615671 35,000 113 489 0
2018-10-11 06:35:53 GMT 48.240223 6.605891 35,000 113 490 0
2018-10-11 06:35:49 GMT 48.245018 6.589412 35,000 113 489 0
2018-10-11 06:35:46 GMT 48.246880 6.582834 35,000 113 490 0
2018-10-11 06:35:42 GMT 48.253510 6.559965 35,000 113 490 0
2018-10-11 06:35:36 GMT 48.256210 6.550669 35,000 113 490 0
2018-10-11 06:35:33 GMT 48.258842 6.541491 35,000 113 489 0
2018-10-11 06:35:29 GMT 48.262428 6.529059 35,000 113 490 0
2018-10-11 06:35:26 GMT 48.266010 6.516627 35,000 113 489 0
2018-10-11 06:35:23 GMT 48.267792 6.510526 35,000 113 489 0
2018-10-11 06:35:19 GMT 48.271454 6.497779 35,000 113 489 0
2018-10-11 06:35:15 GMT 48.274532 6.487065 35,000 113 489 0
2018-10-11 06:35:12 GMT 48.276859 6.479042 35,000 113 489 0
2018-10-11 06:35:09 GMT 48.281189 6.464081 35,000 113 489 0
2018-10-11 06:35:06 GMT 48.282898 6.458059 35,000 113 489 0
2018-10-11 06:35:02 GMT 48.287567 6.441862 35,000 113 489 0
2018-10-11 06:34:57 GMT 48.290359 6.432284 35,000 113 488 0
2018-10-11 06:34:54 GMT 48.293430 6.421509 35,000 113 488 0
2018-10-11 06:34:51 GMT 48.297016 6.409149 35,000 113 488 0
2018-10-11 06:34:48 GMT 48.299698 6.399607 35,000 113 488 0
2018-10-11 06:34:45 GMT 48.301533 6.393248 35,000 113 488 0
2018-10-11 06:34:42 GMT 48.305023 6.381177 35,000 113 488 0
2018-10-11 06:34:38 GMT 48.307491 6.372432 35,000 113 488 0
2018-10-11 06:34:35 GMT 48.311279 6.359253 35,000 113 488 0
2018-10-11 06:34:30 GMT 48.314892 6.346628 35,000 113 488 0
2018-10-11 06:34:26 GMT 48.318523 6.333907 35,000 113 488 0
2018-10-11 06:34:23 GMT 48.322105 6.321475 35,000 113 488 0
2018-10-11 06:34:20 GMT 48.324738 6.312350 35,000 113 487 0
2018-10-11 06:34:17 GMT 48.326385 6.306434 35,000 113 487 0
2018-10-11 06:34:14 GMT 48.329681 6.294955 35,000 113 487 0
2018-10-11 06:34:11 GMT 48.331924 6.287138 35,000 113 487 0
2018-10-11 06:34:07 GMT 48.335327 6.275217 35,000 113 487 0
2018-10-11 06:34:03 GMT 48.338928 6.262630 35,000 113 487 0
2018-10-11 06:34:00 GMT 48.341583 6.253333 35,000 113 487 0
2018-10-11 06:33:57 GMT 48.344128 6.244499 35,000 113 487 0
2018-10-11 06:33:52 GMT 48.348450 6.229459 35,000 113 487 0
2018-10-11 06:33:48 GMT 48.352039 6.216888 35,000 113 487 0
2018-10-11 06:33:44 GMT 48.355766 6.203878 35,000 113 487 0
2018-10-11 06:33:41 GMT 48.358612 6.193754 35,000 113 487 0
2018-10-11 06:33:38 GMT 48.360489 6.187204 35,000 113 487 0
2018-10-11 06:33:34 GMT 48.364975 6.171359 35,000 113 487 0
2018-10-11 06:33:31 GMT 48.366890 6.164703 35,000 113 487 0
2018-10-11 06:33:28 GMT 48.369637 6.155090 35,000 113 487 0
2018-10-11 06:33:25 GMT 48.372208 6.145935 35,000 113 487 0
2018-10-11 06:33:22 GMT 48.374771 6.136921 35,000 113 487 0
2018-10-11 06:33:19 GMT 48.378437 6.124011 35,000 113 487 0
2018-10-11 06:33:15 GMT 48.380997 6.115048 35,000 112 487 0
2018-10-11 06:33:11 GMT 48.385509 6.099219 35,000 113 487 0
2018-10-11 06:33:08 GMT 48.390381 6.081989 35,000 113 487 0
2018-10-11 06:33:05 GMT 48.390381 6.081989 35,000 113 487 0
2018-10-11 06:33:00 GMT 48.394218 6.068501 35,000 113 487 0
2018-10-11 06:32:57 GMT 48.397156 6.058115 35,000 112 486 0
2018-10-11 06:32:54 GMT 48.399475 6.049853 35,000 112 486 0
2018-10-11 06:32:50 GMT 48.403202 6.036770 35,000 112 486 0
2018-10-11 06:32:47 GMT 48.405579 6.028255 35,000 112 487 0
2018-10-11 06:32:44 GMT 48.408325 6.018606 35,000 112 487 0
2018-10-11 06:32:40 GMT 48.413258 6.000993 35,000 113 487 0
2018-10-11 06:32:34 GMT 48.417679 5.985453 35,000 113 487 0
2018-10-11 06:32:31 GMT 48.420959 5.973745 35,000 112 487 0
2018-10-11 06:32:27 GMT 48.423733 5.963986 35,000 112 487 0
2018-10-11 06:32:24 GMT 48.426407 5.954449 35,000 112 487 0
2018-10-11 06:32:21 GMT 48.429970 5.941869 35,000 112 487 0
2018-10-11 06:32:18 GMT 48.432762 5.931894 35,000 112 487 0
2018-10-11 06:32:13 GMT 48.435787 5.921269 35,000 112 487 0
2018-10-11 06:32:10 GMT 48.439606 5.907609 35,000 112 487 0
2018-10-11 06:32:05 GMT 48.442474 5.897475 35,000 112 487 0
2018-10-11 06:32:02 GMT 48.445053 5.888310 35,000 112 487 0
2018-10-11 06:31:58 GMT 48.449242 5.873349 35,000 112 487 0
2018-10-11 06:31:54 GMT 48.451942 5.863664 35,000 112 487 0
2018-10-11 06:31:48 GMT 48.457947 5.842332 35,000 112 487 0
2018-10-11 06:31:45 GMT 48.460419 5.833599 35,000 112 487 -64
2018-10-11 06:31:42 GMT 48.463120 5.823881 35,000 112 487 0
2018-10-11 06:31:38 GMT 48.466743 5.810973 35,000 112 487 0
2018-10-11 06:31:33 GMT 48.470398 5.798035 35,000 112 488 0
2018-10-11 06:31:30 GMT 48.473217 5.787843 35,000 112 488 0
2018-10-11 06:31:27 GMT 48.476753 5.775339 35,000 112 488 0
2018-10-11 06:31:23 GMT 48.479553 5.765217 35,000 112 489 0
2018-10-11 06:31:19 GMT 48.487831 5.735586 35,000 112 489 0
2018-10-11 06:31:14 GMT 48.487831 5.735586 35,000 112 489 0
2018-10-11 06:31:11 GMT 48.490208 5.727129 35,000 112 491 0
2018-10-11 06:31:05 GMT 48.495300 5.708736 35,000 112 490 0
2018-10-11 06:31:01 GMT 48.498913 5.695688 35,000 112 490 0
2018-10-11 06:30:58 GMT 48.501472 5.686581 35,000 112 491 0
2018-10-11 06:30:55 GMT 48.504082 5.677113 35,000 112 491 0
2018-10-11 06:30:51 GMT 48.507526 5.664898 35,000 112 490 0
2018-10-11 06:30:48 GMT 48.510132 5.655565 35,000 112 491 0
2018-10-11 06:30:45 GMT 48.512878 5.645672 35,000 112 491 0
2018-10-11 06:30:42 GMT 48.515625 5.635705 35,000 112 490 0
2018-10-11 06:30:38 GMT 48.518784 5.624437 35,000 112 491 0
2018-10-11 06:30:34 GMT 48.522217 5.612112 35,000 112 491 0
2018-10-11 06:30:29 GMT 48.526657 5.596233 35,000 112 491 0
2018-10-11 06:30:24 GMT 48.530941 5.580838 35,000 112 490 0
2018-10-11 06:30:21 GMT 48.534340 5.568551 35,000 112 490 0
2018-10-11 06:30:15 GMT 48.538807 5.552432 35,000 112 490 0
2018-10-11 06:30:12 GMT 48.541416 5.543036 35,000 112 490 0
2018-10-11 06:30:09 GMT 48.544209 5.532917 35,025 112 490 0
2018-10-11 06:30:06 GMT 48.547375 5.521570 35,000 112 490 0
2018-10-11 06:30:03 GMT 48.550278 5.511052 35,000 112 490 0
2018-10-11 06:30:00 GMT 48.552933 5.501545 35,000 112 490 0
2018-10-11 06:29:56 GMT 48.555634 5.491826 35,000 112 490 0
2018-10-11 06:29:50 GMT 48.560734 5.473360 35,000 112 490 -64
2018-10-11 06:29:47 GMT 48.563278 5.464078 35,000 112 490 0
2018-10-11 06:29:44 GMT 48.566040 5.454134 35,000 112 490 0
2018-10-11 06:29:40 GMT 48.570183 5.438955 35,000 112 490 0
2018-10-11 06:29:37 GMT 48.572186 5.431727 35,000 112 490 0
2018-10-11 06:29:33 GMT 48.575306 5.420380 35,000 112 490 0
2018-10-11 06:29:29 GMT 48.578934 5.407316 35,000 112 489 0
2018-10-11 06:29:26 GMT 48.582520 5.394215 35,000 112 490 0
2018-10-11 06:29:23 GMT 48.587967 5.374338 35,000 112 490 0
2018-10-11 06:29:19 GMT 48.587967 5.374338 35,000 112 490 0
2018-10-11 06:29:16 GMT 48.590668 5.364581 35,000 112 490 0
2018-10-11 06:29:13 GMT 48.593460 5.354462 35,000 112 490 0
2018-10-11 06:29:10 GMT 48.596485 5.343475 35,000 112 490 0
2018-10-11 06:29:07 GMT 48.598572 5.335693 35,000 112 490 0
2018-10-11 06:29:04 GMT 48.603790 5.316819 35,000 112 490 0
2018-10-11 06:28:57 GMT 48.608093 5.301044 35,000 112 489 0
2018-10-11 06:28:53 GMT 48.610794 5.291255 35,000 112 490 0
2018-10-11 06:28:47 GMT 48.615875 5.272663 35,000 112 486 768
2018-10-11 06:28:44 GMT 48.618412 5.263391 35,000 112 489 0
2018-10-11 06:28:38 GMT 48.623581 5.244454 35,000 112 489 128
2018-10-11 06:28:33 GMT 48.627163 5.231227 35,000 112 478 1280
2018-10-11 06:28:27 GMT 48.633217 5.209110 35,000 112 488 -64
2018-10-11 06:28:24 GMT 48.635284 5.201393 34,700 112 478 1280
2018-10-11 06:28:16 GMT 48.643021 5.173011 35,000 112 487 896
2018-10-11 06:28:13 GMT 48.644623 5.167188 34,900 112 490 832
2018-10-11 06:28:05 GMT 48.652496 5.138221 34,900 112 489 1088
2018-10-11 06:27:55 GMT 48.660400 5.109365 34,675 112 479 768
2018-10-11 06:27:51 GMT 48.663849 5.096789 34,650 112 486 768
2018-10-11 06:27:46 GMT 48.668243 5.080613 34,550 112 479 832
2018-10-11 06:27:43 GMT 48.670597 5.071997 34,500 111 478 768
2018-10-11 06:27:36 GMT 48.676712 5.049697 34,450 112 478 1280
2018-10-11 06:27:33 GMT 48.679962 5.037865 34,375 112 479 768
2018-10-11 06:27:27 GMT 48.689266 5.003622 34,425 112 478 1280
2018-10-11 06:27:22 GMT 48.689266 5.003622 34,250 112 478 1216
2018-10-11 06:27:15 GMT 48.694565 4.983990 34,125 111 459 1728
2018-10-11 06:27:11 GMT 48.697174 4.974412 33,875 111 459 1728
2018-10-11 06:27:04 GMT 48.703369 4.951798 33,725 112 476 1536
2018-10-11 06:27:01 GMT 48.706303 4.941029 33,450 112 476 1792
2018-10-11 06:26:51 GMT 48.714962 4.909009 33,525 112 476 1600
2018-10-11 06:26:42 GMT 48.724228 4.874822 33,225 112 476 1856
2018-10-11 06:26:26 GMT 48.737446 4.825817 32,675 112 478 2240
2018-10-11 06:26:19 GMT 48.741264 4.811578 32,425 112 480 2176
2018-10-11 06:26:13 GMT 48.746384 4.792713 32,275 112 480 2240
2018-10-11 06:26:10 GMT 48.748108 4.786208 32,075 112 478 1216
2018-10-11 06:26:07 GMT 48.750504 4.777292 32,050 112 473 1216
2018-10-11 06:26:00 GMT 48.756348 4.755418 31,975 112 473 1216
2018-10-11 06:25:57 GMT 48.758926 4.745953 31,575 112 476 1152
2018-10-11 06:25:53 GMT 48.763184 4.730107 31,725 112 473 1216
2018-10-11 06:25:49 GMT 48.766479 4.717783 31,600 112 476 1152
2018-10-11 06:25:46 GMT 48.768082 4.711867 31,600 112 475 1152
2018-10-11 06:25:39 GMT 48.773991 4.689933 31,425 112 473 1344
2018-10-11 06:25:36 GMT 48.776733 4.679612 31,400 112 472 1408
2018-10-11 06:25:31 GMT 48.782089 4.659576 31,250 111 471 1536
2018-10-11 06:25:26 GMT 48.786095 4.644542 31,100 111 470 1600
2018-10-11 06:25:21 GMT 48.789165 4.632978 31,025 111 458 1856
2018-10-11 06:25:14 GMT 48.794449 4.612990 30,650 111 463 1856
2018-10-11 06:25:09 GMT 48.798203 4.598694 30,650 111 467 1344
2018-10-11 06:25:05 GMT 48.801689 4.585491 30,500 111 464 1792
2018-10-11 06:25:01 GMT 48.804840 4.573552 30,425 111 464 1792
2018-10-11 06:24:55 GMT 48.809921 4.554185 29,900 111 463 1856
2018-10-11 06:24:52 GMT 48.812256 4.545304 29,125 111 459 1728
2018-10-11 06:24:49 GMT 48.814537 4.536558 30,200 111 463 1856
2018-10-11 06:24:43 GMT 48.819286 4.518127 29,125 111 459 1728
2018-10-11 06:24:39 GMT 48.822403 4.506057 29,900 111 461 1600
2018-10-11 06:24:34 GMT 48.825848 4.492541 29,400 111 459 1728
2018-10-11 06:24:31 GMT 48.828598 4.481858 29,675 111 458 1920
2018-10-11 06:24:25 GMT 48.833817 4.461506 29,250 111 457 1984
2018-10-11 06:24:20 GMT 48.837719 4.446066 29,350 110 458 1984
2018-10-11 06:24:16 GMT 48.840134 4.436646 27,600 110 446 2048
2018-10-11 06:24:12 GMT 48.846909 4.409743 29,025 110 455 1344
2018-10-11 06:24:07 GMT 48.846909 4.409743 28,975 110 455 1216
2018-10-11 06:23:59 GMT 48.852524 4.387665 25,600 114 440 2048
2018-10-11 06:23:54 GMT 48.856247 4.372920 28,750 110 449 1280
2018-10-11 06:23:51 GMT 48.858490 4.363967 25,600 114 440 2048
2018-10-11 06:23:44 GMT 48.863743 4.342997 28,525 110 447 1984
2018-10-11 06:23:41 GMT 48.866024 4.333962 27,900 110 443 1984
2018-10-11 06:23:38 GMT 48.868073 4.325794 28,100 111 445 2176
2018-10-11 06:23:33 GMT 48.871948 4.311148 28,025 113 441 1856
2018-10-11 06:23:30 GMT 48.874420 4.302274 27,975 113 441 1856
2018-10-11 06:23:27 GMT 48.876755 4.294387 27,925 95 447 2112
2018-10-11 06:23:20 GMT 48.883060 4.274477 27,675 115 439 1920
2018-10-11 06:23:16 GMT 48.887066 4.261033 27,500 113 441 2048
2018-10-11 06:23:11 GMT 48.890045 4.250119 27,175 104 447 2048
2018-10-11 06:23:06 GMT 48.893600 4.235441 27,025 106 445 2048
2018-10-11 06:23:02 GMT 48.896255 4.222976 26,525 103 446 1984
2018-10-11 06:22:59 GMT 48.900238 4.200651 25,600 96 452 2048
2018-10-11 06:22:55 GMT 48.900238 4.200651 26,675 102 448 1984
2018-10-11 06:22:52 GMT 48.902615 4.182972 26,725 95 439 1792
2018-10-11 06:22:46 GMT 48.903778 4.171697 26,525 96 452 2048
2018-10-11 06:22:41 GMT 48.904724 4.159311 26,325 95 451 1920
2018-10-11 06:22:38 GMT 48.905315 4.149941 26,125 94 431 2560
2018-10-11 06:22:33 GMT 48.906197 4.134112 26,125 95 451 1920
2018-10-11 06:22:28 GMT 48.907150 4.118183 25,850 94 449 1984
2018-10-11 06:22:24 GMT 48.908020 4.102478 25,800 94 449 1984
2018-10-11 06:22:18 GMT 48.910263 4.064941 24,725 95 444 2176
2018-10-11 06:22:11 GMT 48.910263 4.064941 25,375 95 446 2240
2018-10-11 06:22:07 GMT 48.911041 4.052004 25,250 95 445 2304
2018-10-11 06:22:03 GMT 48.911865 4.038462 25,025 95 444 2304
2018-10-11 06:21:57 GMT 48.912994 4.019334 24,875 95 443 2112
2018-10-11 06:21:53 GMT 48.914673 3.990567 24,500 95 440 1728
2018-10-11 06:21:48 GMT 48.914673 3.990567 24,500 95 440 1728
2018-10-11 06:21:45 GMT 48.915184 3.982616 19,675 94 431 2560
2018-10-11 06:21:42 GMT 48.915710 3.973248 24,300 95 437 1984
2018-10-11 06:21:37 GMT 48.916626 3.957332 24,125 94 436 2176
2018-10-11 06:21:32 GMT 48.917496 3.942120 23,850 94 434 2304
2018-10-11 06:21:28 GMT 48.919048 3.914674 23,450 94 429 2304
2018-10-11 06:21:18 GMT 48.919830 3.900287 23,325 94 432 2560
2018-10-11 06:21:15 GMT 48.920334 3.891202 23,325 94 432 2560
2018-10-11 06:21:11 GMT 48.921143 3.875644 23,075 94 432 2752
2018-10-11 06:21:07 GMT 48.921570 3.868244 22,875 94 432 2752
2018-10-11 06:20:59 GMT 48.922863 3.843336 22,600 94 430 2304
2018-10-11 06:20:56 GMT 48.923374 3.833650 22,475 94 430 2304
2018-10-11 06:20:45 GMT 48.925003 3.802326 22,075 94 427 2560
2018-10-11 06:20:38 GMT 48.926147 3.780565 21,575 94 427 2944
2018-10-11 06:20:34 GMT 48.926727 3.768744 21,575 94 427 3008
2018-10-11 06:20:29 GMT 48.927521 3.752183 21,275 94 427 2880
2018-10-11 06:20:25 GMT 48.927979 3.742042 21,000 94 425 2752
2018-10-11 06:20:22 GMT 48.928452 3.732966 20,950 94 426 2816
2018-10-11 06:20:19 GMT 48.929565 3.708825 20,450 94 425 2688
2018-10-11 06:20:14 GMT 48.929565 3.708825 20,600 93 421 2752
2018-10-11 06:20:07 GMT 48.930496 3.688801 20,075 93 422 2816
2018-10-11 06:20:04 GMT 48.930908 3.679575 20,125 93 422 2816
2018-10-11 06:19:58 GMT 48.931850 3.659025 19,750 93 421 2752
2018-10-11 06:19:54 GMT 48.932220 3.649918 19,650 93 420 2752
2018-10-11 06:19:46 GMT 48.933247 3.627223 19,075 94 418 2688
2018-10-11 06:19:43 GMT 48.933655 3.618587 19,175 94 418 2688
2018-10-11 06:19:36 GMT 48.934734 3.596794 18,475 96 412 2688
2018-10-11 06:19:33 GMT 48.935432 3.584579 18,650 95 415 2752
2018-10-11 06:19:25 GMT 48.936970 3.564124 18,325 97 412 2688
2018-10-11 06:19:21 GMT 48.937714 3.554655 18,175 97 411 2624
2018-10-11 06:19:15 GMT 48.939285 3.535696 17,725 97 408 2752
2018-10-11 06:19:12 GMT 48.939972 3.527175 17,725 97 408 2752
2018-10-11 06:19:05 GMT 48.941666 3.506188 16,700 97 404 3008
2018-10-11 06:18:59 GMT 48.943020 3.489677 16,875 97 404 2944
2018-10-11 06:18:54 GMT 48.944183 3.475976 16,800 97 401 2624
2018-10-11 06:18:51 GMT 48.944778 3.468722 16,800 97 401 2624
2018-10-11 06:18:42 GMT 48.947205 3.439707 16,275 97 396 2624
2018-10-11 06:18:31 GMT 48.949444 3.412339 15,850 97 391 2752
2018-10-11 06:18:21 GMT 48.951775 3.383717 15,425 96 389 3136
2018-10-11 06:18:12 GMT 48.953613 3.360830 14,850 96 386 3328
2018-10-11 06:18:08 GMT 48.954346 3.351464 14,650 96 386 3328
2018-10-11 06:18:02 GMT 48.955822 3.332760 14,275 96 384 3200
2018-10-11 06:17:59 GMT 48.956333 3.326328 14,150 96 384 3200
2018-10-11 06:17:52 GMT 48.957684 3.308403 13,650 96 379 3456
2018-10-11 06:17:49 GMT 48.958649 3.295969 13,700 96 381 3392
2018-10-11 06:17:46 GMT 48.959015 3.291180 13,425 96 378 3456
2018-10-11 06:17:39 GMT 48.960430 3.272263 13,100 96 378 3456
2018-10-11 06:17:34 GMT 48.961533 3.257939 12,725 96 354 1472
2018-10-11 06:17:28 GMT 48.962631 3.243432 12,525 96 376 3328
2018-10-11 06:17:23 GMT 48.963638 3.230121 12,150 96 365 1984
2018-10-11 06:17:20 GMT 48.964371 3.220755 11,975 96 371 2752
2018-10-11 06:17:15 GMT 48.965057 3.211459 11,825 96 365 1984
2018-10-11 06:17:09 GMT 48.967041 3.184806 11,425 96 335 1344
2018-10-11 06:17:06 GMT 48.967041 3.184806 11,500 96 349 1408
2018-10-11 06:16:58 GMT 48.968307 3.168006 11,325 96 351 1408
2018-10-11 06:16:55 GMT 48.968952 3.159075 11,250 96 340 1344
2018-10-11 06:16:47 GMT 48.970367 3.140752 11,075 96 332 1280
2018-10-11 06:16:38 GMT 48.972908 3.108264 10,775 96 320 1216
2018-10-11 06:16:27 GMT 48.974026 3.094458 10,600 97 310 1216
2018-10-11 06:16:14 GMT 48.976353 3.067282 10,225 98 294 2496
2018-10-11 06:16:05 GMT 48.978027 3.048706 10,025 97 295 2496
2018-10-11 06:15:55 GMT 48.979984 3.028179 9,625 98 293 2496
2018-10-11 06:15:44 GMT 48.984406 2.987558 7,675 101 288 2560
2018-10-11 06:15:35 GMT 48.984406 2.987558 8,750 100 288 2560
2018-10-11 06:15:32 GMT 48.985107 2.982366 8,325 101 287 2432
2018-10-11 06:15:24 GMT 48.987350 2.966168 8,075 102 279 2496
2018-10-11 06:15:13 GMT 48.990410 2.945565 7,325 102 279 2560
2018-10-11 06:15:08 GMT 48.991901 2.935373 7,675 102 279 2560
2018-10-11 06:15:03 GMT 48.994087 2.920484 7,075 102 275 2624
2018-10-11 06:14:54 GMT 48.996555 2.903571 6,725 102 275 2624
2018-10-11 06:14:43 GMT 48.998745 2.888248 6,375 102 274 2624
2018-10-11 06:14:40 GMT 48.999619 2.882151 6,500 102 273 2624
2018-10-11 06:14:32 GMT 49.001816 2.866939 6,150 102 271 2496
2018-10-11 06:14:21 GMT 49.004890 2.846399 5,725 101 269 2432
2018-10-11 06:14:12 GMT 49.006985 2.828112 5,150 95 268 2368
2018-10-11 06:14:09 GMT 49.007263 2.824472 5,200 95 268 2368
2018-10-11 06:14:02 GMT 49.008087 2.809472 4,875 91 266 2112
2018-10-11 06:13:59 GMT 49.008194 2.805778 4,825 91 266 2112
2018-10-11 06:13:51 GMT 49.008148 2.789949 4,525 85 253 1216
2018-10-11 06:13:39 GMT 49.007030 2.768555 4,350 84 245 1152
2018-10-11 06:13:28 GMT 49.005432 2.742638 4,200 84 231 832
2018-10-11 06:13:19 GMT 49.004974 2.734891 4,025 84 217 1088
2018-10-11 06:13:12 GMT 49.004421 2.725115 3,900 85 210 1152
2018-10-11 06:13:08 GMT 49.004150 2.719961 3,850 85 204 1920
2018-10-11 06:12:59 GMT 49.003418 2.706581 3,500 84 202 2304
2018-10-11 06:12:48 GMT 49.002514 2.691072 3,075 84 201 2240
2018-10-11 06:12:41 GMT 49.001999 2.682284 2,850 85 200 2240
2018-10-11 06:12:37 GMT 49.001633 2.675805 2,675 85 199 2240
2018-10-11 06:12:28 GMT 49.001026 2.661510 2,300 86 190 2304
2018-10-11 06:12:16 GMT 49.000607 2.647199 2,000 86 192 2176
2018-10-11 06:12:05 GMT 49.000050 2.632599 1,500 86 189 2496
We lost coverage of the aircraft here for a total of 162 minutes
2018-10-11 03:30:24 GMT 49.000107 2.564278 0 174 0
2018-10-11 03:30:12 GMT 49.000111 2.564286 0 174 0
2018-10-11 03:30:03 GMT 49.000122 2.564286 0 174 0
2018-10-11 03:29:53 GMT 49.000168 2.564269 0 177 2
2018-10-11 03:29:42 GMT 49.000282 2.564269 0 177 3
2018-10-11 03:29:31 GMT 49.000443 2.564242 0 177 7
2018-10-11 03:29:23 GMT 49.000671 2.564198 0 188 5
2018-10-11 03:29:12 GMT 49.000854 2.564128 0 222 5
2018-10-11 03:29:00 GMT 49.001049 2.564296 0 264 4
2018-10-11 03:28:51 GMT 49.001072 2.564531 0 267 6
2018-10-11 03:28:38 GMT 49.001106 2.565235 0 306 9
2018-10-11 03:28:31 GMT 49.000980 2.565589 0 345 8
2018-10-11 03:28:21 GMT 49.000595 2.565687 0 357 11
2018-10-11 03:28:11 GMT 49.000088 2.565748 0 354 13
2018-10-11 03:28:01 GMT 48.999561 2.565836 0 326 10
2018-10-11 03:27:51 GMT 48.999233 2.566229 0 270 10
2018-10-11 03:27:41 GMT 48.999252 2.566927 0 264 12
2018-10-11 03:27:30 GMT 48.999310 2.567825 0 264 14
2018-10-11 03:27:20 GMT 48.999367 2.568899 0 264 21
2018-10-11 03:27:10 GMT 48.999443 2.570421 0 264 20
2018-10-11 03:27:00 GMT 48.999523 2.571777 0 264 20
2018-10-11 03:26:49 GMT 48.999607 2.573230 0 264 19
2018-10-11 03:22:10 GMT 48.995224 2.543687 625 85 149 -832
2018-10-11 03:22:03 GMT 48.994835 2.536396 725 85 149 -832
2018-10-11 03:21:54 GMT 48.994370 2.527361 825 85 149 -768
2018-10-11 03:21:44 GMT 48.993763 2.516664 1,275 85 160 -896
2018-10-11 03:21:37 GMT 48.993343 2.508930 1,075 85 150 -832
2018-10-11 03:21:34 GMT 48.993210 2.505798 1,100 85 148 -704
2018-10-11 03:21:29 GMT 48.992981 2.501291 1,150 85 150 -832
2018-10-11 03:21:24 GMT 48.992645 2.495559 1,225 85 153 -832
2018-10-11 03:21:19 GMT 48.992367 2.490572 1,300 85 155 -832
2018-10-11 03:21:13 GMT 48.992043 2.484283 1,600 85 160 -896
2018-10-11 03:21:09 GMT 48.991760 2.479224 1,450 85 157 -832
2018-10-11 03:21:03 GMT 48.991436 2.473153 1,600 85 160 -896
2018-10-11 03:20:59 GMT 48.991150 2.467557 1,600 85 164 -896
2018-10-11 03:20:51 GMT 48.990692 2.459347 1,650 85 168 -768
2018-10-11 03:20:48 GMT 48.990505 2.455806 1,725 85 172 -832
2018-10-11 03:20:44 GMT 48.990131 2.449012 1,900 85 174 -960
2018-10-11 03:20:40 GMT 48.989960 2.445867 1,925 85 176 -960
2018-10-11 03:20:36 GMT 48.989574 2.439037 1,925 85 176 -960
2018-10-11 03:20:33 GMT 48.989479 2.436724 1,950 85 176 -1024
2018-10-11 03:20:30 GMT 48.989246 2.433255 2,100 85 180 -1088
2018-10-11 03:20:23 GMT 48.988781 2.424148 2,125 85 179 -1024
2018-10-11 03:20:17 GMT 48.988358 2.416358 2,225 85 180 -1088
2018-10-11 03:20:13 GMT 48.988083 2.411569 2,300 85 181 -960
2018-10-11 03:20:07 GMT 48.987717 2.404597 2,375 85 182 -960
2018-10-11 03:20:02 GMT 48.987293 2.396826 2,500 85 183 -1024
2018-10-11 03:19:57 GMT 48.986984 2.391780 2,525 85 184 -1024
2018-10-11 03:19:52 GMT 48.986641 2.385190 2,625 85 185 -1024
2018-10-11 03:19:47 GMT 48.986267 2.378829 2,725 85 186 -1024
2018-10-11 03:19:42 GMT 48.985897 2.371818 2,825 85 187 -1088
2018-10-11 03:19:37 GMT 48.985519 2.365018 2,900 85 188 -1024
2018-10-11 03:19:31 GMT 48.985153 2.358046 3,000 85 189 -1024
2018-10-11 03:19:27 GMT 48.984825 2.352014 3,050 85 189 -960
2018-10-11 03:19:19 GMT 48.984192 2.340863 3,225 85 192 -1024
2018-10-11 03:19:16 GMT 48.984055 2.338046 3,250 85 192 -1024
2018-10-11 03:19:12 GMT 48.983643 2.330580 3,350 85 194 -1024
2018-10-11 03:19:09 GMT 48.983414 2.326637 3,400 85 196 -1024
2018-10-11 03:19:06 GMT 48.983288 2.323970 3,425 84 201 -1088
2018-10-11 03:19:00 GMT 48.982822 2.316164 3,525 84 200 -1088
2018-10-11 03:18:57 GMT 48.982452 2.309805 3,875 84 204 -1024
2018-10-11 03:18:51 GMT 48.982079 2.302864 3,700 85 206 -1088
2018-10-11 03:18:46 GMT 48.981674 2.295509 3,875 85 211 -1152
2018-10-11 03:18:41 GMT 48.981239 2.287903 3,875 85 214 -1216
2018-10-11 03:18:35 GMT 48.980804 2.279663 4,000 85 218 -1280
2018-10-11 03:18:31 GMT 48.980404 2.272508 4,125 85 222 -1216
2018-10-11 03:18:28 GMT 48.980072 2.266987 4,150 85 224 -1216
2018-10-11 03:18:25 GMT 48.979935 2.264029 4,200 85 225 -1216
2018-10-11 03:18:21 GMT 48.979519 2.256389 4,300 85 227 -1280
2018-10-11 03:18:15 GMT 48.979053 2.248222 4,425 84 228 -1344
2018-10-11 03:18:10 GMT 48.978493 2.239115 4,875 84 228 -1472
2018-10-11 03:18:07 GMT 48.977749 2.225816 4,650 84 228 -1408
2018-10-11 03:18:03 GMT 48.977463 2.220717 4,875 85 228 -1472
2018-10-11 03:17:58 GMT 48.977463 2.220717 4,825 85 228 -1536
2018-10-11 03:17:55 GMT 48.977188 2.215787 4,900 85 228 -1344
2018-10-11 03:17:50 GMT 48.976727 2.207385 5,025 85 229 -1152
2018-10-11 03:17:45 GMT 48.976227 2.198252 5,100 85 229 -768
2018-10-11 03:17:42 GMT 48.975952 2.193604 5,150 85 233 0
2018-10-11 03:17:39 GMT 48.975796 2.190471 5,150 85 229 -256
2018-10-11 03:17:36 GMT 48.975311 2.182617 5,150 85 233 -64
2018-10-11 03:17:30 GMT 48.974854 2.174166 5,150 84 237 0
2018-10-11 03:17:27 GMT 48.974579 2.170082 5,150 84 238 64
2018-10-11 03:17:24 GMT 48.974304 2.164729 5,150 85 241 128
2018-10-11 03:17:21 GMT 48.974030 2.160152 5,150 84 245 0
2018-10-11 03:17:14 GMT 48.973282 2.147538 5,150 84 247 0
2018-10-11 03:17:11 GMT 48.973000 2.142334 5,150 84 247 0
2018-10-11 03:17:07 GMT 48.972610 2.135432 5,150 84 247 64
2018-10-11 03:17:04 GMT 48.972301 2.130336 5,150 84 247 0
2018-10-11 03:16:59 GMT 48.971790 2.121662 5,150 84 246 0
2018-10-11 03:16:56 GMT 48.971466 2.116418 5,150 85 245 0
2018-10-11 03:16:53 GMT 48.971184 2.111110 5,150 85 246 0
2018-10-11 03:16:49 GMT 48.970779 2.104304 5,150 85 245 0
2018-10-11 03:16:46 GMT 48.970505 2.099375 5,150 85 245 0
2018-10-11 03:16:43 GMT 48.969589 2.081980 5,150 85 246 64
2018-10-11 03:16:36 GMT 48.969589 2.081980 5,125 83 250 64
2018-10-11 03:16:33 GMT 48.969276 2.076561 5,125 83 250 64
2018-10-11 03:16:26 GMT 48.968262 2.063528 5,150 82 255 -192
2018-10-11 03:16:23 GMT 48.967941 2.059796 5,150 81 257 -320
2018-10-11 03:16:17 GMT 48.966904 2.049095 5,200 81 259 -640
2018-10-11 03:16:13 GMT 48.966160 2.041289 5,250 82 262 -640
2018-10-11 03:16:08 GMT 48.965378 2.032682 5,325 83 264 -576
2018-10-11 03:16:05 GMT 48.964920 2.027118 5,325 83 264 -576
2018-10-11 03:16:02 GMT 48.964577 2.022424 5,350 83 266 -512
2018-10-11 03:15:58 GMT 48.963913 2.013738 5,400 83 269 -640
2018-10-11 03:15:55 GMT 48.963547 2.008456 5,425 83 270 -768
2018-10-11 03:15:52 GMT 48.963226 2.003848 5,475 83 271 -960
2018-10-11 03:15:45 GMT 48.962173 1.989370 5,625 83 272 -1216
2018-10-11 03:15:42 GMT 48.961761 1.983877 5,675 83 272 -1152
2018-10-11 03:15:37 GMT 48.961037 1.974070 5,750 83 273 -1024
2018-10-11 03:15:32 GMT 48.960342 1.965003 5,850 83 274 -960
2018-10-11 03:15:26 GMT 48.959408 1.952603 5,925 83 275 -832
2018-10-11 03:15:22 GMT 48.958832 1.944791 5,975 83 277 -704
2018-10-11 03:15:17 GMT 48.958145 1.935707 6,050 83 279 -768
2018-10-11 03:15:14 GMT 48.957779 1.930425 6,075 84 279 -832
2018-10-11 03:15:11 GMT 48.957458 1.925354 6,100 83 280 -896
2018-10-11 03:15:04 GMT 48.956383 1.910176 6,225 83 282 -832
2018-10-11 03:15:01 GMT 48.955963 1.905044 6,250 83 283 -640
2018-10-11 03:14:54 GMT 48.954895 1.890282 6,325 83 285 -512
2018-10-11 03:14:51 GMT 48.954517 1.885384 6,350 83 286 -576
2018-10-11 03:14:46 GMT 48.953751 1.875282 6,375 83 288 -512
2018-10-11 03:14:41 GMT 48.952984 1.865291 6,425 83 290 -576
2018-10-11 03:14:36 GMT 48.952190 1.854377 6,500 83 292 -512
2018-10-11 03:14:33 GMT 48.951355 1.843101 6,525 83 293 -512
2018-10-11 03:14:26 GMT 48.950657 1.833488 6,600 83 294 -512
2018-10-11 03:14:22 GMT 48.950005 1.824815 6,600 83 294 -512
2018-10-11 03:14:15 GMT 48.949036 1.811758 6,675 83 294 -512
2018-10-11 03:14:11 GMT 48.948326 1.802191 6,700 83 294 -512
2018-10-11 03:14:05 GMT 48.947433 1.790560 6,750 83 297 -512
2018-10-11 03:14:01 GMT 48.946747 1.781809 6,775 82 299 -576
2018-10-11 03:13:55 GMT 48.945721 1.769232 6,850 82 302 -576
2018-10-11 03:13:51 GMT 48.945023 1.760415 6,850 82 303 -576
2018-10-11 03:13:45 GMT 48.944138 1.749009 6,925 83 307 -576
2018-10-11 03:13:42 GMT 48.943726 1.743657 6,975 83 308 -640
2018-10-11 03:13:38 GMT 48.943039 1.734854 7,000 83 309 -640
2018-10-11 03:13:35 GMT 48.942444 1.726544 7,025 83 313 -640
2018-10-11 03:13:32 GMT 48.942032 1.721121 7,050 83 313 -576
2018-10-11 03:13:29 GMT 48.941578 1.715313 7,100 83 314 -640
2018-10-11 03:13:25 GMT 48.940788 1.704543 7,150 83 316 -704
2018-10-11 03:13:20 GMT 48.940018 1.694078 7,200 83 318 -832
2018-10-11 03:13:15 GMT 48.939056 1.681683 7,275 83 319 -1024
2018-10-11 03:13:12 GMT 48.938644 1.675838 7,750 83 320 -1280
2018-10-11 03:13:05 GMT 48.937435 1.660381 7,500 83 321 -1344
2018-10-11 03:13:02 GMT 48.936951 1.653724 7,550 83 321 -1408
2018-10-11 03:12:54 GMT 48.935532 1.636047 7,750 83 322 -1408
2018-10-11 03:12:49 GMT 48.934689 1.625181 7,850 83 323 -1216
2018-10-11 03:12:44 GMT 48.933758 1.613689 8,100 82 325 -1280
2018-10-11 03:12:41 GMT 48.933334 1.608441 8,000 82 324 -1088
2018-10-11 03:12:34 GMT 48.931850 1.590849 8,150 82 326 -1408
2018-10-11 03:12:31 GMT 48.931335 1.585212 8,200 82 326 -1408
2018-10-11 03:12:24 GMT 48.929752 1.567720 8,425 81 327 -1472
2018-10-11 03:12:21 GMT 48.929169 1.561678 8,450 81 328 -1472
2018-10-11 03:12:13 GMT 48.927284 1.542856 8,650 80 329 -1472
2018-10-11 03:12:10 GMT 48.926559 1.536184 8,725 80 329 -1472
2018-10-11 03:12:06 GMT 48.925232 1.524776 8,850 79 330 -1472
2018-10-11 03:12:03 GMT 48.924774 1.521184 8,900 79 331 -1472
2018-10-11 03:12:00 GMT 48.923630 1.512310 9,000 78 331 -1536
2018-10-11 03:11:54 GMT 48.921700 1.498766 9,175 75 333 -1600
2018-10-11 03:11:50 GMT 48.917698 1.475493 9,325 70 333 -1984
2018-10-11 03:11:43 GMT 48.917698 1.475493 9,750 73 335 -1600
2018-10-11 03:11:39 GMT 48.915974 1.466964 9,525 71 336 -1600
2018-10-11 03:11:33 GMT 48.912529 1.452002 9,625 70 337 -1600
2018-10-11 03:11:30 GMT 48.911179 1.446509 9,750 69 337 -1664
2018-10-11 03:11:23 GMT 48.907223 1.430608 10,300 78 334 -768
2018-10-11 03:11:19 GMT 48.905640 1.423525 10,075 73 330 -1984
2018-10-11 03:11:16 GMT 48.904148 1.415935 10,175 74 330 -1664
2018-10-11 03:11:13 GMT 48.902706 1.407334 10,250 77 331 -576
2018-10-11 03:11:09 GMT 48.901703 1.400405 10,275 78 333 -512
2018-10-11 03:11:03 GMT 48.899414 1.383925 10,375 77 335 -1152
2018-10-11 03:11:00 GMT 48.898518 1.377845 10,425 77 336 -1152
2018-10-11 03:10:52 GMT 48.896095 1.361221 10,625 76 341 -1088
2018-10-11 03:10:48 GMT 48.894882 1.353713 10,775 75 342 -1024
2018-10-11 03:10:45 GMT 48.893303 1.344380 10,700 73 346 -1024
2018-10-11 03:10:42 GMT 48.890533 1.330332 10,775 72 347 -960
2018-10-11 03:10:39 GMT 48.890533 1.330332 10,825 70 350 -960
2018-10-11 03:10:35 GMT 48.888371 1.320961 10,875 69 351 -960
2018-10-11 03:10:32 GMT 48.886692 1.314312 10,925 68 353 -768
2018-10-11 03:10:29 GMT 48.884583 1.306105 10,950 68 358 -384
2018-10-11 03:10:25 GMT 48.882782 1.298989 10,975 68 358 -384
2018-10-11 03:10:22 GMT 48.880966 1.291978 10,975 68 360 -192
2018-10-11 03:10:19 GMT 48.878639 1.282798 11,025 69 385 -1216
2018-10-11 03:10:14 GMT 48.875706 1.271017 11,000 69 371 -320
2018-10-11 03:10:11 GMT 48.874405 1.265957 11,000 69 371 -256
2018-10-11 03:10:08 GMT 48.872498 1.258357 11,025 69 373 -512
2018-10-11 03:10:05 GMT 48.870258 1.249406 11,125 69 376 -960
2018-10-11 03:10:02 GMT 48.867874 1.239976 11,125 69 377 -1024
2018-10-11 03:09:55 GMT 48.864120 1.224835 11,225 69 379 -960
2018-10-11 03:09:51 GMT 48.861694 1.215116 11,300 69 381 -1024
2018-10-11 03:09:48 GMT 48.859955 1.208144 11,350 69 383 -1152
2018-10-11 03:09:45 GMT 48.855412 1.189848 11,450 69 385 -1216
2018-10-11 03:09:41 GMT 48.855412 1.189848 11,675 69 389 -1792
2018-10-11 03:09:38 GMT 48.853500 1.182259 11,575 69 388 -1536
2018-10-11 03:09:35 GMT 48.851532 1.174199 11,625 69 388 -1664
2018-10-11 03:09:31 GMT 48.849079 1.164479 11,725 69 388 -1920
2018-10-11 03:09:28 GMT 48.847183 1.156945 11,975 69 388 -2048
2018-10-11 03:09:25 GMT 48.845123 1.148939 12,000 69 388 -2048
2018-10-11 03:09:21 GMT 48.842514 1.138531 12,150 69 389 -1920
2018-10-11 03:09:17 GMT 48.840042 1.128775 12,200 69 388 -1856
2018-10-11 03:09:14 GMT 48.838184 1.121256 12,350 69 389 -1728
2018-10-11 03:09:10 GMT 48.835007 1.108351 12,450 69 390 -1792
2018-10-11 03:09:07 GMT 48.834087 1.104632 12,500 69 390 -1792
2018-10-11 03:09:03 GMT 48.830795 1.091168 12,600 69 396 -1472
2018-10-11 03:09:00 GMT 48.829479 1.085912 12,775 69 392 -1664
2018-10-11 03:08:57 GMT 48.827545 1.077998 12,800 69 392 -1600
2018-10-11 03:08:53 GMT 48.824890 1.067153 12,875 69 393 -1536
2018-10-11 03:08:50 GMT 48.822823 1.058807 13,000 69 395 -1472
2018-10-11 03:08:47 GMT 48.821182 1.052152 13,050 69 396 -1536
2018-10-11 03:08:43 GMT 48.818848 1.042856 13,150 69 397 -1600
2018-10-11 03:08:40 GMT 48.816727 1.034377 13,300 68 398 -1728
2018-10-11 03:08:37 GMT 48.814453 1.025391 14,700 69 403 -1920
2018-10-11 03:08:32 GMT 48.810791 1.011024 13,500 68 399 -1920
2018-10-11 03:08:29 GMT 48.809368 1.005466 13,575 68 399 -1920
2018-10-11 03:08:26 GMT 48.807415 0.997877 13,675 68 400 -1920
2018-10-11 03:08:22 GMT 48.804436 0.986095 13,825 69 400 -1984
2018-10-11 03:08:19 GMT 48.803055 0.980741 13,875 69 401 -1984
2018-10-11 03:08:15 GMT 48.800804 0.971712 14,325 69 401 -1984
2018-10-11 03:08:12 GMT 48.797825 0.959858 14,325 69 401 -1984
2018-10-11 03:08:08 GMT 48.794998 0.948416 14,300 69 401 -1984
2018-10-11 03:08:04 GMT 48.792709 0.938909 14,400 69 401 -1920
2018-10-11 03:07:59 GMT 48.789917 0.927570 14,550 69 402 -1920
2018-10-11 03:07:55 GMT 48.786884 0.915045 14,700 69 403 -1920
2018-10-11 03:07:51 GMT 48.784561 0.905386 14,825 69 403 -1984
2018-10-11 03:07:48 GMT 48.782928 0.898638 14,975 69 403 -1984
2018-10-11 03:07:45 GMT 48.780926 0.890399 15,000 69 403 -1984
2018-10-11 03:07:42 GMT 48.778503 0.880352 15,300 69 404 -1856
2018-10-11 03:07:38 GMT 48.775291 0.867053 15,300 69 405 -1792
2018-10-11 03:07:34 GMT 48.773384 0.859030 15,375 70 406 -1728
2018-10-11 03:07:30 GMT 48.771477 0.851079 15,450 70 407 -1664
2018-10-11 03:07:27 GMT 48.768723 0.839679 15,575 70 408 -1472
2018-10-11 03:07:23 GMT 48.766846 0.831581 15,650 70 409 -1344
2018-10-11 03:07:18 GMT 48.763748 0.818481 15,750 70 412 -1152
2018-10-11 03:07:14 GMT 48.761673 0.809678 15,850 70 416 -1280
2018-10-11 03:07:11 GMT 48.758881 0.797847 15,900 70 417 -1408
2018-10-11 03:07:08 GMT 48.757278 0.791016 15,975 70 418 -1664
2018-10-11 03:07:03 GMT 48.753601 0.775693 16,150 69 420 -2112
2018-10-11 03:07:00 GMT 48.751968 0.768973 17,525 68 416 -4032
2018-10-11 03:06:57 GMT 48.750061 0.761092 16,475 69 420 -3264
2018-10-11 03:06:54 GMT 48.747437 0.750521 16,475 69 420 -3264
2018-10-11 03:06:51 GMT 48.745010 0.740943 16,775 68 419 -3776
2018-10-11 03:06:47 GMT 48.742802 0.732326 17,650 68 417 -4032
2018-10-11 03:06:43 GMT 48.739773 0.720689 17,175 68 416 -4032
2018-10-11 03:06:40 GMT 48.737167 0.710642 17,525 68 416 -4032
2018-10-11 03:06:33 GMT 48.732838 0.693801 17,950 68 415 -3968
2018-10-11 03:06:30 GMT 48.730637 0.685307 18,550 68 415 -4032
2018-10-11 03:06:26 GMT 48.727890 0.674744 18,400 68 415 -3968
2018-10-11 03:06:22 GMT 48.725437 0.665179 19,450 68 415 -3584
2018-10-11 03:06:18 GMT 48.722317 0.652964 18,925 68 415 -3712
2018-10-11 03:06:13 GMT 48.718826 0.639448 21,050 68 415 -3584
2018-10-11 03:06:10 GMT 48.716778 0.631280 19,400 68 417 -3456
2018-10-11 03:06:06 GMT 48.713928 0.620305 19,625 68 418 -3392
2018-10-11 03:06:02 GMT 48.711639 0.611291 19,850 68 427 -2816
2018-10-11 03:05:59 GMT 48.709534 0.603121 19,975 68 420 -3200
2018-10-11 03:05:56 GMT 48.706970 0.593262 20,200 68 423 -2944
2018-10-11 03:05:52 GMT 48.704407 0.583402 20,300 68 424 -2880
2018-10-11 03:05:49 GMT 48.702393 0.575553 21,025 68 427 -2816
2018-10-11 03:05:46 GMT 48.700157 0.566952 20,725 68 428 -2816
2018-10-11 03:05:43 GMT 48.697952 0.558472 20,750 68 428 -2880
2018-10-11 03:05:40 GMT 48.695023 0.547063 20,950 69 430 -2944
2018-10-11 03:05:37 GMT 48.693558 0.541147 21,125 69 431 -3136
2018-10-11 03:05:33 GMT 48.690857 0.530442 21,250 69 433 -3264
2018-10-11 03:05:30 GMT 48.688801 0.522067 21,450 69 433 -3456
2018-10-11 03:05:27 GMT 48.686333 0.511804 21,650 69 435 -3392
2018-10-11 03:05:22 GMT 48.682888 0.497565 21,925 70 436 -3200
2018-10-11 03:05:19 GMT 48.681026 0.489831 22,000 70 436 -3136
2018-10-11 03:05:16 GMT 48.678883 0.480941 22,150 70 440 -2944
2018-10-11 03:05:12 GMT 48.676277 0.469955 22,400 70 442 -2880
2018-10-11 03:05:09 GMT 48.673920 0.459947 22,550 70 444 -2688
2018-10-11 03:05:06 GMT 48.672043 0.452130 22,675 70 445 -2624
2018-10-11 03:05:03 GMT 48.669991 0.443501 22,875 70 449 -2624
2018-10-11 03:05:00 GMT 48.667946 0.434972 22,925 70 450 -2624
2018-10-11 03:04:57 GMT 48.665909 0.426213 22,975 70 450 -2688
2018-10-11 03:04:54 GMT 48.663803 0.416987 23,175 71 456 -2624
2018-10-11 03:04:51 GMT 48.662125 0.409674 23,400 71 456 -2560
2018-10-11 03:04:48 GMT 48.659912 0.399874 23,425 71 457 -2560
2018-10-11 03:04:44 GMT 48.656616 0.384733 23,650 72 464 -2240
2018-10-11 03:04:41 GMT 48.654556 0.375225 23,800 72 462 -2304
2018-10-11 03:04:38 GMT 48.653233 0.368909 23,925 72 463 -2240
2018-10-11 03:04:34 GMT 48.650440 0.355682 24,100 72 467 -1920
2018-10-11 03:04:31 GMT 48.648422 0.345928 24,275 72 470 -1408
2018-10-11 03:04:28 GMT 48.646530 0.336745 24,275 72 470 -1408
2018-10-11 03:04:23 GMT 48.643738 0.323013 24,500 73 492 -640
2018-10-11 03:04:19 GMT 48.641224 0.310364 24,400 73 478 -832
2018-10-11 03:04:16 GMT 48.639313 0.300927 24,425 73 485 -448
2018-10-11 03:04:13 GMT 48.637390 0.291349 24,450 73 507 -960
2018-10-11 03:04:10 GMT 48.634827 0.278391 24,475 73 488 -640
2018-10-11 03:04:07 GMT 48.633217 0.270394 24,525 73 493 -576
2018-10-11 03:04:03 GMT 48.630238 0.255288 24,550 73 497 -384
2018-10-11 03:04:00 GMT 48.628876 0.248460 24,550 73 499 -448
2018-10-11 03:03:57 GMT 48.626606 0.236929 24,625 75 530 -1856
2018-10-11 03:03:54 GMT 48.625023 0.228906 24,625 73 507 -960
2018-10-11 03:03:51 GMT 48.623020 0.218715 24,675 73 510 -1088
2018-10-11 03:03:48 GMT 48.620319 0.205054 24,775 73 514 -1344
2018-10-11 03:03:45 GMT 48.618923 0.197826 24,825 73 515 -1408
2018-10-11 03:03:42 GMT 48.617107 0.188502 24,900 74 519 -1600
2018-10-11 03:03:39 GMT 48.614822 0.176556 25,050 74 523 -1472
2018-10-11 03:03:35 GMT 48.611938 0.161062 25,100 74 526 -1664
2018-10-11 03:03:32 GMT 48.609924 0.150146 25,150 74 528 -1792
2018-10-11 03:03:29 GMT 48.608311 0.141088 25,250 75 530 -1856
2018-10-11 03:03:25 GMT 48.605576 0.125568 25,450 75 532 -1920
2018-10-11 03:03:22 GMT 48.604065 0.116976 25,525 75 535 -2048
2018-10-11 03:03:19 GMT 48.601776 0.103595 25,525 75 535 -2048
2018-10-11 03:03:15 GMT 48.599277 0.088903 25,725 75 538 -2112
2018-10-11 03:03:12 GMT 48.597092 0.075820 25,850 76 540 -2304
2018-10-11 03:03:09 GMT 48.595871 0.068312 25,950 76 541 -2176
2018-10-11 03:03:06 GMT 48.594437 0.059341 26,125 76 545 -1600
2018-10-11 03:03:03 GMT 48.592667 0.048523 26,325 76 548 -768
2018-10-11 03:03:00 GMT 48.590668 0.035778 26,150 76 545 -1408
2018-10-11 03:02:56 GMT 48.588547 0.022254 26,275 76 549 -640
2018-10-11 03:02:53 GMT 48.586304 0.008099 26,275 76 550 -448
2018-10-11 03:02:49 GMT 48.583969 -0.006831 26,300 76 553 -128
2018-10-11 03:02:46 GMT 48.582150 -0.018648 26,300 76 555 -64
2018-10-11 03:02:43 GMT 48.580994 -0.025987 26,325 76 563 -192
2018-10-11 03:02:40 GMT 48.578796 -0.040187 26,325 76 557 0
2018-10-11 03:02:34 GMT 48.575272 -0.062678 26,325 76 560 -64
2018-10-11 03:02:29 GMT 48.572186 -0.082687 26,325 76 562 -128
2018-10-11 03:02:26 GMT 48.569000 -0.103102 26,350 76 565 -256
2018-10-11 03:02:23 GMT 48.566971 -0.116368 27,950 77 562 -2304
2018-10-11 03:02:20 GMT 48.566971 -0.116368 26,375 76 567 -320
2018-10-11 03:02:17 GMT 48.565342 -0.126776 26,375 76 568 -320
2018-10-11 03:02:13 GMT 48.562878 -0.142967 26,400 76 569 -448
2018-10-11 03:02:10 GMT 48.561081 -0.154372 26,425 76 571 -576
2018-10-11 03:02:07 GMT 48.559338 -0.165807 26,450 76 572 -704
2018-10-11 03:02:04 GMT 48.555149 -0.192984 26,500 77 563 -2304
2018-10-11 03:02:01 GMT 48.555149 -0.192984 26,550 77 573 -1216
2018-10-11 03:01:57 GMT 48.553345 -0.204796 26,625 77 572 -1792
2018-10-11 03:01:53 GMT 48.550957 -0.220522 26,725 77 572 -2048
2018-10-11 03:01:48 GMT 48.548035 -0.239798 27,000 77 571 -2240
2018-10-11 03:01:45 GMT 48.546249 -0.251418 27,025 77 570 -2240
2018-10-11 03:01:42 GMT 48.544579 -0.262443 27,950 77 562 -2304
2018-10-11 03:01:39 GMT 48.542767 -0.274369 27,300 77 568 -1920
2018-10-11 03:01:36 GMT 48.540985 -0.286138 27,375 77 568 -1984
2018-10-11 03:01:33 GMT 48.536156 -0.317519 27,875 77 563 -2304
2018-10-11 03:01:28 GMT 48.534431 -0.329012 27,700 77 564 -2304
2018-10-11 03:01:25 GMT 48.534431 -0.329012 27,775 77 564 -2304
2018-10-11 03:01:22 GMT 48.532928 -0.338816 27,875 77 564 -2304
2018-10-11 03:01:18 GMT 48.530365 -0.355647 28,050 77 562 -2304
2018-10-11 03:01:15 GMT 48.528427 -0.368403 28,100 77 561 -2304
2018-10-11 03:01:12 GMT 48.527168 -0.376715 28,725 77 560 -2240
2018-10-11 03:01:09 GMT 48.525124 -0.390015 28,600 76 557 -2048
2018-10-11 03:01:06 GMT 48.523636 -0.399663 28,475 76 557 -2048
2018-10-11 03:01:03 GMT 48.521576 -0.413325 28,625 76 556 -1472
2018-10-11 03:01:00 GMT 48.520020 -0.423114 28,650 76 556 -1472
2018-10-11 03:00:57 GMT 48.518372 -0.433678 28,725 76 556 -960
2018-10-11 03:00:54 GMT 48.516647 -0.444802 28,750 76 556 -576
2018-10-11 03:00:51 GMT 48.514755 -0.456637 28,775 76 559 -640
2018-10-11 03:00:47 GMT 48.510689 -0.482531 28,825 76 559 -640
2018-10-11 03:00:44 GMT 48.510689 -0.482531 28,825 76 559 -640
2018-10-11 03:00:41 GMT 48.508896 -0.493681 29,000 76 562 -832
2018-10-11 03:00:37 GMT 48.506081 -0.511298 28,925 76 561 -768
2018-10-11 03:00:34 GMT 48.504593 -0.520583 28,950 76 561 -768
2018-10-11 03:00:31 GMT 48.502899 -0.531217 29,000 76 561 -832
2018-10-11 03:00:27 GMT 48.500519 -0.546359 29,075 77 562 -896
2018-10-11 03:00:24 GMT 48.498402 -0.559941 29,075 77 562 -960
2018-10-11 03:00:20 GMT 48.496078 -0.575796 29,175 78 563 -1024
2018-10-11 03:00:17 GMT 48.494064 -0.590374 29,250 79 563 -1152
2018-10-11 03:00:14 GMT 48.493011 -0.598473 29,275 79 562 -1280
2018-10-11 03:00:11 GMT 48.491695 -0.609813 29,375 81 562 -1472
2018-10-11 03:00:08 GMT 48.490208 -0.624631 29,475 83 562 -1792
2018-10-11 03:00:05 GMT 48.488525 -0.646221 29,550 84 562 -1984
2018-10-11 03:00:02 GMT 48.488525 -0.646221 29,625 84 562 -2368
2018-10-11 02:59:59 GMT 48.487885 -0.657560 29,950 85 559 -3456
2018-10-11 02:59:56 GMT 48.487370 -0.667853 29,925 85 558 -3776
2018-10-11 02:59:53 GMT 48.486786 -0.679673 30,250 85 549 -4736
2018-10-11 02:59:50 GMT 48.486202 -0.692500 30,250 85 549 -4736
2018-10-11 02:59:47 GMT 48.485733 -0.702209 30,750 85 544 -4416
2018-10-11 02:59:43 GMT 48.485001 -0.717351 30,875 85 542 -4096
2018-10-11 02:59:40 GMT 48.484360 -0.730520 31,125 85 538 -3648
2018-10-11 02:59:36 GMT 48.483627 -0.745098 31,250 85 537 -3456
2018-10-11 02:59:33 GMT 48.482529 -0.767705 31,550 85 533 -2752
2018-10-11 02:59:27 GMT 48.482162 -0.775100 31,700 85 532 -2496
2018-10-11 02:59:24 GMT 48.481430 -0.789396 31,900 85 526 -896
2018-10-11 02:59:21 GMT 48.480789 -0.802988 32,000 85 528 -2112
2018-10-11 02:59:17 GMT 48.480194 -0.813974 32,200 85 526 -1728
2018-10-11 02:59:14 GMT 48.479645 -0.825313 32,200 85 526 -1856
2018-10-11 02:59:11 GMT 48.478912 -0.839891 32,300 85 526 -1152
2018-10-11 02:59:08 GMT 48.478455 -0.848623 32,350 85 526 -832
2018-10-11 02:59:05 GMT 48.478012 -0.857512 32,350 85 526 -832
2018-10-11 02:59:02 GMT 48.477402 -0.869047 32,400 85 527 -832
2018-10-11 02:58:59 GMT 48.476715 -0.882146 32,450 85 527 -768
2018-10-11 02:58:56 GMT 48.476257 -0.890949 32,500 85 528 -704
2018-10-11 02:58:53 GMT 48.475662 -0.902640 32,525 85 528 -704
2018-10-11 02:58:50 GMT 48.475079 -0.913455 32,575 85 529 -704
2018-10-11 02:58:46 GMT 48.474380 -0.927405 32,575 85 529 -704
2018-10-11 02:58:43 GMT 48.473869 -0.936946 32,650 85 530 -704
2018-10-11 02:58:40 GMT 48.473190 -0.950317 32,700 85 530 -704
2018-10-11 02:58:37 GMT 48.472656 -0.960798 32,700 85 531 -640
2018-10-11 02:58:34 GMT 48.472092 -0.971656 32,775 85 535 -512
2018-10-11 02:58:31 GMT 48.471497 -0.983136 32,775 85 534 -512
2018-10-11 02:58:28 GMT 48.470840 -0.996214 32,800 85 533 -512
2018-10-11 02:58:25 GMT 48.470306 -1.006376 33,000 85 535 -512
2018-10-11 02:58:21 GMT 48.469677 -1.018765 32,850 85 535 -512
2018-10-11 02:58:18 GMT 48.469116 -1.030109 32,850 85 535 -448
2018-10-11 02:58:15 GMT 48.468372 -1.043629 32,900 85 537 -448
2018-10-11 02:58:12 GMT 48.467861 -1.053314 32,900 85 538 -448
2018-10-11 02:58:09 GMT 48.467213 -1.065240 32,925 85 540 -320
2018-10-11 02:58:05 GMT 48.466373 -1.080925 32,950 85 540 -320
2018-10-11 02:58:02 GMT 48.465912 -1.090111 32,975 85 541 -128
2018-10-11 02:57:59 GMT 48.464745 -1.112004 32,975 85 541 -128
2018-10-11 02:57:56 GMT 48.464745 -1.112004 32,975 85 542 -128
2018-10-11 02:57:53 GMT 48.463348 -1.137952 33,000 85 542 -64
2018-10-11 02:57:50 GMT 48.463348 -1.137952 33,000 85 542 -64
2018-10-11 02:57:47 GMT 48.462788 -1.147710 33,000 85 542 -64
2018-10-11 02:57:43 GMT 48.462044 -1.162021 33,000 85 542 0
2018-10-11 02:57:40 GMT 48.461380 -1.173847 33,000 85 542 0
2018-10-11 02:57:37 GMT 48.460880 -1.183415 33,000 85 542 0
2018-10-11 02:57:34 GMT 48.460182 -1.196136 33,000 85 542 0
2018-10-11 02:57:31 GMT 48.459503 -1.209059 33,000 85 542 0
2018-10-11 02:57:28 GMT 48.458862 -1.220328 33,000 85 542 0
2018-10-11 02:57:25 GMT 48.458504 -1.227650 33,000 85 542 0
2018-10-11 02:57:22 GMT 48.457855 -1.239287 33,000 85 542 0
2018-10-11 02:57:19 GMT 48.457214 -1.250751 33,000 85 541 0
2018-10-11 02:57:16 GMT 48.456619 -1.262019 33,000 85 542 0
2018-10-11 02:57:13 GMT 48.455887 -1.275189 33,000 85 542 0
2018-10-11 02:57:10 GMT 48.455246 -1.286809 33,000 85 542 0
2018-10-11 02:57:06 GMT 48.454315 -1.303831 33,000 85 542 0
2018-10-11 02:57:03 GMT 48.453781 -1.313430 33,000 85 542 0
2018-10-11 02:57:00 GMT 48.452591 -1.335261 33,000 85 542 -64
2018-10-11 02:56:57 GMT 48.452591 -1.335261 33,000 85 542 0
2018-10-11 02:56:54 GMT 48.451847 -1.348933 33,000 85 542 0
2018-10-11 02:56:51 GMT 48.451447 -1.356248 33,000 85 543 0
2018-10-11 02:56:48 GMT 48.450256 -1.377728 33,000 85 543 0
2018-10-11 02:56:45 GMT 48.450256 -1.377728 33,000 85 543 0
2018-10-11 02:56:42 GMT 48.449615 -1.389348 33,000 85 544 0
2018-10-11 02:56:39 GMT 48.448822 -1.403865 33,000 85 544 0
2018-10-11 02:56:36 GMT 48.447739 -1.423293 33,000 85 546 0
2018-10-11 02:56:33 GMT 48.447739 -1.423293 33,000 85 545 0
2018-10-11 02:56:30 GMT 48.447102 -1.434439 33,000 85 546 0
2018-10-11 02:56:26 GMT 48.446075 -1.452581 33,000 85 546 0
2018-10-11 02:56:23 GMT 48.445564 -1.462049 33,000 85 547 0
2018-10-11 02:56:20 GMT 48.444901 -1.473576 33,000 85 547 0
2018-10-11 02:56:17 GMT 48.444355 -1.482865 33,000 85 547 -64
2018-10-11 02:56:13 GMT 48.443344 -1.500901 33,000 85 548 0
2018-10-11 02:56:10 GMT 48.442772 -1.510909 33,000 85 548 0
2018-10-11 02:56:07 GMT 48.441376 -1.536184 33,000 85 549 64
2018-10-11 02:56:04 GMT 48.440918 -1.544143 33,000 85 549 0
2018-10-11 02:56:01 GMT 48.440918 -1.544143 33,000 85 549 0
2018-10-11 02:55:58 GMT 48.440208 -1.556445 33,000 85 549 0
2018-10-11 02:55:55 GMT 48.439453 -1.569566 33,000 85 549 0
2018-10-11 02:55:52 GMT 48.438171 -1.591961 33,000 85 549 0
2018-10-11 02:55:49 GMT 48.438171 -1.591961 33,000 85 549 0
2018-10-11 02:55:46 GMT 48.437439 -1.605272 33,000 85 549 0
2018-10-11 02:55:43 GMT 48.436905 -1.614557 33,000 85 549 64
2018-10-11 02:55:40 GMT 48.436207 -1.625977 33,000 85 549 0
2018-10-11 02:55:37 GMT 48.435471 -1.639428 33,000 85 549 0
2018-10-11 02:55:34 GMT 48.434921 -1.648583 33,000 85 549 0
2018-10-11 02:55:31 GMT 48.434254 -1.660164 33,000 85 549 0
2018-10-11 02:55:27 GMT 48.433182 -1.679101 33,000 84 549 0
2018-10-11 02:55:24 GMT 48.432816 -1.684993 33,000 84 549 0
2018-10-11 02:55:20 GMT 48.431854 -1.701684 33,000 84 549 0
2018-10-11 02:55:17 GMT 48.431213 -1.712670 33,000 84 548 0
2018-10-11 02:55:14 GMT 48.430527 -1.724501 33,000 84 549 0
2018-10-11 02:55:11 GMT 48.429176 -1.747404 33,000 84 548 0
2018-10-11 02:55:04 GMT 48.428246 -1.762583 33,000 84 548 0
2018-10-11 02:55:01 GMT 48.427456 -1.776244 33,000 84 548 0
2018-10-11 02:54:58 GMT 48.425919 -1.801252 33,000 84 548 0
2018-10-11 02:54:54 GMT 48.425919 -1.801252 33,000 84 548 0
2018-10-11 02:54:51 GMT 48.425262 -1.812040 33,000 84 548 0
2018-10-11 02:54:48 GMT 48.424709 -1.821345 33,000 84 548 0
2018-10-11 02:54:44 GMT 48.423683 -1.838764 33,000 84 548 0
2018-10-11 02:54:40 GMT 48.422745 -1.854084 33,000 84 548 0
2018-10-11 02:54:37 GMT 48.422150 -1.864134 33,000 84 548 0
2018-10-11 02:54:34 GMT 48.421452 -1.875843 33,000 84 548 0
2018-10-11 02:54:31 GMT 48.420799 -1.886468 33,000 84 548 0
2018-10-11 02:54:28 GMT 48.420135 -1.897606 33,000 84 548 0
2018-10-11 02:54:25 GMT 48.419312 -1.911621 33,000 84 548 0
2018-10-11 02:54:22 GMT 48.418518 -1.924703 33,000 84 548 0
2018-10-11 02:54:19 GMT 48.417984 -1.933594 33,000 84 548 0
2018-10-11 02:54:16 GMT 48.417400 -1.942918 33,000 84 547 0
2018-10-11 02:54:13 GMT 48.416424 -1.958747 33,000 84 547 0
2018-10-11 02:54:10 GMT 48.415970 -1.966130 33,000 84 547 0
2018-10-11 02:54:07 GMT 48.415306 -1.976961 33,000 84 547 0
2018-10-11 02:54:03 GMT 48.414326 -1.993585 33,000 84 547 0
2018-10-11 02:53:58 GMT 48.413116 -2.012883 33,000 84 547 0
2018-10-11 02:53:53 GMT 48.412045 -2.030591 33,000 84 547 0
2018-10-11 02:53:50 GMT 48.411301 -2.042894 33,000 84 546 0
2018-10-11 02:53:47 GMT 48.410557 -2.054443 33,000 84 546 0
2018-10-11 02:53:43 GMT 48.409580 -2.070272 33,000 84 546 0
2018-10-11 02:53:39 GMT 48.408646 -2.085923 33,000 84 546 0
2018-10-11 02:53:36 GMT 48.407249 -2.108002 33,000 84 546 0
2018-10-11 02:53:33 GMT 48.407249 -2.108002 33,000 84 546 0
2018-10-11 02:53:29 GMT 48.406551 -2.119711 33,000 84 546 0
2018-10-11 02:53:26 GMT 48.405853 -2.130625 33,000 84 545 0
2018-10-11 02:53:22 GMT 48.404922 -2.146092 33,000 84 545 0
2018-10-11 02:53:17 GMT 48.403481 -2.168716 33,000 84 545 0
2018-10-11 02:53:12 GMT 48.402596 -2.183388 33,000 84 545 0
2018-10-11 02:53:09 GMT 48.401897 -2.194664 33,000 84 545 0
2018-10-11 02:53:06 GMT 48.401058 -2.207818 33,000 84 544 0
2018-10-11 02:53:03 GMT 48.400085 -2.223464 33,000 84 544 0
2018-10-11 02:52:59 GMT 48.398666 -2.245648 33,000 84 544 0
2018-10-11 02:52:56 GMT 48.398666 -2.245648 33,000 84 544 0
2018-10-11 02:52:52 GMT 48.397705 -2.261071 33,000 84 543 0
2018-10-11 02:52:49 GMT 48.396973 -2.272691 33,000 84 543 0
2018-10-11 02:52:46 GMT 48.396217 -2.284144 33,000 84 542 0
2018-10-11 02:52:42 GMT 48.395241 -2.299829 33,000 84 542 0
2018-10-11 02:52:39 GMT 48.394684 -2.307904 33,000 84 541 -64
2018-10-11 02:52:36 GMT 48.393703 -2.323030 33,000 84 541 0
2018-10-11 02:52:32 GMT 48.392868 -2.336113 33,000 84 538 0
2018-10-11 02:52:27 GMT 48.390930 -2.366075 33,000 84 539 0
2018-10-11 02:52:24 GMT 48.390930 -2.366075 33,000 84 538 0
2018-10-11 02:52:21 GMT 48.390305 -2.375577 33,000 84 538 0
2018-10-11 02:52:18 GMT 48.389465 -2.388752 33,000 84 538 0
2018-10-11 02:52:15 GMT 48.388687 -2.400301 33,000 84 538 0
2018-10-11 02:52:12 GMT 48.387886 -2.412728 33,000 84 538 0
2018-10-11 02:52:07 GMT 48.386810 -2.429246 33,000 84 538 0
2018-10-11 02:52:04 GMT 48.385391 -2.451571 33,000 84 538 0
2018-10-11 02:52:01 GMT 48.385391 -2.451571 33,025 84 538 0
2018-10-11 02:51:57 GMT 48.383743 -2.476983 33,000 84 538 0
2018-10-11 02:51:54 GMT 48.383743 -2.476983 33,000 84 538 0
2018-10-11 02:51:49 GMT 48.382507 -2.496150 33,000 84 538 0
2018-10-11 02:51:46 GMT 48.381741 -2.507485 33,000 84 538 0
2018-10-11 02:51:43 GMT 48.381229 -2.515652 33,000 84 538 0
2018-10-11 02:51:40 GMT 48.379440 -2.542631 33,000 84 538 0
2018-10-11 02:51:36 GMT 48.379440 -2.542631 33,000 84 538 0
2018-10-11 02:51:33 GMT 48.378670 -2.554683 33,000 84 538 0
2018-10-11 02:51:30 GMT 48.378021 -2.564181 33,000 84 538 0
2018-10-11 02:51:27 GMT 48.376923 -2.580519 33,000 84 538 0
2018-10-11 02:51:23 GMT 48.376190 -2.591717 33,000 84 538 0
2018-10-11 02:51:20 GMT 48.375458 -2.602844 33,000 84 538 0
2018-10-11 02:51:17 GMT 48.374710 -2.613806 33,000 84 538 0
2018-10-11 02:51:14 GMT 48.373993 -2.625169 33,000 84 538 0
2018-10-11 02:51:11 GMT 48.373222 -2.636502 33,000 84 538 0
2018-10-11 02:51:08 GMT 48.372482 -2.647423 33,000 84 538 0
2018-10-11 02:51:04 GMT 48.371498 -2.662088 33,000 84 538 0
2018-10-11 02:51:01 GMT 48.370522 -2.676616 33,000 84 538 0
2018-10-11 02:50:57 GMT 48.369869 -2.686302 33,000 84 538 0
2018-10-11 02:50:54 GMT 48.369003 -2.699468 33,000 84 538 0
2018-10-11 02:50:51 GMT 48.367355 -2.723623 33,000 84 538 64
2018-10-11 02:50:45 GMT 48.366844 -2.731548 33,000 84 537 0
2018-10-11 02:50:42 GMT 48.365822 -2.746437 33,000 84 538 0
2018-10-11 02:50:38 GMT 48.364929 -2.759963 33,000 84 537 0
2018-10-11 02:50:33 GMT 48.363647 -2.778907 33,000 84 537 0
2018-10-11 02:50:30 GMT 48.362843 -2.790600 33,000 84 537 -64
2018-10-11 02:50:25 GMT 48.361816 -2.805950 33,000 84 537 0
2018-10-11 02:50:22 GMT 48.361073 -2.816909 33,000 84 536 -64
2018-10-11 02:50:19 GMT 48.360233 -2.828763 33,000 84 537 0
2018-10-11 02:50:16 GMT 48.359257 -2.842857 33,000 84 536 0
2018-10-11 02:50:13 GMT 48.358612 -2.852290 33,000 84 536 0
2018-10-11 02:50:09 GMT 48.357697 -2.865601 33,000 84 536 0
2018-10-11 02:50:06 GMT 48.356930 -2.876900 33,000 84 536 0
2018-10-11 02:50:03 GMT 48.356091 -2.889477 33,000 84 536 0
2018-10-11 02:50:00 GMT 48.355225 -2.901870 33,000 84 536 0
2018-10-11 02:49:57 GMT 48.354694 -2.909859 33,000 84 536 0
2018-10-11 02:49:53 GMT 48.353531 -2.926483 33,000 84 536 0
2018-10-11 02:49:50 GMT 48.352798 -2.937012 33,000 84 536 0
2018-10-11 02:49:47 GMT 48.352085 -2.947588 33,000 84 536 0
2018-10-11 02:49:43 GMT 48.350922 -2.964407 33,000 84 536 64
2018-10-11 02:49:40 GMT 48.350086 -2.976066 33,000 84 535 0
2018-10-11 02:49:37 GMT 48.349457 -2.985464 33,000 84 535 0
2018-10-11 02:49:34 GMT 48.348736 -2.995654 33,000 84 535 0
2018-10-11 02:49:30 GMT 48.347534 -3.012437 33,000 84 535 0
2018-10-11 02:49:27 GMT 48.346828 -3.022614 33,000 84 535 0
2018-10-11 02:49:23 GMT 48.345478 -3.041840 33,000 83 535 0
2018-10-11 02:49:20 GMT 48.344826 -3.051019 33,000 83 535 0
2018-10-11 02:49:16 GMT 48.344128 -3.061355 33,000 83 535 0
2018-10-11 02:49:12 GMT 48.342865 -3.078496 33,000 83 535 0
2018-10-11 02:49:09 GMT 48.342133 -3.089201 33,000 83 535 0
2018-10-11 02:49:06 GMT 48.341473 -3.098578 33,000 83 535 0
2018-10-11 02:49:02 GMT 48.340263 -3.115564 33,000 83 535 0
2018-10-11 02:48:59 GMT 48.339470 -3.126622 33,000 83 535 0
2018-10-11 02:48:56 GMT 48.338821 -3.135440 33,000 83 534 0
2018-10-11 02:48:52 GMT 48.337692 -3.151456 33,000 83 535 0
2018-10-11 02:48:49 GMT 48.336769 -3.164858 33,000 83 535 0
2018-10-11 02:48:46 GMT 48.336075 -3.174109 33,000 83 535 0
2018-10-11 02:48:42 GMT 48.334396 -3.198033 33,000 83 534 0
2018-10-11 02:48:36 GMT 48.333557 -3.209453 33,000 83 534 0
2018-10-11 02:48:33 GMT 48.332767 -3.220873 33,000 83 534 0
2018-10-11 02:48:30 GMT 48.331928 -3.232221 33,000 83 534 0
2018-10-11 02:48:27 GMT 48.331146 -3.242727 33,000 83 534 0
2018-10-11 02:48:24 GMT 48.329556 -3.264602 33,000 83 534 0
2018-10-11 02:48:21 GMT 48.329556 -3.264602 33,000 83 534 0
2018-10-11 02:48:18 GMT 48.328484 -3.279708 33,000 83 534 0
2018-10-11 02:48:14 GMT 48.327694 -3.290694 33,000 83 534 0
2018-10-11 02:48:11 GMT 48.326668 -3.304355 33,000 83 534 0
2018-10-11 02:48:08 GMT 48.326019 -3.313364 33,000 83 535 0
2018-10-11 02:48:05 GMT 48.325367 -3.322352 33,000 83 534 0
2018-10-11 02:48:01 GMT 48.324005 -3.340971 33,000 83 535 0
2018-10-11 02:47:58 GMT 48.323318 -3.350196 33,000 83 535 0
2018-10-11 02:47:55 GMT 48.322525 -3.360660 33,000 83 535 0
2018-10-11 02:47:51 GMT 48.321175 -3.379091 33,000 83 535 0
2018-10-11 02:47:48 GMT 48.320618 -3.387029 33,000 83 536 0
2018-10-11 02:47:45 GMT 48.319965 -3.396004 33,000 83 536 0
2018-10-11 02:47:42 GMT 48.319016 -3.408367 33,000 83 536 0
2018-10-11 02:47:38 GMT 48.317825 -3.424636 33,000 83 536 0
2018-10-11 02:47:35 GMT 48.317173 -3.433661 33,000 83 536 0
2018-10-11 02:47:32 GMT 48.316288 -3.445515 33,000 83 537 0
2018-10-11 02:47:29 GMT 48.314568 -3.468789 33,000 83 537 0
2018-10-11 02:47:26 GMT 48.314568 -3.468789 33,000 83 537 0
2018-10-11 02:47:23 GMT 48.313843 -3.478229 33,000 83 537 0
2018-10-11 02:47:19 GMT 48.312881 -3.491540 33,000 83 537 0
2018-10-11 02:47:16 GMT 48.311096 -3.514780 33,000 83 537 0
2018-10-11 02:47:10 GMT 48.310318 -3.525485 33,000 83 537 0
2018-10-11 02:47:07 GMT 48.309448 -3.536612 33,000 83 537 0
2018-10-11 02:47:04 GMT 48.308487 -3.549570 33,000 83 537 0
2018-10-11 02:46:59 GMT 48.307259 -3.566003 33,000 83 538 0
2018-10-11 02:46:56 GMT 48.306061 -3.581332 33,000 83 538 0
2018-10-11 02:46:53 GMT 48.305511 -3.588797 33,000 83 538 0
2018-10-11 02:46:49 GMT 48.304184 -3.606768 33,000 83 539 0
2018-10-11 02:46:42 GMT 48.302490 -3.628798 33,000 83 539 0
2018-10-11 02:46:39 GMT 48.301483 -3.642329 33,000 83 539 0
2018-10-11 02:46:36 GMT 48.300751 -3.652179 33,000 83 540 0
2018-10-11 02:46:32 GMT 48.299744 -3.665560 33,000 83 540 0
2018-10-11 02:46:29 GMT 48.298691 -3.680068 33,000 83 540 0
2018-10-11 02:46:26 GMT 48.297806 -3.691406 33,000 83 540 0
2018-10-11 02:46:23 GMT 48.297108 -3.700658 33,000 83 540 0
2018-10-11 02:46:20 GMT 48.295341 -3.724076 33,000 83 539 0
2018-10-11 02:46:17 GMT 48.295341 -3.724076 33,000 83 539 0
2018-10-11 02:46:14 GMT 48.294205 -3.739084 33,000 83 539 0
2018-10-11 02:46:10 GMT 48.293339 -3.750385 33,000 83 534 0
2018-10-11 02:46:07 GMT 48.292191 -3.765423 33,000 83 538 0
2018-10-11 02:46:04 GMT 48.291756 -3.771491 33,000 83 538 0
2018-10-11 02:46:00 GMT 48.290451 -3.788187 33,000 83 537 0
2018-10-11 02:45:57 GMT 48.289627 -3.799086 33,000 83 537 0
2018-10-11 02:45:54 GMT 48.288940 -3.807960 33,000 83 536 0
2018-10-11 02:45:51 GMT 48.288170 -3.818110 33,000 83 536 0
2018-10-11 02:45:47 GMT 48.286774 -3.835819 33,000 83 535 0
2018-10-11 02:45:44 GMT 48.285965 -3.846694 33,000 83 535 0
2018-10-11 02:45:40 GMT 48.285049 -3.858103 33,000 83 535 0
2018-10-11 02:45:37 GMT 48.283096 -3.883233 33,000 83 534 -64
2018-10-11 02:45:34 GMT 48.283096 -3.883233 33,000 83 534 0
2018-10-11 02:45:29 GMT 48.281654 -3.901231 33,000 83 533 0
2018-10-11 02:45:25 GMT 48.280491 -3.916337 33,000 83 533 0
2018-10-11 02:45:22 GMT 48.279606 -3.927685 33,000 83 533 0
2018-10-11 02:45:16 GMT 48.278069 -3.947489 33,000 83 532 0
2018-10-11 02:45:13 GMT 48.277176 -3.958599 33,000 83 532 0
2018-10-11 02:45:10 GMT 48.276440 -3.967944 33,000 83 532 0
2018-10-11 02:45:06 GMT 48.275070 -3.985361 33,000 83 531 0
2018-10-11 02:45:03 GMT 48.274384 -3.994446 33,000 83 531 0
2018-10-11 02:45:00 GMT 48.273415 -4.006685 33,000 83 531 64
2018-10-11 02:44:56 GMT 48.272186 -4.021841 33,000 83 530 0
2018-10-11 02:44:53 GMT 48.271500 -4.030574 33,000 83 530 0
2018-10-11 02:44:49 GMT 48.269897 -4.051068 33,000 83 530 64
2018-10-11 02:44:46 GMT 48.268433 -4.069237 33,000 83 530 0
2018-10-11 02:44:43 GMT 48.268433 -4.069237 33,000 83 530 0
2018-10-11 02:44:40 GMT 48.267609 -4.079801 33,000 83 530 64
2018-10-11 02:44:37 GMT 48.266418 -4.094379 33,000 83 530 64
2018-10-11 02:44:33 GMT 48.265549 -4.105365 33,000 83 530 0
2018-10-11 02:44:30 GMT 48.264664 -4.116837 33,000 83 530 -64
2018-10-11 02:44:26 GMT 48.263489 -4.131282 33,000 83 530 -64
2018-10-11 02:44:23 GMT 48.262619 -4.142198 33,000 83 530 -64
2018-10-11 02:44:20 GMT 48.261749 -4.153466 33,000 83 529 64
2018-10-11 02:44:15 GMT 48.260422 -4.170227 33,000 83 529 64
2018-10-11 02:44:12 GMT 48.259644 -4.179664 33,000 83 530 128
2018-10-11 02:44:09 GMT 48.258682 -4.191707 33,000 83 531 -64
2018-10-11 02:44:06 GMT 48.256748 -4.215642 32,975 83 531 64
2018-10-11 02:44:03 GMT 48.256748 -4.215642 33,025 83 532 0
2018-10-11 02:43:59 GMT 48.255707 -4.228610 32,975 83 533 64
2018-10-11 02:43:55 GMT 48.254654 -4.241779 33,000 83 533 64
2018-10-11 02:43:52 GMT 48.253738 -4.253117 33,000 83 534 -128
2018-10-11 02:43:49 GMT 48.252823 -4.265231 33,000 83 535 0
2018-10-11 02:43:45 GMT 48.251633 -4.279949 33,000 83 536 0
2018-10-11 02:43:42 GMT 48.250835 -4.289727 33,000 83 536 0
2018-10-11 02:43:38 GMT 48.249298 -4.309106 33,000 82 540 64
2018-10-11 02:43:35 GMT 48.248650 -4.316687 33,000 82 540 0
2018-10-11 02:43:32 GMT 48.247719 -4.328180 33,000 82 540 64
2018-10-11 02:43:28 GMT 48.246460 -4.342997 33,000 82 542 -64
2018-10-11 02:43:25 GMT 48.245544 -4.353614 33,000 82 542 -192
2018-10-11 02:43:22 GMT 48.244675 -4.364037 32,975 82 543 64
2018-10-11 02:43:18 GMT 48.243435 -4.379136 33,000 82 545 -192
2018-10-11 02:43:15 GMT 48.242409 -4.391062 33,050 82 546 -256
2018-10-11 02:43:11 GMT 48.241104 -4.406644 33,025 82 551 -64
2018-10-11 02:43:08 GMT 48.240128 -4.418889 33,025 82 549 128
2018-10-11 02:43:05 GMT 48.239136 -4.430378 33,050 82 551 -64
2018-10-11 02:43:02 GMT 48.238361 -4.439994 33,050 82 553 64
2018-10-11 02:42:57 GMT 48.235939 -4.469267 33,000 82 556 192
2018-10-11 02:42:54 GMT 48.235939 -4.469267 32,975 82 558 256
2018-10-11 02:42:50 GMT 48.234695 -4.484394 32,950 82 561 0
2018-10-11 02:42:47 GMT 48.233425 -4.500058 33,000 82 566 64
2018-10-11 02:42:44 GMT 48.232773 -4.507564 33,000 82 565 192
2018-10-11 02:42:41 GMT 48.231842 -4.519428 33,025 82 566 64
2018-10-11 02:42:35 GMT 48.229561 -4.546605 33,000 82 566 0
2018-10-11 02:42:31 GMT 48.228584 -4.557881 33,000 82 566 64
2018-10-11 02:42:27 GMT 48.226639 -4.581017 33,000 82 567 -64
2018-10-11 02:42:24 GMT 48.226135 -4.587215 33,000 82 567 64
2018-10-11 02:42:21 GMT 48.225128 -4.599257 33,000 82 567 64
2018-10-11 02:42:14 GMT 48.222813 -4.626328 33,000 82 567 -64
2018-10-11 02:42:11 GMT 48.221973 -4.636447 33,000 82 567 0
2018-10-11 02:42:04 GMT 48.219452 -4.666161 33,000 82 566 0
2018-10-11 02:42:01 GMT 48.218620 -4.675695 33,000 82 566 -64
2018-10-11 02:41:57 GMT 48.217163 -4.692993 33,000 82 566 0
2018-10-11 02:41:54 GMT 48.216152 -4.704823 33,000 82 566 0
2018-10-11 02:41:51 GMT 48.215271 -4.714942 33,000 82 566 0
2018-10-11 02:41:44 GMT 48.212757 -4.744431 33,000 82 566 0
2018-10-11 02:41:41 GMT 48.211990 -4.753559 33,000 82 566 0
2018-10-11 02:41:34 GMT 48.209450 -4.783317 33,000 82 566 0
2018-10-11 02:41:31 GMT 48.208473 -4.794593 33,000 82 566 0
2018-10-11 02:41:24 GMT 48.206131 -4.821519 33,000 82 566 0
2018-10-11 02:41:21 GMT 48.205124 -4.833406 33,000 82 566 0
2018-10-11 02:41:13 GMT 48.202560 -4.863070 33,000 82 565 0
2018-10-11 02:41:10 GMT 48.201645 -4.873141 33,000 82 565 0
2018-10-11 02:41:03 GMT 48.199024 -4.903155 33,000 82 564 0
2018-10-11 02:41:00 GMT 48.198303 -4.911452 33,000 82 564 0
2018-10-11 02:40:52 GMT 48.195484 -4.943775 33,000 82 563 0
2018-10-11 02:40:44 GMT 48.192738 -4.975072 33,000 82 563 0
2018-10-11 02:40:40 GMT 48.191345 -4.990680 33,000 82 562 0
2018-10-11 02:40:33 GMT 48.188690 -5.021330 33,000 82 561 0
2018-10-11 02:40:22 GMT 48.184315 -5.070913 33,000 82 561 0
2018-10-11 02:40:19 GMT 48.184315 -5.070913 33,000 82 561 0
2018-10-11 02:40:12 GMT 48.181915 -5.098008 33,000 82 560 0
2018-10-11 02:40:09 GMT 48.180775 -5.111317 33,000 82 560 -64
2018-10-11 02:40:04 GMT 48.179005 -5.131266 33,000 82 561 0
2018-10-11 02:40:01 GMT 48.178116 -5.141038 33,000 82 560 0
2018-10-11 02:39:58 GMT 48.177246 -5.150616 33,000 82 560 -64
2018-10-11 02:39:51 GMT 48.174583 -5.180343 33,000 82 560 0
2018-10-11 02:39:48 GMT 48.173794 -5.188799 33,000 82 560 0
2018-10-11 02:39:44 GMT 48.172440 -5.203928 33,000 82 559 -64
2018-10-11 02:39:41 GMT 48.171432 -5.215407 33,000 82 560 0
2018-10-11 02:39:38 GMT 48.170300 -5.227902 33,000 82 560 0
2018-10-11 02:39:34 GMT 48.168903 -5.243225 33,000 82 559 0
2018-10-11 02:39:31 GMT 48.167927 -5.254284 33,000 82 559 0
2018-10-11 02:39:28 GMT 48.166901 -5.265776 33,000 82 559 0
2018-10-11 02:39:23 GMT 48.164948 -5.287243 33,000 82 559 64
2018-10-11 02:39:18 GMT 48.163467 -5.303861 33,000 82 558 0
2018-10-11 02:39:11 GMT 48.160385 -5.338017 33,000 82 557 -64
2018-10-11 02:39:08 GMT 48.159897 -5.343544 33,000 82 557 64
2018-10-11 02:39:03 GMT 48.158020 -5.364143 33,000 82 557 0
2018-10-11 02:39:00 GMT 48.156967 -5.375954 33,000 82 557 0
2018-10-11 02:38:57 GMT 48.156235 -5.383987 33,000 82 557 0
2018-10-11 02:38:51 GMT 48.153671 -5.412140 33,000 82 556 0
2018-10-11 02:38:47 GMT 48.152618 -5.423538 33,000 82 556 0
2018-10-11 02:38:42 GMT 48.150742 -5.444069 33,000 82 556 0
2018-10-11 02:38:38 GMT 48.149368 -5.458900 33,000 82 556 -64
2018-10-11 02:38:33 GMT 48.146511 -5.489432 33,000 82 555 -64
2018-10-11 02:38:30 GMT 48.146511 -5.489432 33,000 82 555 -64
2018-10-11 02:38:27 GMT 48.145489 -5.500488 33,000 82 555 0
2018-10-11 02:38:22 GMT 48.143692 -5.520012 33,000 82 554 0
2018-10-11 02:38:18 GMT 48.142323 -5.534926 33,000 82 554 0
2018-10-11 02:38:12 GMT 48.140228 -5.557321 33,000 82 554 0
2018-10-11 02:38:07 GMT 48.138645 -5.574364 33,000 82 553 0
2018-10-11 02:38:02 GMT 48.136597 -5.596092 33,000 82 553 0
2018-10-11 02:37:59 GMT 48.135681 -5.605911 33,000 82 553 0
2018-10-11 02:37:56 GMT 48.134720 -5.616486 33,000 82 553 0
2018-10-11 02:37:52 GMT 48.132889 -5.635780 33,000 81 552 0
2018-10-11 02:37:49 GMT 48.132175 -5.643522 33,000 81 552 0
2018-10-11 02:37:46 GMT 48.131149 -5.654663 33,000 81 552 0
2018-10-11 02:37:40 GMT 48.129009 -5.677115 33,000 81 551 0
2018-10-11 02:37:36 GMT 48.127613 -5.692186 33,000 81 551 0
2018-10-11 02:37:31 GMT 48.125751 -5.711764 33,000 81 551 0
2018-10-11 02:37:26 GMT 48.123981 -5.730567 33,000 81 550 0
2018-10-11 02:37:21 GMT 48.122269 -5.748802 33,000 81 549 0
2018-10-11 02:37:17 GMT 48.120392 -5.768372 33,000 81 549 0
2018-10-11 02:37:07 GMT 48.117233 -5.801674 33,000 81 548 0
2018-10-11 02:36:57 GMT 48.113571 -5.839920 33,000 81 548 0
2018-10-11 02:36:46 GMT 48.109642 -5.880503 33,000 81 547 0
2018-10-11 02:36:36 GMT 48.106293 -5.915574 33,000 81 546 0
2018-10-11 02:36:26 GMT 48.102722 -5.953011 33,000 81 544 64
2018-10-11 02:36:16 GMT 48.099106 -5.990570 33,000 81 543 0
2018-10-11 02:36:05 GMT 48.095169 -6.031288 33,000 81 541 0
2018-10-11 02:35:56 GMT 48.091721 -6.066495 33,000 81 539 0
2018-10-11 02:35:53 GMT 48.090790 -6.076073 33,000 81 538 0
2018-10-11 02:35:44 GMT 48.087021 -6.114784 33,000 81 537 0
2018-10-11 02:35:36 GMT 48.083481 -6.151006 33,000 81 537 0
2018-10-11 02:35:25 GMT 48.080750 -6.179054 33,000 81 537 0
2018-10-11 02:35:15 GMT 48.077087 -6.216064 33,000 81 537 0
2018-10-11 02:35:05 GMT 48.073288 -6.254242 33,000 81 537 0
2018-10-11 02:34:57 GMT 48.070724 -6.280447 33,000 81 536 0
2018-10-11 02:34:54 GMT 48.069656 -6.291011 33,000 81 536 0
2018-10-11 02:34:44 GMT 48.065689 -6.330322 33,000 81 536 0
2018-10-11 02:34:38 GMT 48.063400 -6.353325 33,000 81 534 0
2018-10-11 02:34:34 GMT 48.062210 -6.365341 33,000 81 534 -64
2018-10-11 02:34:29 GMT 48.059971 -6.387705 33,000 81 533 0
2018-10-11 02:34:24 GMT 48.058434 -6.402987 33,000 81 533 64
2018-10-11 02:34:13 GMT 48.054657 -6.440598 33,000 81 532 0
2018-10-11 02:34:07 GMT 48.052231 -6.464561 33,000 81 533 0
2018-10-11 02:34:03 GMT 48.050941 -6.477426 33,000 81 532 0
2018-10-11 02:33:53 GMT 48.047123 -6.514822 33,000 81 532 0
2018-10-11 02:33:47 GMT 48.044861 -6.537071 33,000 81 532 0
2018-10-11 02:33:43 GMT 48.043396 -6.551216 33,000 81 532 0
2018-10-11 02:33:33 GMT 48.039597 -6.588501 33,000 81 532 0
2018-10-11 02:33:22 GMT 48.035767 -6.626024 33,000 81 532 0
2018-10-11 02:33:17 GMT 48.033508 -6.647896 33,000 81 531 0
2018-10-11 02:33:12 GMT 48.032089 -6.661629 33,000 81 531 0
2018-10-11 02:33:02 GMT 48.028198 -6.699257 33,000 81 531 -64
2018-10-11 02:32:55 GMT 48.025246 -6.727999 33,000 81 531 0
2018-10-11 02:32:52 GMT 48.024353 -6.736473 33,000 81 531 0
2018-10-11 02:32:42 GMT 48.020691 -6.771904 33,000 81 531 0
2018-10-11 02:32:32 GMT 48.016800 -6.809120 33,000 81 530 0
2018-10-11 02:32:27 GMT 48.014557 -6.830406 33,000 81 530 0
2018-10-11 02:32:21 GMT 48.012627 -6.848638 33,000 81 530 0
2018-10-11 02:32:13 GMT 48.009521 -6.878403 33,000 81 530 0
2018-10-11 02:32:02 GMT 48.005646 -6.915682 33,000 81 530 0
2018-10-11 02:31:59 GMT 48.004669 -6.925232 33,000 81 530 0
2018-10-11 02:31:53 GMT 48.002014 -6.950500 33,025 81 530 0
2018-10-11 02:31:50 GMT 48.000916 -6.960938 33,000 81 530 0
2018-10-11 02:31:43 GMT 47.998077 -6.987991 33,000 80 530 64
2018-10-11 02:31:39 GMT 47.997032 -6.997516 33,000 80 530 64
2018-10-11 02:31:30 GMT 47.993355 -7.032095 33,000 80 529 0
2018-10-11 02:31:20 GMT 47.989536 -7.068082 33,000 80 529 0
2018-10-11 02:31:09 GMT 47.985443 -7.106438 33,000 80 528 0
2018-10-11 02:31:02 GMT 47.982464 -7.133930 33,000 80 528 0
2018-10-11 02:30:59 GMT 47.981579 -7.142170 33,000 80 528 0
2018-10-11 02:30:52 GMT 47.978622 -7.169609 33,000 80 528 0
2018-10-11 02:30:49 GMT 47.977669 -7.178368 33,000 80 528 0
2018-10-11 02:30:42 GMT 47.974594 -7.207102 33,000 80 527 0
2018-10-11 02:30:39 GMT 47.973679 -7.215889 33,000 80 527 0
2018-10-11 02:30:28 GMT 47.969707 -7.252596 33,000 80 527 64
2018-10-11 02:30:21 GMT 47.966675 -7.280365 33,000 80 526 0
2018-10-11 02:30:18 GMT 47.965851 -7.288193 33,000 80 526 0
2018-10-11 02:30:11 GMT 47.962864 -7.315909 33,000 80 525 0
2018-10-11 02:30:08 GMT 47.962006 -7.323967 33,000 80 525 0
2018-10-11 02:30:01 GMT 47.959000 -7.351614 33,000 80 525 64
2018-10-11 02:29:58 GMT 47.957977 -7.361192 33,000 80 526 0
2018-10-11 02:29:51 GMT 47.955002 -7.387825 33,000 80 526 0
2018-10-11 02:29:48 GMT 47.953972 -7.396898 33,000 80 526 64
2018-10-11 02:29:41 GMT 47.951038 -7.423307 33,000 80 525 0
2018-10-11 02:29:38 GMT 47.949921 -7.433659 33,000 80 524 0
2018-10-11 02:29:31 GMT 47.945965 -7.469999 33,025 80 524 64
2018-10-11 02:29:20 GMT 47.942799 -7.498451 33,000 80 524 64
2018-10-11 02:29:16 GMT 47.941589 -7.509437 33,025 80 524 0
2018-10-11 02:29:10 GMT 47.939030 -7.532184 33,000 80 522 64
2018-10-11 02:29:07 GMT 47.937866 -7.542819 33,000 80 522 0
2018-10-11 02:29:00 GMT 47.934906 -7.569580 33,000 80 522 0
2018-10-11 02:28:56 GMT 47.933395 -7.582890 33,000 80 521 0
2018-10-11 02:28:50 GMT 47.931114 -7.603736 33,000 80 520 0
2018-10-11 02:28:46 GMT 47.929733 -7.615929 33,000 80 521 -64
2018-10-11 02:28:39 GMT 47.926941 -7.640648 33,000 80 521 -64
2018-10-11 02:28:36 GMT 47.925762 -7.651062 33,025 80 520 0
2018-10-11 02:28:29 GMT 47.922970 -7.676133 33,025 80 520 0
2018-10-11 02:28:26 GMT 47.921494 -7.689331 33,000 80 519 0
2018-10-11 02:28:19 GMT 47.918518 -7.715767 33,000 80 520 64
2018-10-11 02:28:14 GMT 47.917053 -7.728813 33,000 80 520 -64
2018-10-11 02:28:09 GMT 47.914913 -7.747685 33,000 80 520 0
2018-10-11 02:28:05 GMT 47.913334 -7.761770 33,000 80 520 -64
2018-10-11 02:27:59 GMT 47.910782 -7.784157 33,000 80 520 -64
2018-10-11 02:27:52 GMT 47.908257 -7.806490 33,000 80 519 64
2018-10-11 02:27:49 GMT 47.906845 -7.819313 33,000 80 519 0
2018-10-11 02:27:45 GMT 47.905334 -7.833046 33,000 80 518 0
2018-10-11 02:27:39 GMT 47.902954 -7.854469 33,000 80 517 0
2018-10-11 02:27:35 GMT 47.901367 -7.868676 33,000 80 517 0
2018-10-11 02:27:28 GMT 47.898903 -7.890789 33,000 80 518 0
2018-10-11 02:27:25 GMT 47.897457 -7.903466 33,000 79 517 0
2018-10-11 02:27:18 GMT 47.894806 -7.926018 33,000 80 516 0
2018-10-11 02:27:14 GMT 47.893314 -7.940580 33,000 82 514 -64
2018-10-11 02:27:08 GMT 47.891590 -7.961919 33,000 84 511 0
2018-10-11 02:27:04 GMT 47.890800 -7.975933 33,000 86 509 64
2018-10-11 02:26:58 GMT 47.889954 -7.998116 33,000 88 506 0
2018-10-11 02:26:54 GMT 47.889778 -8.010442 33,000 89 504 0
2018-10-11 02:26:48 GMT 47.889908 -8.032036 33,000 92 500 0
2018-10-11 02:26:44 GMT 47.890320 -8.045837 33,000 93 498 64
2018-10-11 02:26:34 GMT 47.892292 -8.080092 33,000 97 493 0
2018-10-11 02:26:23 GMT 47.895687 -8.114953 33,000 100 488 0
2018-10-11 02:26:16 GMT 47.898903 -8.138616 33,000 103 484 -64
2018-10-11 02:26:13 GMT 47.900391 -8.148334 33,000 103 484 -64
2018-10-11 02:26:07 GMT 47.903732 -8.168198 33,000 104 483 0
2018-10-11 02:26:03 GMT 47.906067 -8.182068 33,000 104 483 0
2018-10-11 02:25:57 GMT 47.909363 -8.201775 33,000 104 483 0
2018-10-11 02:25:52 GMT 47.911697 -8.215919 33,000 104 483 0
2018-10-11 02:25:46 GMT 47.914902 -8.234940 33,000 104 482 0
2018-10-11 02:25:41 GMT 47.917709 -8.251507 33,000 104 482 0
2018-10-11 02:25:36 GMT 47.920315 -8.266930 33,000 104 482 0
2018-10-11 02:25:32 GMT 47.922596 -8.280100 33,000 104 482 0
2018-10-11 02:25:26 GMT 47.925842 -8.299553 33,000 104 482 64
2018-10-11 02:25:19 GMT 47.929550 -8.321457 33,000 103 482 64
2018-10-11 02:25:15 GMT 47.931767 -8.334750 33,000 104 482 0
2018-10-11 02:24:56 GMT 47.942413 -8.397812 33,025 103 481 0
2018-10-11 02:24:46 GMT 47.947735 -8.429753 33,000 103 480 0
2018-10-11 02:24:39 GMT 47.951038 -8.449613 33,000 103 480 0
2018-10-11 02:24:36 GMT 47.953182 -8.462431 33,000 103 480 0
2018-10-11 02:24:26 GMT 47.958572 -8.494629 33,000 104 479 0
2018-10-11 02:24:21 GMT 47.961189 -8.510179 33,000 104 479 0
2018-10-11 02:24:15 GMT 47.963974 -8.526627 33,000 104 479 -64
2018-10-11 02:24:11 GMT 47.966496 -8.541800 33,000 103 478 64
2018-10-11 02:24:05 GMT 47.969566 -8.560674 33,000 103 479 0
2018-10-11 02:23:55 GMT 47.974915 -8.594193 33,000 103 478 0
2018-10-11 02:23:45 GMT 47.979668 -8.624127 33,000 103 477 0
2018-10-11 02:23:34 GMT 47.985168 -8.659492 33,000 101 480 0
2018-10-11 02:23:25 GMT 47.988327 -8.689200 33,000 95 488 -64
2018-10-11 02:23:15 GMT 47.989792 -8.723969 33,000 90 494 0
2018-10-11 02:23:02 GMT 47.988235 -8.767160 33,000 83 502 0
2018-10-11 02:22:54 GMT 47.985489 -8.793288 33,025 77 509 0
2018-10-11 02:22:43 GMT 47.978367 -8.833853 33,025 71 516 -128
2018-10-11 02:22:34 GMT 47.971195 -8.862586 33,000 68 518 -64
2018-10-11 02:22:23 GMT 47.962166 -8.897447 33,000 68 517 0
2018-10-11 02:22:13 GMT 47.953491 -8.930786 33,000 68 516 0
2018-10-11 02:22:03 GMT 47.944931 -8.963882 33,000 68 515 0
2018-10-11 02:21:53 GMT 47.935547 -8.999931 33,000 68 514 0
2018-10-11 02:21:43 GMT 47.927391 -9.031466 33,000 68 514 0
2018-10-11 02:21:32 GMT 47.918472 -9.065575 33,000 68 513 0
2018-10-11 02:21:23 GMT 47.909935 -9.098299 33,000 68 514 0
2018-10-11 02:21:12 GMT 47.901260 -9.131355 33,000 68 514 0
2018-10-11 02:21:03 GMT 47.891922 -9.166855 33,000 68 513 0
2018-10-11 02:20:52 GMT 47.883362 -9.199333 33,000 68 512 0
2018-10-11 02:20:42 GMT 47.874741 -9.231896 33,000 68 512 64
2018-10-11 02:20:31 GMT 47.865757 -9.265982 33,000 68 512 0
2018-10-11 02:20:22 GMT 47.857315 -9.297867 33,000 68 512 0
2018-10-11 02:20:11 GMT 47.847786 -9.334013 33,000 74 506 0
We lost coverage of the aircraft here for a total of 224 minutes
2018-10-10 22:36:06 GMT 43.763851 -59.558846 31,000 72 546 0
2018-10-10 22:35:57 GMT 43.757240 -59.588142 31,000 72 546 0
2018-10-10 22:35:37 GMT 43.742020 -59.655125 31,000 72 545 0
2018-10-10 22:35:31 GMT 43.737350 -59.675755 31,000 72 545 0
2018-10-10 22:35:25 GMT 43.732986 -59.694866 31,000 72 546 0
2018-10-10 22:35:16 GMT 43.725540 -59.727554 31,000 72 545 0
2018-10-10 22:35:01 GMT 43.714645 -59.775501 31,000 72 545 0
2018-10-10 22:34:54 GMT 43.709152 -59.799541 31,000 72 545 0
2018-10-10 22:34:44 GMT 43.702194 -59.830074 31,000 72 545 0
2018-10-10 22:34:04 GMT 43.670513 -59.967957 31,000 72 545 0
2018-10-10 22:33:36 GMT 43.650497 -60.054733 31,000 72 545 0
2018-10-10 22:33:31 GMT 43.645981 -60.074287 31,000 72 545 0
2018-10-10 22:33:15 GMT 43.631458 -60.137199 31,000 72 545 0
2018-10-10 22:32:55 GMT 43.619202 -60.189941 31,000 72 544 0
2018-10-10 22:32:47 GMT 43.612747 -60.217663 31,000 72 544 0
2018-10-10 22:32:37 GMT 43.604877 -60.251507 31,000 72 543 0
2018-10-10 22:32:26 GMT 43.596451 -60.287601 31,000 72 543 0
2018-10-10 22:32:16 GMT 43.588631 -60.321022 31,000 72 542 0
2018-10-10 22:32:05 GMT 43.580704 -60.355053 31,000 72 543 0
2018-10-10 22:31:56 GMT 43.572876 -60.388206 31,000 72 543 0
2018-10-10 22:31:44 GMT 43.564377 -60.424541 31,000 72 543 0
2018-10-10 22:31:32 GMT 43.553436 -60.471233 31,000 72 543 0
2018-10-10 22:31:24 GMT 43.548080 -60.493862 31,000 72 543 0
2018-10-10 22:31:13 GMT 43.539612 -60.530025 31,000 71 542 0
2018-10-10 22:31:02 GMT 43.531815 -60.562965 31,000 71 541 0
2018-10-10 22:30:52 GMT 43.523457 -60.598103 31,000 71 541 0
2018-10-10 22:30:41 GMT 43.515656 -60.630989 31,000 71 541 0
2018-10-10 22:30:30 GMT 43.507210 -60.666504 31,000 71 540 0
2018-10-10 22:30:19 GMT 43.497993 -60.705349 31,000 71 540 0
2018-10-10 22:30:03 GMT 43.485626 -60.757397 31,000 71 539 0
2018-10-10 22:29:59 GMT 43.482513 -60.770363 31,000 71 539 0
2018-10-10 22:29:49 GMT 43.475006 -60.801983 31,000 71 538 0
2018-10-10 22:29:27 GMT 43.457886 -60.873455 31,000 71 539 0
2018-10-10 22:29:18 GMT 43.450607 -60.903603 31,000 71 538 0
2018-10-10 22:29:04 GMT 43.440536 -60.945442 31,000 71 537 0
2018-10-10 22:28:53 GMT 43.431328 -60.983864 31,000 71 537 0
2018-10-10 22:28:44 GMT 43.424484 -61.012379 31,000 71 537 0
2018-10-10 22:28:24 GMT 43.408905 -61.076958 31,000 71 537 0
2018-10-10 22:28:11 GMT 43.397232 -61.125118 31,000 71 536 0
2018-10-10 22:28:04 GMT 43.392471 -61.144791 31,000 71 536 0
2018-10-10 22:27:53 GMT 43.383957 -61.179668 31,000 71 535 0
2018-10-10 22:27:41 GMT 43.375397 -61.214733 31,000 71 535 0
2018-10-10 22:27:33 GMT 43.367599 -61.246754 31,000 71 534 0
2018-10-10 22:27:22 GMT 43.359879 -61.278416 31,000 71 534 0
2018-10-10 22:27:10 GMT 43.350998 -61.314697 31,000 71 534 0
2018-10-10 22:26:57 GMT 43.339340 -61.362370 31,000 71 534 0
2018-10-10 22:26:46 GMT 43.332230 -61.391411 31,000 71 534 0
2018-10-10 22:26:37 GMT 43.323807 -61.425774 31,000 71 534 0
2018-10-10 22:26:25 GMT 43.315475 -61.459755 31,000 71 535 0
2018-10-10 22:26:16 GMT 43.308105 -61.489758 31,000 71 535 0
2018-10-10 22:26:05 GMT 43.300186 -61.521969 31,000 71 534 0
2018-10-10 22:25:56 GMT 43.292267 -61.553970 31,000 71 534 0
2018-10-10 22:25:53 GMT 43.289978 -61.563293 31,000 71 534 0
2018-10-10 22:25:44 GMT 43.282177 -61.594784 31,000 71 533 0
2018-10-10 22:25:41 GMT 43.280499 -61.601521 31,000 71 533 0
2018-10-10 22:25:22 GMT 43.264812 -61.664688 31,000 71 532 0
2018-10-10 22:25:14 GMT 43.259365 -61.686729 31,000 71 532 0
2018-10-10 22:25:09 GMT 43.255371 -61.702797 31,000 71 531 0
2018-10-10 22:25:01 GMT 43.248100 -61.731915 31,000 71 531 0
2018-10-10 22:24:49 GMT 43.239349 -61.766991 31,000 71 531 0
2018-10-10 22:24:42 GMT 43.230698 -61.801674 31,000 71 531 0
2018-10-10 22:24:32 GMT 43.226212 -61.819748 31,000 71 531 0
2018-10-10 22:24:23 GMT 43.218109 -61.852196 31,000 71 531 0
2018-10-10 22:24:14 GMT 43.211472 -61.878895 31,000 71 531 0
2018-10-10 22:24:08 GMT 43.207260 -61.895760 31,000 71 530 0
2018-10-10 22:24:00 GMT 43.199360 -61.927315 31,000 71 530 0
2018-10-10 22:23:49 GMT 43.191772 -61.957462 31,000 70 530 0
2018-10-10 22:23:46 GMT 43.189728 -61.965572 31,000 70 530 0
2018-10-10 22:23:40 GMT 43.184235 -61.987419 31,000 70 530 0
2018-10-10 22:23:36 GMT 43.181808 -61.996937 31,000 70 530 0
2018-10-10 22:23:29 GMT 43.175713 -62.021156 31,000 70 530 0
2018-10-10 22:23:26 GMT 43.173801 -62.028744 31,000 70 530 0
2018-10-10 22:23:18 GMT 43.166821 -62.056274 31,000 70 530 0
2018-10-10 22:23:15 GMT 43.163563 -62.069221 31,000 70 530 0
2018-10-10 22:23:09 GMT 43.159424 -62.085529 31,000 70 530 0
2018-10-10 22:23:05 GMT 43.157272 -62.094090 31,000 70 530 0
2018-10-10 22:22:55 GMT 43.148346 -62.129475 31,000 70 530 0
2018-10-10 22:22:45 GMT 43.140377 -62.160973 31,000 70 530 0
2018-10-10 22:22:35 GMT 43.131683 -62.195328 31,000 70 529 0
2018-10-10 22:22:23 GMT 43.122986 -62.229439 31,000 70 529 0
2018-10-10 22:22:12 GMT 43.114700 -62.261887 31,000 70 529 0
2018-10-10 22:22:02 GMT 43.106232 -62.294971 31,000 70 528 0
2018-10-10 22:21:52 GMT 43.098106 -62.326683 31,000 70 529 0
2018-10-10 22:21:41 GMT 43.089169 -62.361603 31,000 70 529 0
2018-10-10 22:21:30 GMT 43.080322 -62.396149 31,000 70 529 0
2018-10-10 22:21:20 GMT 43.072132 -62.428177 31,000 70 530 0
2018-10-10 22:21:09 GMT 43.063568 -62.461555 31,000 70 531 0
2018-10-10 22:21:00 GMT 43.055653 -62.492393 31,000 70 531 0
2018-10-10 22:20:49 GMT 43.046448 -62.528240 31,000 70 531 0
2018-10-10 22:20:36 GMT 43.036652 -62.566242 31,000 70 532 0
2018-10-10 22:20:27 GMT 43.029446 -62.594276 31,000 70 533 0
2018-10-10 22:20:17 GMT 43.021317 -62.625839 31,000 70 533 0
2018-10-10 22:20:06 GMT 43.012218 -62.660851 31,000 70 533 0
2018-10-10 22:19:56 GMT 43.003700 -62.693810 31,000 70 533 0
2018-10-10 22:19:46 GMT 42.995228 -62.726440 31,000 70 533 0
2018-10-10 22:19:35 GMT 42.986206 -62.761124 31,000 70 533 0
2018-10-10 22:19:24 GMT 42.977875 -62.793060 31,000 70 532 0
2018-10-10 22:19:14 GMT 42.968811 -62.827808 31,000 70 532 0
2018-10-10 22:19:04 GMT 42.960892 -62.858150 31,000 70 532 0
2018-10-10 22:18:53 GMT 42.951141 -62.895550 31,000 70 531 0
2018-10-10 22:18:43 GMT 42.943554 -62.924522 31,000 70 530 0
2018-10-10 22:18:33 GMT 42.934433 -62.959324 31,000 70 531 0
2018-10-10 22:18:22 GMT 42.926235 -62.990635 31,000 70 531 0
2018-10-10 22:18:12 GMT 42.917114 -63.025166 31,000 70 531 0
2018-10-10 22:18:00 GMT 42.908157 -63.059223 31,000 70 529 0
2018-10-10 22:17:50 GMT 42.899471 -63.092323 31,000 70 528 0
2018-10-10 22:17:39 GMT 42.890900 -63.124760 31,000 70 529 0
2018-10-10 22:17:30 GMT 42.882664 -63.155888 31,000 70 529 0
2018-10-10 22:17:18 GMT 42.873589 -63.190350 31,000 70 528 0
2018-10-10 22:17:05 GMT 42.862061 -63.233917 31,000 70 528 0
2018-10-10 22:16:58 GMT 42.856594 -63.254372 31,000 70 528 0
2018-10-10 22:16:48 GMT 42.847321 -63.289234 31,000 70 528 0
2018-10-10 22:16:33 GMT 42.836609 -63.329540 31,000 70 528 0
2018-10-10 22:16:26 GMT 42.829880 -63.354832 31,000 70 528 0
2018-10-10 22:16:14 GMT 42.820610 -63.389675 31,000 70 528 0
2018-10-10 22:16:03 GMT 42.810745 -63.426628 31,000 69 528 0
2018-10-10 22:15:54 GMT 42.803387 -63.453964 31,000 69 530 0
2018-10-10 22:15:44 GMT 42.795364 -63.483810 31,000 69 530 0
2018-10-10 22:15:33 GMT 42.785744 -63.519691 31,000 69 531 0
2018-10-10 22:15:23 GMT 42.777374 -63.550854 31,000 69 531 0
2018-10-10 22:15:13 GMT 42.768101 -63.585484 31,000 69 531 0
2018-10-10 22:15:01 GMT 42.758976 -63.619335 31,000 69 531 0
2018-10-10 22:14:52 GMT 42.750641 -63.650314 31,000 69 531 0
2018-10-10 22:14:40 GMT 42.741333 -63.684677 31,000 69 531 0
2018-10-10 22:14:31 GMT 42.732952 -63.715656 31,000 69 531 0
2018-10-10 22:14:19 GMT 42.723404 -63.750854 31,000 69 531 0
2018-10-10 22:14:10 GMT 42.714935 -63.781960 31,000 69 531 0
2018-10-10 22:13:58 GMT 42.705597 -63.816208 31,000 69 531 0
2018-10-10 22:13:49 GMT 42.697388 -63.846470 31,000 69 533 0
2018-10-10 22:13:37 GMT 42.687607 -63.882317 31,000 69 533 0
2018-10-10 22:13:26 GMT 42.678680 -63.915272 31,000 69 533 0
2018-10-10 22:13:16 GMT 42.670212 -63.946297 31,000 69 534 0
2018-10-10 22:13:06 GMT 42.660736 -63.981129 31,000 69 534 0
2018-10-10 22:12:55 GMT 42.652279 -64.011971 31,000 69 533 0
2018-10-10 22:12:46 GMT 42.643478 -64.044113 31,000 69 533 0
2018-10-10 22:12:35 GMT 42.634415 -64.077011 31,000 69 534 0
2018-10-10 22:12:25 GMT 42.624996 -64.111359 31,000 69 534 0
2018-10-10 22:12:13 GMT 42.615234 -64.146675 31,000 69 535 64
2018-10-10 22:12:04 GMT 42.607224 -64.175888 31,000 69 535 0
2018-10-10 22:11:53 GMT 42.598206 -64.208534 31,000 69 534 0
2018-10-10 22:11:43 GMT 42.588730 -64.242744 31,000 69 534 0
2018-10-10 22:11:32 GMT 42.579895 -64.274704 31,000 69 534 0
2018-10-10 22:11:22 GMT 42.570858 -64.307449 31,000 69 535 0
2018-10-10 22:11:10 GMT 42.561172 -64.342369 31,000 69 535 0
2018-10-10 22:11:01 GMT 42.552429 -64.373955 31,000 69 534 0
2018-10-10 22:10:49 GMT 42.542927 -64.408180 31,000 69 534 0
2018-10-10 22:10:39 GMT 42.533150 -64.443184 31,000 69 533 0
2018-10-10 22:10:28 GMT 42.524963 -64.472641 31,000 69 533 0
2018-10-10 22:10:19 GMT 42.515533 -64.506287 31,000 69 532 0
2018-10-10 22:10:07 GMT 42.506615 -64.538162 31,000 69 531 0
2018-10-10 22:09:57 GMT 42.497025 -64.572334 31,000 69 531 0
2018-10-10 22:09:46 GMT 42.488251 -64.603539 31,000 69 530 0
2018-10-10 22:09:35 GMT 42.478775 -64.637314 31,000 69 530 0
2018-10-10 22:09:25 GMT 42.470024 -64.668465 31,000 69 530 0
2018-10-10 22:09:15 GMT 42.460922 -64.700798 31,000 69 530 0
2018-10-10 22:09:04 GMT 42.451172 -64.735504 31,000 69 530 0
2018-10-10 22:08:54 GMT 42.442467 -64.766380 31,000 69 531 0
2018-10-10 22:08:43 GMT 42.432735 -64.800751 31,000 69 531 0
2018-10-10 22:08:33 GMT 42.423985 -64.831726 31,000 69 531 0
2018-10-10 22:08:22 GMT 42.414677 -64.864555 31,000 69 531 0
2018-10-10 22:08:11 GMT 42.405041 -64.898537 31,000 69 530 0
2018-10-10 22:08:01 GMT 42.396240 -64.929634 31,000 69 530 0
2018-10-10 22:07:49 GMT 42.385765 -64.966568 31,000 69 530 0
2018-10-10 22:07:40 GMT 42.377792 -64.994492 31,000 69 530 0
2018-10-10 22:07:30 GMT 42.368866 -65.025642 31,000 68 530 0
2018-10-10 22:07:20 GMT 42.359436 -65.058662 31,000 68 530 0
2018-10-10 22:07:09 GMT 42.350098 -65.091370 31,000 68 530 0
2018-10-10 22:06:58 GMT 42.340054 -65.126381 31,000 68 530 0
2018-10-10 22:06:47 GMT 42.331284 -65.157043 31,000 68 530 0
2018-10-10 22:06:36 GMT 42.320595 -65.194214 31,000 68 530 0
2018-10-10 22:06:27 GMT 42.312790 -65.221458 31,000 68 530 0
2018-10-10 22:06:17 GMT 42.303360 -65.254105 31,000 68 530 0
2018-10-10 22:06:06 GMT 42.294342 -65.285446 31,000 68 530 0
2018-10-10 22:05:55 GMT 42.283722 -65.322395 31,000 68 530 0
2018-10-10 22:05:45 GMT 42.275665 -65.350365 31,000 68 530 0
2018-10-10 22:05:34 GMT 42.265846 -65.384430 31,000 68 530 0
2018-10-10 22:05:24 GMT 42.257004 -65.414833 31,000 68 530 0
2018-10-10 22:05:14 GMT 42.247459 -65.447731 31,000 68 530 0
2018-10-10 22:05:02 GMT 42.238102 -65.479988 31,000 68 529 0
2018-10-10 22:04:53 GMT 42.228745 -65.512039 31,000 68 529 0
2018-10-10 22:04:45 GMT 42.222649 -65.533066 31,000 68 529 0
2018-10-10 22:04:41 GMT 42.218967 -65.545647 31,000 68 529 0
2018-10-10 22:04:32 GMT 42.210030 -65.576309 31,000 68 530 0
2018-10-10 22:04:20 GMT 42.200363 -65.609665 31,000 68 530 0
2018-10-10 22:04:10 GMT 42.191364 -65.640503 31,000 68 530 0
2018-10-10 22:03:58 GMT 42.180702 -65.677032 31,000 68 529 0
2018-10-10 22:03:48 GMT 42.171844 -65.707169 31,000 68 528 0
2018-10-10 22:03:37 GMT 42.161758 -65.741615 31,000 68 527 0
2018-10-10 22:03:26 GMT 42.151886 -65.774956 31,000 68 527 0
2018-10-10 22:03:12 GMT 42.138618 -65.819923 31,000 68 527 -64
2018-10-10 22:03:06 GMT 42.134262 -65.834694 31,000 68 528 0
2018-10-10 22:02:56 GMT 42.124981 -65.866295 31,000 68 529 0
2018-10-10 22:02:46 GMT 42.115482 -65.898361 31,000 68 530 0
2018-10-10 22:02:34 GMT 42.105007 -65.933876 31,000 68 530 0
2018-10-10 22:02:23 GMT 42.095467 -65.966064 31,000 68 531 0
2018-10-10 22:02:13 GMT 42.085598 -65.999474 31,000 68 531 0
2018-10-10 22:02:04 GMT 42.077217 -66.027641 31,000 68 531 0
2018-10-10 22:01:59 GMT 42.073288 -66.041000 31,000 68 531 0
2018-10-10 22:01:49 GMT 42.063950 -66.072418 31,000 68 532 0
2018-10-10 22:01:44 GMT 42.059738 -66.086693 31,000 68 532 0
2018-10-10 22:01:39 GMT 42.054886 -66.102989 31,000 68 533 0
2018-10-10 22:01:35 GMT 42.050823 -66.116684 31,000 68 533 0
2018-10-10 22:01:30 GMT 42.045547 -66.134323 31,000 68 533 0
2018-10-10 22:01:24 GMT 42.041611 -66.147560 31,000 68 533 0
2018-10-10 22:01:14 GMT 42.032063 -66.179596 31,000 68 533 0
2018-10-10 22:01:03 GMT 42.021057 -66.216286 31,000 68 532 0
2018-10-10 22:00:52 GMT 42.011860 -66.247047 31,000 68 532 0
2018-10-10 22:00:41 GMT 42.001923 -66.280266 31,000 68 532 0
2018-10-10 22:00:31 GMT 41.992867 -66.310471 31,000 68 532 0
2018-10-10 22:00:22 GMT 41.984627 -66.338005 31,000 68 532 0
2018-10-10 22:00:19 GMT 41.981918 -66.347061 31,000 68 532 0
2018-10-10 22:00:11 GMT 41.973034 -66.376587 31,000 67 532 0
2018-10-10 21:59:59 GMT 41.963398 -66.408455 31,000 67 532 0
2018-10-10 21:59:49 GMT 41.954041 -66.439507 31,000 67 532 0
2018-10-10 21:59:40 GMT 41.944382 -66.471657 31,000 67 532 0
2018-10-10 21:59:28 GMT 41.933327 -66.508102 31,000 67 530 0
2018-10-10 21:59:16 GMT 41.923187 -66.541817 31,000 67 530 0
2018-10-10 21:59:08 GMT 41.915730 -66.566612 31,000 67 529 -64
2018-10-10 21:58:56 GMT 41.904324 -66.604233 31,000 67 530 0
2018-10-10 21:58:45 GMT 41.894760 -66.635704 31,000 67 530 0
2018-10-10 21:58:34 GMT 41.885052 -66.667725 31,000 67 530 0
2018-10-10 21:58:24 GMT 41.875443 -66.699181 31,000 67 530 0
2018-10-10 21:58:14 GMT 41.865326 -66.732330 31,000 67 530 0
2018-10-10 21:58:03 GMT 41.855026 -66.766037 31,000 67 530 0
2018-10-10 21:57:50 GMT 41.843945 -66.802368 31,000 67 530 0
2018-10-10 21:57:40 GMT 41.834152 -66.834450 31,000 67 530 0
2018-10-10 21:57:29 GMT 41.824905 -66.864792 31,000 67 530 0
2018-10-10 21:57:15 GMT 41.811638 -66.908012 31,000 68 530 0
2018-10-10 21:57:06 GMT 41.802605 -66.938103 31,000 68 530 0
2018-10-10 21:56:57 GMT 41.794876 -66.965759 31,000 70 530 0
2018-10-10 21:56:47 GMT 41.786957 -66.996315 31,000 72 531 0
2018-10-10 21:56:36 GMT 41.778725 -67.030846 31,000 73 531 0
2018-10-10 21:56:21 GMT 41.769104 -67.077217 31,000 75 531 0
2018-10-10 21:56:17 GMT 41.766434 -67.091721 31,000 76 532 0
2018-10-10 21:56:13 GMT 41.763794 -67.105927 31,000 76 532 0
2018-10-10 21:56:03 GMT 41.758209 -67.136269 31,000 76 532 0
2018-10-10 21:55:54 GMT 41.753723 -67.160484 31,000 75 532 0
2018-10-10 21:55:50 GMT 41.750748 -67.176285 31,000 75 532 0
2018-10-10 21:55:45 GMT 41.747818 -67.192131 31,000 75 532 0
2018-10-10 21:55:40 GMT 41.744648 -67.208862 31,000 75 532 0
2018-10-10 21:55:33 GMT 41.740829 -67.229240 31,000 76 532 0
2018-10-10 21:55:29 GMT 41.737804 -67.245529 31,000 76 531 0
2018-10-10 21:55:23 GMT 41.734875 -67.261497 31,000 76 531 0
2018-10-10 21:55:18 GMT 41.731979 -67.276901 31,000 76 530 0
2018-10-10 21:55:13 GMT 41.728355 -67.296494 31,000 76 530 0
2018-10-10 21:55:08 GMT 41.725296 -67.312859 31,000 76 529 0
2018-10-10 21:55:01 GMT 41.721771 -67.331589 31,000 76 529 0
2018-10-10 21:54:57 GMT 41.718811 -67.347595 31,000 75 528 0
2018-10-10 21:54:51 GMT 41.715546 -67.364853 31,000 75 527 0
2018-10-10 21:54:45 GMT 41.711689 -67.385536 31,000 75 526 0
2018-10-10 21:54:40 GMT 41.709320 -67.398003 31,000 75 527 0
2018-10-10 21:54:34 GMT 41.705933 -67.415977 31,000 75 525 0
2018-10-10 21:54:29 GMT 41.702938 -67.431847 31,000 75 525 0
2018-10-10 21:54:21 GMT 41.698517 -67.455307 31,000 75 524 0
2018-10-10 21:54:18 GMT 41.696411 -67.466606 31,000 75 524 0
2018-10-10 21:54:11 GMT 41.692326 -67.488052 31,000 75 523 0
2018-10-10 21:54:08 GMT 41.690552 -67.497627 31,000 75 523 0
2018-10-10 21:53:57 GMT 41.684326 -67.530525 31,000 75 522 0
2018-10-10 21:53:51 GMT 41.679840 -67.553932 31,000 75 522 0
2018-10-10 21:53:46 GMT 41.677521 -67.566299 31,000 75 523 0
2018-10-10 21:53:38 GMT 41.672836 -67.590820 31,000 75 522 0
2018-10-10 21:53:35 GMT 41.671005 -67.600502 31,000 75 522 0
2018-10-10 21:53:25 GMT 41.665054 -67.631775 31,000 75 522 0
2018-10-10 21:53:14 GMT 41.657776 -67.669792 31,000 75 520 0
2018-10-10 21:53:04 GMT 41.651779 -67.701187 31,000 75 520 0
2018-10-10 21:52:56 GMT 41.647263 -67.724960 31,000 75 520 0
2018-10-10 21:52:53 GMT 41.645912 -67.732117 31,000 75 519 0
2018-10-10 21:52:45 GMT 41.640793 -67.758987 31,000 75 519 0
2018-10-10 21:52:41 GMT 41.638557 -67.770569 31,000 75 519 0
2018-10-10 21:52:31 GMT 41.632877 -67.800339 31,000 75 518 0
2018-10-10 21:52:21 GMT 41.626831 -67.832024 31,000 75 517 0
2018-10-10 21:52:10 GMT 41.620514 -67.864731 31,000 75 517 0
2018-10-10 21:52:02 GMT 41.614956 -67.893593 31,000 75 517 0
2018-10-10 21:51:49 GMT 41.607880 -67.930466 31,000 75 516 0
2018-10-10 21:51:39 GMT 41.601288 -67.964363 31,000 75 516 0
2018-10-10 21:51:27 GMT 41.595108 -67.996384 31,000 75 515 0
2018-10-10 21:51:17 GMT 41.588791 -68.028816 31,000 75 515 0
2018-10-10 21:51:07 GMT 41.582367 -68.061646 31,000 75 514 0
2018-10-10 21:50:56 GMT 41.576157 -68.093697 31,000 75 514 0
2018-10-10 21:50:44 GMT 41.569519 -68.127716 31,000 75 513 0
2018-10-10 21:50:35 GMT 41.563156 -68.160179 31,000 75 513 0
2018-10-10 21:50:24 GMT 41.556580 -68.193672 31,000 75 513 0
2018-10-10 21:50:13 GMT 41.550152 -68.226440 31,000 75 513 0
2018-10-10 21:50:01 GMT 41.543518 -68.260239 31,000 75 513 0
2018-10-10 21:49:51 GMT 41.536972 -68.293571 31,000 75 513 -64
2018-10-10 21:49:40 GMT 41.530426 -68.326904 31,000 75 513 0
2018-10-10 21:49:32 GMT 41.525528 -68.351692 31,000 75 513 0
2018-10-10 21:49:29 GMT 41.523422 -68.362366 31,000 75 513 0
2018-10-10 21:49:21 GMT 41.519028 -68.384712 31,000 75 513 0
2018-10-10 21:49:18 GMT 41.517101 -68.394363 31,000 75 513 0
2018-10-10 21:49:10 GMT 41.512493 -68.417618 31,000 75 513 0
2018-10-10 21:49:05 GMT 41.508865 -68.436089 31,000 75 513 0
2018-10-10 21:48:59 GMT 41.506023 -68.450317 31,000 75 513 0
2018-10-10 21:48:55 GMT 41.503227 -68.464432 31,000 75 514 0
2018-10-10 21:48:48 GMT 41.499458 -68.483406 31,000 75 514 0
2018-10-10 21:48:45 GMT 41.497036 -68.495605 31,000 75 515 0
2018-10-10 21:48:38 GMT 41.492989 -68.516174 31,000 75 515 0
2018-10-10 21:48:34 GMT 41.490005 -68.531029 31,000 75 516 0
2018-10-10 21:48:26 GMT 41.485958 -68.551369 31,000 75 516 0
2018-10-10 21:48:22 GMT 41.483276 -68.564735 31,000 75 516 0
2018-10-10 21:48:17 GMT 41.479568 -68.583466 31,000 75 516 0
2018-10-10 21:48:12 GMT 41.476639 -68.597885 31,000 75 516 0
2018-10-10 21:48:04 GMT 41.472336 -68.619293 31,000 75 516 0
2018-10-10 21:48:01 GMT 41.470093 -68.630653 31,000 75 516 0
2018-10-10 21:47:58 GMT 41.468491 -68.638649 31,000 75 515 0
2018-10-10 21:47:55 GMT 41.466797 -68.646889 31,000 75 515 0
2018-10-10 21:47:51 GMT 41.464588 -68.658096 31,000 75 515 0
2018-10-10 21:47:48 GMT 41.462681 -68.667618 31,000 75 515 0
2018-10-10 21:47:45 GMT 41.460075 -68.680458 31,000 75 515 0
2018-10-10 21:47:41 GMT 41.458282 -68.689522 31,000 75 515 0
2018-10-10 21:47:36 GMT 41.455235 -68.704666 31,000 75 515 0
2018-10-10 21:47:32 GMT 41.452744 -68.717049 31,000 75 515 0
2018-10-10 21:47:27 GMT 41.449677 -68.732338 31,000 74 515 0
2018-10-10 21:47:22 GMT 41.446297 -68.749054 31,000 75 516 0
2018-10-10 21:47:17 GMT 41.441128 -68.774796 31,000 74 516 0
2018-10-10 21:47:10 GMT 41.439220 -68.784317 31,000 74 516 0
2018-10-10 21:47:07 GMT 41.436611 -68.797150 31,000 74 516 0
2018-10-10 21:47:00 GMT 41.433029 -68.814911 31,000 74 516 0
2018-10-10 21:46:56 GMT 41.429722 -68.831200 31,000 74 516 0
2018-10-10 21:46:49 GMT 41.426373 -68.847740 31,000 74 516 0
2018-10-10 21:46:43 GMT 41.422043 -68.868881 31,000 74 516 0
2018-10-10 21:46:39 GMT 41.420151 -68.878220 31,000 74 516 0
2018-10-10 21:46:33 GMT 41.415665 -68.900497 31,000 74 517 0
2018-10-10 21:46:30 GMT 41.414127 -68.908165 31,000 74 517 0
2018-10-10 21:46:23 GMT 41.409145 -68.932693 31,000 74 517 0
2018-10-10 21:46:18 GMT 41.406960 -68.943428 31,000 74 517 0
2018-10-10 21:46:11 GMT 41.402721 -68.964310 31,000 74 517 0
2018-10-10 21:46:07 GMT 41.400162 -68.976898 31,000 74 517 0
2018-10-10 21:46:01 GMT 41.396027 -68.997322 31,000 74 517 0
2018-10-10 21:45:56 GMT 41.392822 -69.012993 31,000 74 517 0
2018-10-10 21:45:50 GMT 41.389297 -69.030472 31,000 74 519 0
2018-10-10 21:45:47 GMT 41.387547 -69.038918 31,000 74 519 0
2018-10-10 21:45:42 GMT 41.384399 -69.054443 31,000 74 519 0
2018-10-10 21:45:37 GMT 41.381012 -69.071106 31,000 74 519 0
2018-10-10 21:45:29 GMT 41.375675 -69.097076 31,000 74 519 0
2018-10-10 21:45:25 GMT 41.373440 -69.107872 31,000 74 519 0
2018-10-10 21:45:20 GMT 41.370274 -69.123291 31,000 74 519 0
2018-10-10 21:45:16 GMT 41.367062 -69.138962 31,000 74 520 0
2018-10-10 21:45:11 GMT 41.364597 -69.151009 31,000 74 520 0
2018-10-10 21:45:05 GMT 41.360870 -69.169006 31,000 74 520 0
2018-10-10 21:45:01 GMT 41.358265 -69.181786 31,000 74 520 0
2018-10-10 21:44:55 GMT 41.354233 -69.201294 31,000 74 520 0
2018-10-10 21:44:50 GMT 41.351486 -69.214539 31,000 74 520 0
2018-10-10 21:44:45 GMT 41.347652 -69.233154 31,000 74 520 0
2018-10-10 21:44:42 GMT 41.346626 -69.238091 31,000 74 520 0
2018-10-10 21:44:38 GMT 41.344025 -69.250854 31,000 74 519 0
2018-10-10 21:44:34 GMT 41.340729 -69.266846 31,000 74 519 0
2018-10-10 21:44:30 GMT 41.338154 -69.279350 31,000 74 518 0
2018-10-10 21:44:22 GMT 41.333874 -69.299950 31,000 74 519 0
2018-10-10 21:44:12 GMT 41.327271 -69.332031 31,000 74 518 0
2018-10-10 21:44:07 GMT 41.324234 -69.346581 31,000 74 518 0
2018-10-10 21:44:02 GMT 41.320267 -69.365784 31,000 74 518 0
2018-10-10 21:43:56 GMT 41.317253 -69.380348 31,000 74 518 0
2018-10-10 21:43:51 GMT 41.313480 -69.398453 31,000 74 518 0
2018-10-10 21:43:47 GMT 41.311249 -69.409248 31,000 74 518 0
2018-10-10 21:43:40 GMT 41.302185 -69.452637 31,000 74 518 0
2018-10-10 21:43:34 GMT 41.302185 -69.452637 31,000 74 518 0
2018-10-10 21:43:29 GMT 41.299469 -69.465675 31,000 74 518 0
2018-10-10 21:43:18 GMT 41.292160 -69.500572 31,000 74 518 0
2018-10-10 21:43:12 GMT 41.289322 -69.514366 31,000 74 518 0
2018-10-10 21:43:07 GMT 41.285385 -69.533203 31,000 74 518 0
2018-10-10 21:43:01 GMT 41.282318 -69.547913 31,000 74 518 0
2018-10-10 21:42:54 GMT 41.277172 -69.572609 31,000 74 518 0
2018-10-10 21:42:48 GMT 41.273819 -69.588524 31,000 74 518 0
2018-10-10 21:42:45 GMT 41.271305 -69.600510 31,000 74 518 0
2018-10-10 21:42:39 GMT 41.267715 -69.617798 31,000 74 518 0
2018-10-10 21:42:34 GMT 41.264462 -69.633286 31,000 74 518 0
2018-10-10 21:42:28 GMT 41.260757 -69.650879 31,000 74 518 0
2018-10-10 21:42:22 GMT 41.256363 -69.671753 31,000 74 519 0
2018-10-10 21:42:16 GMT 41.253479 -69.685547 31,000 74 520 0
2018-10-10 21:42:12 GMT 41.249680 -69.703674 31,000 74 520 0
2018-10-10 21:42:07 GMT 41.247051 -69.716057 31,000 74 520 0
2018-10-10 21:41:59 GMT 41.241882 -69.740334 31,000 74 520 0
2018-10-10 21:41:55 GMT 41.239277 -69.752632 31,000 74 520 0
2018-10-10 21:41:50 GMT 41.235413 -69.771049 31,000 74 520 0
2018-10-10 21:41:44 GMT 41.232285 -69.785645 31,000 74 520 0
2018-10-10 21:41:38 GMT 41.227592 -69.807877 31,000 74 520 0
2018-10-10 21:41:30 GMT 41.223450 -69.827232 31,000 74 520 0
2018-10-10 21:41:27 GMT 41.221390 -69.836914 31,000 74 520 0
2018-10-10 21:41:21 GMT 41.217270 -69.856201 31,000 74 520 0
2018-10-10 21:41:16 GMT 41.214046 -69.871422 31,000 74 520 0
2018-10-10 21:41:12 GMT 41.211456 -69.883545 31,000 74 520 0
2018-10-10 21:41:08 GMT 41.208832 -69.895958 31,000 74 520 0
2018-10-10 21:41:04 GMT 41.206551 -69.906693 31,000 74 520 0
2018-10-10 21:41:01 GMT 41.204548 -69.915871 31,000 74 520 0
2018-10-10 21:40:55 GMT 41.200218 -69.936157 31,000 74 520 0
2018-10-10 21:40:51 GMT 41.197723 -69.947937 31,000 74 520 0
2018-10-10 21:40:45 GMT 41.193096 -69.969551 31,000 74 520 0
2018-10-10 21:40:41 GMT 41.190994 -69.979248 31,000 74 520 0
2018-10-10 21:40:35 GMT 41.187511 -69.995644 31,000 74 520 0
2018-10-10 21:40:32 GMT 41.185463 -70.005196 31,000 74 520 0
2018-10-10 21:40:29 GMT 41.183487 -70.014526 31,000 74 520 0
2018-10-10 21:40:26 GMT 41.181412 -70.024231 31,000 74 520 0
2018-10-10 21:40:22 GMT 41.178635 -70.037231 31,000 74 520 0
2018-10-10 21:40:19 GMT 41.177036 -70.044769 31,000 74 520 0
2018-10-10 21:40:16 GMT 41.174927 -70.054443 31,000 74 520 0
2018-10-10 21:40:12 GMT 41.171684 -70.069618 31,000 74 520 0
2018-10-10 21:40:09 GMT 41.170238 -70.076355 31,000 74 520 0
2018-10-10 21:40:05 GMT 41.166981 -70.091652 31,000 74 520 0
2018-10-10 21:40:01 GMT 41.164745 -70.102074 31,000 74 520 0
2018-10-10 21:39:58 GMT 41.163071 -70.109924 31,000 74 520 0
2018-10-10 21:39:55 GMT 41.161011 -70.119385 31,000 74 519 0
2018-10-10 21:39:51 GMT 41.157532 -70.135620 31,000 74 519 0
2018-10-10 21:39:48 GMT 41.156570 -70.140198 31,000 74 519 0
2018-10-10 21:39:43 GMT 41.150391 -70.169006 31,000 74 519 0
2018-10-10 21:39:40 GMT 41.150391 -70.169006 31,000 74 519 0
2018-10-10 21:39:32 GMT 41.145493 -70.191650 31,000 74 521 0
2018-10-10 21:39:27 GMT 41.142746 -70.204529 31,000 74 521 0
2018-10-10 21:39:21 GMT 41.138535 -70.224121 31,000 74 521 0
2018-10-10 21:39:17 GMT 41.135880 -70.236389 31,000 74 521 0
2018-10-10 21:39:11 GMT 41.130997 -70.258881 31,000 73 521 0
2018-10-10 21:39:07 GMT 41.128372 -70.270996 31,000 73 521 0
2018-10-10 21:39:04 GMT 41.127087 -70.276985 31,000 73 521 0
2018-10-10 21:38:56 GMT 41.121735 -70.301514 31,000 73 521 0
2018-10-10 21:38:53 GMT 41.119686 -70.311005 31,000 73 521 0
2018-10-10 21:38:49 GMT 41.117020 -70.323059 31,000 73 521 0
2018-10-10 21:38:46 GMT 41.114750 -70.333664 31,000 73 521 0
2018-10-10 21:38:40 GMT 41.111118 -70.350204 31,000 73 520 0
2018-10-10 21:38:36 GMT 41.108368 -70.362854 31,000 73 520 0
2018-10-10 21:38:33 GMT 41.104431 -70.380920 31,000 73 520 0
2018-10-10 21:38:30 GMT 41.104431 -70.380920 31,000 73 520 0
2018-10-10 21:38:26 GMT 41.101994 -70.392090 31,000 73 520 0
2018-10-10 21:38:23 GMT 41.099213 -70.404785 31,000 73 520 0
2018-10-10 21:38:19 GMT 41.097198 -70.413940 31,000 73 520 0
2018-10-10 21:38:13 GMT 41.092758 -70.434387 31,000 73 520 0
2018-10-10 21:38:10 GMT 41.090637 -70.444023 31,000 73 520 0
2018-10-10 21:38:02 GMT 41.085514 -70.467621 31,000 73 520 0
2018-10-10 21:37:57 GMT 41.082367 -70.481812 31,000 73 520 0
2018-10-10 21:37:53 GMT 41.080162 -70.492088 31,000 73 521 0
2018-10-10 21:37:49 GMT 41.076717 -70.507629 31,000 73 521 0
2018-10-10 21:37:43 GMT 41.073166 -70.523987 31,000 73 521 0
2018-10-10 21:37:40 GMT 41.071178 -70.533035 31,000 73 521 0
2018-10-10 21:37:37 GMT 41.069080 -70.542526 31,000 73 521 0
2018-10-10 21:37:31 GMT 41.065475 -70.559204 31,000 73 520 0
2018-10-10 21:37:28 GMT 41.062637 -70.572021 31,000 73 520 0
2018-10-10 21:37:22 GMT 41.058514 -70.590843 31,000 73 520 0
2018-10-10 21:37:19 GMT 41.056412 -70.600403 31,000 73 520 0
2018-10-10 21:37:11 GMT 41.051468 -70.623047 31,000 73 520 0
2018-10-10 21:37:05 GMT 41.047943 -70.638916 31,000 73 519 0
2018-10-10 21:37:02 GMT 41.043850 -70.657318 31,000 73 520 0
2018-10-10 21:36:55 GMT 41.041214 -70.669373 31,000 73 520 0
2018-10-10 21:36:49 GMT 41.036499 -70.690735 31,000 73 520 0
2018-10-10 21:36:45 GMT 41.034122 -70.701576 31,000 73 519 0
2018-10-10 21:36:41 GMT 41.031422 -70.713814 31,000 73 519 0
2018-10-10 21:36:37 GMT 41.029049 -70.724487 31,000 73 519 0
2018-10-10 21:36:34 GMT 41.027069 -70.733459 31,000 73 519 0
2018-10-10 21:36:30 GMT 41.024460 -70.745361 31,000 73 519 0
2018-10-10 21:36:27 GMT 41.022343 -70.754951 31,000 73 519 0
2018-10-10 21:36:23 GMT 41.019516 -70.767578 31,000 73 519 0
2018-10-10 21:36:20 GMT 41.017178 -70.778107 31,000 73 519 0
2018-10-10 21:36:17 GMT 41.015121 -70.787415 31,000 73 519 0
2018-10-10 21:36:13 GMT 41.012421 -70.799622 31,000 73 520 0
2018-10-10 21:36:09 GMT 41.010288 -70.809196 31,000 73 520 0
2018-10-10 21:36:04 GMT 41.004684 -70.834412 31,000 73 522 0
2018-10-10 21:35:56 GMT 41.000278 -70.854385 31,025 73 517 128
2018-10-10 21:35:51 GMT 40.997669 -70.865997 31,000 73 522 0
2018-10-10 21:35:48 GMT 40.995342 -70.876427 31,000 73 521 -192
2018-10-10 21:35:45 GMT 40.993065 -70.886787 31,000 73 521 -128
2018-10-10 21:35:41 GMT 40.990219 -70.899414 31,025 73 519 -64
2018-10-10 21:35:38 GMT 40.989166 -70.903992 31,025 73 518 0
2018-10-10 21:35:32 GMT 40.982025 -70.935913 31,000 73 517 256
2018-10-10 21:35:28 GMT 40.982025 -70.935913 30,400 73 515 640
2018-10-10 21:35:24 GMT 40.979416 -70.947693 30,975 73 515 640
2018-10-10 21:35:20 GMT 40.976955 -70.958694 30,950 73 514 832
2018-10-10 21:35:17 GMT 40.974861 -70.967995 30,875 73 514 1024
2018-10-10 21:35:13 GMT 40.970020 -70.989655 30,775 73 513 1024
2018-10-10 21:35:10 GMT 40.970020 -70.989655 30,750 73 513 1024
2018-10-10 21:35:07 GMT 40.967880 -70.999146 30,700 73 513 1024
2018-10-10 21:35:03 GMT 40.965084 -71.011566 30,600 73 511 1024
2018-10-10 21:35:00 GMT 40.963028 -71.020752 30,575 73 511 1024
2018-10-10 21:34:57 GMT 40.960430 -71.032295 30,500 73 511 960
2018-10-10 21:34:49 GMT 40.955795 -71.053101 30,375 73 510 960
2018-10-10 21:34:46 GMT 40.953049 -71.065308 30,325 73 509 1024
2018-10-10 21:34:38 GMT 40.948837 -71.084290 30,200 73 509 1152
2018-10-10 21:34:35 GMT 40.945766 -71.097961 30,125 73 509 1152
2018-10-10 21:34:28 GMT 40.941833 -71.115417 29,900 73 508 1152
2018-10-10 21:34:23 GMT 40.937851 -71.133041 29,900 73 508 1088
2018-10-10 21:34:20 GMT 40.936131 -71.140785 29,850 73 506 1088
2018-10-10 21:34:17 GMT 40.934418 -71.148376 29,850 73 506 1088
2018-10-10 21:34:13 GMT 40.931522 -71.161255 29,725 73 505 1088
2018-10-10 21:34:08 GMT 40.928009 -71.176758 29,150 73 503 1152
2018-10-10 21:34:04 GMT 40.925980 -71.185791 29,550 73 504 1152
2018-10-10 21:34:01 GMT 40.922928 -71.199219 29,500 73 504 1152
2018-10-10 21:33:56 GMT 40.920731 -71.208984 29,450 73 504 1152
2018-10-10 21:33:53 GMT 40.918625 -71.218246 29,325 73 503 1216
2018-10-10 21:33:50 GMT 40.916611 -71.227234 29,150 73 504 1216
2018-10-10 21:33:46 GMT 40.914001 -71.238708 29,200 73 503 1216
2018-10-10 21:33:43 GMT 40.911896 -71.248108 29,075 73 503 1216
2018-10-10 21:33:40 GMT 40.907269 -71.268562 29,075 73 502 1152
2018-10-10 21:33:37 GMT 40.907269 -71.268562 29,025 73 502 1152
2018-10-10 21:33:34 GMT 40.905640 -71.275612 28,975 73 497 1280
2018-10-10 21:33:31 GMT 40.903839 -71.283630 28,925 73 501 1152
2018-10-10 21:33:28 GMT 40.900936 -71.296402 28,850 73 501 1152
2018-10-10 21:33:24 GMT 40.896606 -71.315376 28,775 73 500 1216
2018-10-10 21:33:21 GMT 40.896606 -71.315376 28,725 73 500 1216
2018-10-10 21:33:17 GMT 40.894604 -71.324120 28,625 73 498 1216
2018-10-10 21:33:14 GMT 40.892715 -71.332458 28,550 73 498 1216
2018-10-10 21:33:11 GMT 40.890835 -71.340782 28,550 73 498 1216
2018-10-10 21:33:07 GMT 40.887810 -71.354141 28,425 73 497 1280
2018-10-10 21:33:04 GMT 40.885387 -71.364632 28,350 73 497 1280
2018-10-10 21:33:01 GMT 40.884064 -71.370605 28,250 73 497 1216
2018-10-10 21:32:54 GMT 40.879166 -71.392090 28,100 73 497 1216
2018-10-10 21:32:49 GMT 40.875732 -71.407166 28,075 73 496 1088
2018-10-10 21:32:45 GMT 40.871700 -71.424675 27,950 73 495 1152
2018-10-10 21:32:39 GMT 40.869095 -71.436096 27,875 73 494 1216
2018-10-10 21:32:36 GMT 40.866806 -71.446228 27,775 73 493 1280
2018-10-10 21:32:33 GMT 40.864517 -71.456299 27,775 73 493 1280
2018-10-10 21:32:30 GMT 40.860809 -71.472412 27,675 73 493 1408
2018-10-10 21:32:27 GMT 40.860809 -71.472412 27,600 73 492 1344
2018-10-10 21:32:24 GMT 40.859226 -71.479485 27,550 73 492 1344
2018-10-10 21:32:21 GMT 40.855316 -71.496643 27,450 73 492 1280
2018-10-10 21:32:18 GMT 40.855316 -71.496643 27,325 73 492 1280
2018-10-10 21:32:15 GMT 40.852753 -71.507812 27,325 73 491 1216
2018-10-10 21:32:12 GMT 40.851013 -71.515259 27,300 73 491 1280
2018-10-10 21:32:09 GMT 40.849358 -71.522621 27,225 73 490 1280
2018-10-10 21:32:06 GMT 40.846794 -71.533791 27,150 73 490 1280
2018-10-10 21:32:02 GMT 40.845074 -71.541222 27,050 73 490 1344
2018-10-10 21:31:59 GMT 40.843025 -71.550087 27,025 73 490 1280
2018-10-10 21:31:56 GMT 40.841034 -71.558838 26,825 73 490 1280
2018-10-10 21:31:51 GMT 40.837112 -71.575806 26,850 73 489 1280
2018-10-10 21:31:48 GMT 40.836182 -71.579956 26,775 73 489 1280
2018-10-10 21:31:45 GMT 40.833801 -71.590210 26,725 73 489 1344
2018-10-10 21:31:41 GMT 40.830456 -71.604584 26,600 73 488 1280
2018-10-10 21:31:38 GMT 40.829247 -71.610008 26,450 73 487 1344
2018-10-10 21:31:35 GMT 40.827477 -71.617691 26,500 73 487 1280
2018-10-10 21:31:31 GMT 40.823959 -71.632874 26,375 73 487 1344
2018-10-10 21:31:28 GMT 40.822540 -71.638855 26,350 73 486 1344
2018-10-10 21:31:23 GMT 40.819191 -71.653458 26,225 73 486 1408
2018-10-10 21:31:20 GMT 40.816631 -71.664505 26,150 73 486 1472
2018-10-10 21:31:17 GMT 40.815399 -71.669739 26,100 73 486 1472
2018-10-10 21:31:14 GMT 40.813465 -71.678055 25,975 72 485 1280
2018-10-10 21:31:11 GMT 40.811371 -71.687256 25,900 72 485 1216
2018-10-10 21:31:07 GMT 40.808853 -71.697998 25,875 73 483 960
2018-10-10 21:31:03 GMT 40.806381 -71.708740 25,850 73 483 960
2018-10-10 21:31:00 GMT 40.804386 -71.717316 25,775 73 482 960
2018-10-10 21:30:56 GMT 40.801758 -71.728699 25,700 73 481 1152
2018-10-10 21:30:53 GMT 40.799080 -71.740288 25,600 73 480 1280
2018-10-10 21:30:47 GMT 40.795357 -71.756516 25,500 73 479 1216
2018-10-10 21:30:44 GMT 40.793701 -71.763672 25,425 73 478 1216
2018-10-10 21:30:41 GMT 40.792282 -71.769684 25,400 73 478 1216
2018-10-10 21:30:37 GMT 40.788883 -71.784172 25,250 72 477 1152
2018-10-10 21:30:34 GMT 40.786972 -71.792358 25,100 73 475 1280
2018-10-10 21:30:31 GMT 40.785416 -71.799072 25,175 72 476 1216
2018-10-10 21:30:27 GMT 40.782440 -71.811829 25,075 73 475 1472
2018-10-10 21:30:24 GMT 40.781204 -71.817192 25,025 73 475 1600
2018-10-10 21:30:21 GMT 40.778915 -71.827026 24,250 73 475 1984
2018-10-10 21:30:18 GMT 40.776966 -71.835480 24,825 73 475 2048
2018-10-10 21:30:12 GMT 40.773422 -71.850586 24,525 73 476 1792
2018-10-10 21:30:09 GMT 40.771523 -71.858765 24,525 73 476 1920
2018-10-10 21:30:06 GMT 40.769394 -71.868042 24,375 73 476 1728
2018-10-10 21:30:03 GMT 40.764957 -71.887039 24,300 73 476 1536
2018-10-10 21:30:00 GMT 40.764957 -71.887039 24,250 73 475 1600
2018-10-10 21:29:57 GMT 40.763168 -71.894714 24,175 72 476 1600
2018-10-10 21:29:54 GMT 40.761520 -71.901917 24,125 72 476 1600
2018-10-10 21:29:51 GMT 40.758865 -71.913269 24,025 72 476 1536
2018-10-10 21:29:48 GMT 40.757790 -71.917816 23,975 72 475 1536
2018-10-10 21:29:45 GMT 40.755833 -71.926117 23,950 72 475 1536
2018-10-10 21:29:42 GMT 40.754295 -71.932732 23,850 72 474 1408
2018-10-10 21:29:39 GMT 40.751503 -71.944595 23,725 72 473 1344
2018-10-10 21:29:36 GMT 40.749409 -71.953392 23,625 72 472 1344
2018-10-10 21:29:33 GMT 40.747833 -71.960144 23,625 72 472 1344
2018-10-10 21:29:26 GMT 40.743439 -71.978760 23,475 72 470 1536
2018-10-10 21:29:23 GMT 40.741241 -71.988037 23,350 72 470 1728
2018-10-10 21:29:19 GMT 40.738422 -71.999901 23,250 72 470 1728
2018-10-10 21:29:15 GMT 40.736023 -72.010132 23,100 72 469 1472
2018-10-10 21:29:11 GMT 40.734093 -72.018188 23,075 72 468 1024
2018-10-10 21:29:06 GMT 40.730072 -72.035217 23,000 72 466 128
2018-10-10 21:29:03 GMT 40.728321 -72.042656 23,000 72 467 192
2018-10-10 21:29:00 GMT 40.727062 -72.047836 23,000 72 467 64
2018-10-10 21:28:56 GMT 40.724030 -72.060669 23,000 72 466 0
2018-10-10 21:28:53 GMT 40.722130 -72.068687 23,000 72 466 0
2018-10-10 21:28:50 GMT 40.720173 -72.076805 23,000 72 466 0
2018-10-10 21:28:45 GMT 40.716476 -72.092346 23,025 72 466 0
2018-10-10 21:28:42 GMT 40.714725 -72.099777 23,000 72 466 0
2018-10-10 21:28:34 GMT 40.709747 -72.120628 23,000 72 466 0
2018-10-10 21:28:29 GMT 40.706680 -72.133484 22,925 72 468 -64
2018-10-10 21:28:24 GMT 40.702854 -72.149338 23,000 72 467 -64
2018-10-10 21:28:19 GMT 40.700180 -72.160583 23,000 72 467 -64
2018-10-10 21:28:12 GMT 40.696014 -72.178116 23,025 72 468 -64
2018-10-10 21:28:08 GMT 40.692986 -72.190598 23,025 72 468 -64
2018-10-10 21:28:05 GMT 40.690472 -72.201149 23,025 72 469 -64
2018-10-10 21:28:02 GMT 40.689495 -72.205269 23,025 72 469 -64
2018-10-10 21:27:59 GMT 40.687225 -72.214661 23,025 72 470 64
2018-10-10 21:27:56 GMT 40.685307 -72.222687 23,025 72 470 64
2018-10-10 21:27:52 GMT 40.682652 -72.233856 23,000 72 471 384
2018-10-10 21:27:49 GMT 40.680092 -72.244530 22,975 72 471 512
2018-10-10 21:27:41 GMT 40.675716 -72.262825 22,900 72 471 512
2018-10-10 21:27:38 GMT 40.673714 -72.271309 22,875 72 472 512
2018-10-10 21:27:35 GMT 40.671707 -72.279663 22,850 72 472 512
2018-10-10 21:27:30 GMT 40.668686 -72.292412 22,825 72 472 576
2018-10-10 21:27:26 GMT 40.665939 -72.304077 22,775 72 471 576
2018-10-10 21:27:20 GMT 40.661636 -72.322083 22,725 72 470 576
2018-10-10 21:27:16 GMT 40.659348 -72.331909 22,675 73 469 576
2018-10-10 21:27:09 GMT 40.654999 -72.350464 22,600 72 468 576
2018-10-10 21:27:06 GMT 40.652344 -72.361938 22,525 73 467 640
2018-10-10 21:26:59 GMT 40.648407 -72.379089 22,500 73 466 704
2018-10-10 21:26:54 GMT 40.645523 -72.391846 22,425 73 465 704
2018-10-10 21:26:49 GMT 40.641968 -72.407394 22,350 73 463 768
2018-10-10 21:26:43 GMT 40.638428 -72.423370 22,275 73 462 960
2018-10-10 21:26:38 GMT 40.635727 -72.435799 22,050 74 458 1408
2018-10-10 21:26:35 GMT 40.631699 -72.454468 22,125 74 459 1344
2018-10-10 21:26:32 GMT 40.631699 -72.454468 22,050 74 458 1408
2018-10-10 21:26:27 GMT 40.629410 -72.465210 21,950 74 457 1472
2018-10-10 21:26:22 GMT 40.624832 -72.487541 21,700 75 455 2176
2018-10-10 21:26:18 GMT 40.624832 -72.487541 21,625 75 455 2176
2018-10-10 21:26:14 GMT 40.621857 -72.502274 21,550 75 455 2240
2018-10-10 21:26:11 GMT 40.621078 -72.506470 21,475 75 455 2240
2018-10-10 21:26:08 GMT 40.619568 -72.514221 21,375 76 455 2304
2018-10-10 21:26:05 GMT 40.617508 -72.524963 21,225 76 455 2112
2018-10-10 21:26:02 GMT 40.615952 -72.533325 21,125 76 455 1856
2018-10-10 21:25:59 GMT 40.614578 -72.541138 21,075 76 454 1280
2018-10-10 21:25:54 GMT 40.612221 -72.554398 21,025 76 453 576
2018-10-10 21:25:50 GMT 40.609890 -72.567566 21,000 76 453 0
2018-10-10 21:25:47 GMT 40.608868 -72.573189 21,000 76 453 0
2018-10-10 21:25:44 GMT 40.607437 -72.581360 21,000 76 453 0
2018-10-10 21:25:41 GMT 40.606201 -72.588318 21,000 76 453 0
2018-10-10 21:25:35 GMT 40.603329 -72.604584 21,000 76 453 -64
2018-10-10 21:25:32 GMT 40.601852 -72.612732 21,000 76 453 -128
2018-10-10 21:25:28 GMT 40.599884 -72.623779 21,025 76 453 -128
2018-10-10 21:25:25 GMT 40.598557 -72.631287 21,025 76 453 -128
2018-10-10 21:25:22 GMT 40.595737 -72.647217 21,025 76 452 64
2018-10-10 21:25:15 GMT 40.593246 -72.661011 21,000 76 452 256
2018-10-10 21:25:11 GMT 40.591782 -72.669312 20,975 76 452 640
2018-10-10 21:25:06 GMT 40.589401 -72.682678 20,925 76 452 704
2018-10-10 21:25:02 GMT 40.587570 -72.692871 20,875 76 452 960
2018-10-10 21:24:59 GMT 40.584614 -72.709579 20,775 76 448 1856
2018-10-10 21:24:56 GMT 40.584614 -72.709579 20,650 76 450 1664
2018-10-10 21:24:53 GMT 40.583267 -72.717163 20,650 76 450 1792
2018-10-10 21:24:50 GMT 40.581390 -72.727539 20,575 76 449 1792
2018-10-10 21:24:47 GMT 40.580376 -72.733299 20,500 76 449 1792
2018-10-10 21:24:43 GMT 40.578094 -72.746284 20,350 76 448 1856
2018-10-10 21:24:39 GMT 40.576767 -72.753906 20,225 76 448 1856
2018-10-10 21:24:35 GMT 40.574387 -72.767151 19,975 76 448 1920
2018-10-10 21:24:32 GMT 40.573242 -72.773804 19,975 76 447 1920
2018-10-10 21:24:29 GMT 40.571999 -72.780800 19,975 76 447 1920
2018-10-10 21:24:24 GMT 40.569530 -72.794846 19,750 77 447 1920
2018-10-10 21:24:18 GMT 40.564548 -72.823624 19,250 77 443 1856
2018-10-10 21:24:13 GMT 40.564548 -72.823624 19,425 77 444 1856
2018-10-10 21:24:10 GMT 40.562687 -72.834427 19,300 77 444 1856
2018-10-10 21:24:07 GMT 40.562080 -72.838104 19,250 77 443 1856
2018-10-10 21:24:03 GMT 40.559784 -72.851379 19,100 77 443 1856
2018-10-10 21:23:59 GMT 40.558319 -72.860046 19,000 77 442 1856
2018-10-10 21:23:52 GMT 40.555389 -72.877625 18,750 77 441 1856
2018-10-10 21:23:49 GMT 40.553612 -72.888229 18,125 77 436 1728
2018-10-10 21:23:44 GMT 40.551910 -72.898315 18,125 77 436 1728
2018-10-10 21:23:41 GMT 40.550217 -72.908508 18,475 77 434 1792
2018-10-10 21:23:38 GMT 40.549072 -72.915283 18,350 77 439 1792
2018-10-10 21:23:32 GMT 40.546627 -72.929741 18,175 77 437 1728
2018-10-10 21:23:28 GMT 40.544403 -72.943054 18,025 77 436 1728
2018-10-10 21:23:21 GMT 40.541924 -72.957397 17,875 77 434 1792
2018-10-10 21:23:16 GMT 40.539047 -72.973755 17,675 76 432 1728
2018-10-10 21:23:09 GMT 40.535500 -72.992973 17,475 75 431 1792
2018-10-10 21:23:05 GMT 40.533966 -73.000595 17,375 74 430 1792
2018-10-10 21:23:00 GMT 40.531677 -73.011292 17,250 73 428 1984
2018-10-10 21:22:56 GMT 40.529251 -73.022278 17,075 73 429 1984
2018-10-10 21:22:53 GMT 40.527924 -73.028320 17,025 73 428 1984
2018-10-10 21:22:50 GMT 40.523350 -73.048592 16,775 73 428 1984
2018-10-10 21:22:46 GMT 40.523350 -73.048592 16,750 73 426 1984
2018-10-10 21:22:43 GMT 40.521744 -73.055969 16,650 73 426 1984
2018-10-10 21:22:40 GMT 40.520699 -73.060516 16,600 73 426 1984
2018-10-10 21:22:35 GMT 40.516983 -73.077026 16,450 73 425 2048
2018-10-10 21:22:32 GMT 40.516022 -73.081482 16,350 73 425 2048
2018-10-10 21:22:29 GMT 40.514099 -73.089905 16,200 73 424 2112
2018-10-10 21:22:26 GMT 40.511902 -73.099792 16,050 73 424 2176
2018-10-10 21:22:23 GMT 40.510757 -73.104980 16,000 73 424 2176
2018-10-10 21:22:19 GMT 40.508732 -73.113953 15,850 73 422 2112
2018-10-10 21:22:14 GMT 40.505814 -73.127136 15,600 73 422 2112
2018-10-10 21:22:11 GMT 40.504452 -73.133430 15,300 73 422 2112
2018-10-10 21:22:08 GMT 40.502747 -73.141174 15,450 74 421 2112
2018-10-10 21:22:01 GMT 40.498947 -73.158630 15,200 74 420 2112
2018-10-10 21:21:58 GMT 40.497375 -73.165886 15,100 74 419 2048
2018-10-10 21:21:51 GMT 40.493683 -73.183105 14,875 74 418 1920
2018-10-10 21:21:48 GMT 40.492065 -73.190605 14,725 74 418 1856
2018-10-10 21:21:40 GMT 40.487686 -73.211426 14,550 76 415 1664
2018-10-10 21:21:37 GMT 40.486633 -73.217285 14,475 79 413 1664
2018-10-10 21:21:30 GMT 40.484344 -73.234558 14,125 85 410 1664
2018-10-10 21:21:27 GMT 40.483704 -73.242004 14,175 86 409 1728
2018-10-10 21:21:19 GMT 40.482834 -73.262329 13,950 90 408 1856
2018-10-10 21:21:16 GMT 40.482880 -73.268250 13,875 92 407 1920
2018-10-10 21:21:12 GMT 40.483383 -73.281067 13,650 95 405 1984
2018-10-10 21:21:09 GMT 40.483875 -73.288048 13,650 95 405 1984
2018-10-10 21:21:05 GMT 40.484528 -73.294853 13,025 99 403 2112
2018-10-10 21:21:00 GMT 40.486248 -73.308647 13,250 102 402 2240
2018-10-10 21:20:57 GMT 40.487411 -73.315918 13,175 105 400 2240
2018-10-10 21:20:54 GMT 40.488556 -73.322021 13,025 107 400 2176
2018-10-10 21:20:48 GMT 40.494766 -73.347351 12,625 110 398 1984
2018-10-10 21:20:44 GMT 40.494766 -73.347351 12,700 110 397 1984
2018-10-10 21:20:39 GMT 40.497467 -73.356522 12,550 111 396 1920
2018-10-10 21:20:36 GMT 40.499702 -73.364204 12,500 111 395 1920
2018-10-10 21:20:33 GMT 40.502243 -73.372803 12,350 111 394 1984
2018-10-10 21:20:27 GMT 40.505356 -73.383301 12,200 111 392 1920
2018-10-10 21:20:23 GMT 40.508698 -73.394592 12,050 112 382 1280
2018-10-10 21:20:20 GMT 40.509712 -73.398033 12,000 111 390 1728
2018-10-10 21:20:17 GMT 40.511765 -73.404785 11,900 112 385 1536
2018-10-10 21:20:14 GMT 40.514145 -73.412659 11,825 112 386 1664
2018-10-10 21:20:10 GMT 40.516602 -73.420631 11,675 123 335 1152
2018-10-10 21:20:07 GMT 40.518814 -73.427612 11,625 112 382 1280
2018-10-10 21:20:04 GMT 40.520874 -73.434326 11,600 112 380 1152
2018-10-10 21:20:01 GMT 40.522614 -73.439636 11,500 84 308 1984
2018-10-10 21:19:56 GMT 40.525959 -73.449844 11,425 114 368 704
2018-10-10 21:19:53 GMT 40.528660 -73.457901 11,375 116 358 832
2018-10-10 21:19:50 GMT 40.530396 -73.462891 11,100 120 345 1024
2018-10-10 21:19:46 GMT 40.533325 -73.471130 11,375 115 360 768
2018-10-10 21:19:41 GMT 40.536991 -73.480873 11,325 116 357 896
2018-10-10 21:19:35 GMT 40.541565 -73.492432 11,125 118 348 1024
2018-10-10 21:19:32 GMT 40.544300 -73.499039 11,075 121 343 1088
2018-10-10 21:19:24 GMT 40.551544 -73.514954 10,975 123 331 1216
2018-10-10 21:19:17 GMT 40.556488 -73.524841 10,500 95 325 832
2018-10-10 21:19:14 GMT 40.558731 -73.529312 10,700 107 327 896
2018-10-10 21:19:11 GMT 40.562302 -73.536438 10,650 119 329 1024
2018-10-10 21:19:08 GMT 40.563805 -73.539795 10,700 117 329 960
2018-10-10 21:19:03 GMT 40.567749 -73.550903 10,600 105 327 896
2018-10-10 21:19:00 GMT 40.570087 -73.566078 10,500 95 325 832
2018-10-10 21:18:55 GMT 40.570274 -73.570259 10,475 90 324 832
2018-10-10 21:18:48 GMT 40.570042 -73.577873 10,425 85 321 896
2018-10-10 21:18:45 GMT 40.569717 -73.583115 10,350 84 319 896
2018-10-10 21:18:42 GMT 40.569168 -73.590210 10,325 84 317 896
2018-10-10 21:18:37 GMT 40.568573 -73.598389 10,225 84 311 1472
2018-10-10 21:18:32 GMT 40.567886 -73.607239 10,025 84 310 2112
2018-10-10 21:18:29 GMT 40.567337 -73.614563 9,875 84 310 2176
2018-10-10 21:18:26 GMT 40.567017 -73.618950 9,875 84 310 2176
2018-10-10 21:18:22 GMT 40.566193 -73.629578 9,650 84 309 2048
2018-10-10 21:18:17 GMT 40.565529 -73.638428 9,450 84 308 1984
2018-10-10 21:18:13 GMT 40.564957 -73.645630 9,350 84 307 1920
2018-10-10 21:18:06 GMT 40.563992 -73.657959 9,150 84 306 1920
2018-10-10 21:18:00 GMT 40.563198 -73.667763 8,975 83 305 2048
2018-10-10 21:17:55 GMT 40.562363 -73.678314 8,150 83 301 2048
2018-10-10 21:17:50 GMT 40.561523 -73.688049 8,600 83 303 2048
2018-10-10 21:17:46 GMT 40.560974 -73.694397 8,475 83 302 1984
2018-10-10 21:17:43 GMT 40.560562 -73.698914 8,400 83 302 1984
2018-10-10 21:17:39 GMT 40.559967 -73.706238 8,050 83 301 2048
2018-10-10 21:17:35 GMT 40.559143 -73.716064 8,075 83 300 2112
2018-10-10 21:17:31 GMT 40.558544 -73.722694 7,850 83 300 2176
2018-10-10 21:17:28 GMT 40.558033 -73.729057 7,825 83 298 2112
2018-10-10 21:17:23 GMT 40.557381 -73.737175 7,675 83 298 2112
2018-10-10 21:17:18 GMT 40.556625 -73.746155 7,500 83 297 2176
2018-10-10 21:17:14 GMT 40.556122 -73.752342 7,350 83 297 2240
2018-10-10 21:17:10 GMT 40.555389 -73.760864 7,175 83 296 2304
2018-10-10 21:17:07 GMT 40.555004 -73.765831 7,075 83 296 2240
2018-10-10 21:17:03 GMT 40.553604 -73.781433 6,875 83 295 2240
2018-10-10 21:16:59 GMT 40.553604 -73.781433 6,750 83 295 2240
2018-10-10 21:16:55 GMT 40.553284 -73.785118 6,675 82 295 2240
2018-10-10 21:16:52 GMT 40.551979 -73.798973 6,400 82 294 2368
2018-10-10 21:16:49 GMT 40.551979 -73.798973 6,450 82 294 2496
2018-10-10 21:16:42 GMT 40.551003 -73.808899 6,200 82 294 2560
2018-10-10 21:16:38 GMT 40.550400 -73.815186 5,600 82 294 2560
2018-10-10 21:16:35 GMT 40.549759 -73.821777 5,825 82 294 2560
2018-10-10 21:16:32 GMT 40.548569 -73.834717 5,650 84 293 2560
2018-10-10 21:16:28 GMT 40.548569 -73.834717 5,525 84 293 2560
2018-10-10 21:16:25 GMT 40.548115 -73.840485 5,375 86 292 2496
2018-10-10 21:16:20 GMT 40.547745 -73.848145 5,250 88 292 2432
2018-10-10 21:16:16 GMT 40.547745 -73.855042 5,050 94 288 2240
2018-10-10 21:16:13 GMT 40.548248 -73.862183 4,900 111 280 2240
2018-10-10 21:16:10 GMT 40.548569 -73.864807 4,850 104 283 2240
2018-10-10 21:16:07 GMT 40.550034 -73.871948 4,600 114 278 2240
2018-10-10 21:16:03 GMT 40.551636 -73.877380 4,475 156 263 0
2018-10-10 21:16:00 GMT 40.553421 -73.881897 4,425 123 274 2304
2018-10-10 21:15:53 GMT 40.558498 -73.890984 4,150 130 271 2496
2018-10-10 21:15:49 GMT 40.561890 -73.895447 4,000 143 267 2560
2018-10-10 21:15:46 GMT 40.564362 -73.898102 3,900 151 264 2560
2018-10-10 21:15:43 GMT 40.567520 -73.900818 3,750 152 264 2560
2018-10-10 21:15:40 GMT 40.572144 -73.903931 3,600 160 262 2560
2018-10-10 21:15:32 GMT 40.585693 -73.907898 3,225 177 259 2432
2018-10-10 21:15:28 GMT 40.585693 -73.907898 3,075 203 251 1280
2018-10-10 21:15:24 GMT 40.591690 -73.907471 2,950 192 255 1920
2018-10-10 21:15:21 GMT 40.594109 -73.906898 2,725 196 254 1600
2018-10-10 21:15:16 GMT 40.599655 -73.904602 2,775 207 250 1152
2018-10-10 21:15:13 GMT 40.603317 -73.902283 2,700 212 247 1088
2018-10-10 21:15:09 GMT 40.606728 -73.899658 2,625 217 242 1152
2018-10-10 21:15:06 GMT 40.609406 -73.897095 2,450 219 240 1408
2018-10-10 21:15:01 GMT 40.613525 -73.892883 2,500 221 237 1408
2018-10-10 21:14:58 GMT 40.617371 -73.888550 2,375 222 233 1216
2018-10-10 21:14:55 GMT 40.618423 -73.887329 2,325 219 211 1472
2018-10-10 21:14:51 GMT 40.622089 -73.882935 2,250 223 227 1536
2018-10-10 21:14:44 GMT 40.626755 -73.877319 2,050 223 222 2112
2018-10-10 21:14:40 GMT 40.630375 -73.873009 1,900 222 218 1792
2018-10-10 21:14:36 GMT 40.635124 -73.867638 1,725 219 211 1472
2018-10-10 21:14:29 GMT 40.638657 -73.863892 1,625 221 196 1216
2018-10-10 21:14:23 GMT 40.643234 -73.859619 1,500 217 196 1280
2018-10-10 21:14:18 GMT 40.646667 -73.856567 1,375 223 195 1152
2018-10-10 21:14:13 GMT 40.651062 -73.851379 1,275 231 193 1152
2018-10-10 21:14:10 GMT 40.652020 -73.849663 1,275 238 189 1216
2018-10-10 21:14:04 GMT 40.654255 -73.843857 1,050 259 191 1856
2018-10-10 21:14:01 GMT 40.654816 -73.840515 950 268 192 1856
2018-10-10 21:13:54 GMT 40.654358 -73.831665 650 295 192 2240
2018-10-10 21:13:51 GMT 40.653465 -73.828377 325 302 197 2624
2018-10-10 21:13:43 GMT 40.650253 -73.820763 250 301 196 2624
2018-10-10 21:13:40 GMT 40.648762 -73.817451 125 302 199 2304
2018-10-10 21:13:21 GMT 40.640350 -73.798950 -25 301 159 0
2018-10-10 21:13:14 GMT 40.638149 -73.794106 -25 301 141 64
2018-10-10 21:13:05 GMT 40.635750 -73.788864 0 300 84
2018-10-10 21:12:57 GMT 40.634274 -73.785599 0 300 47
2018-10-10 21:12:50 GMT 40.633656 -73.784256 0 300 17
2018-10-10 21:12:47 GMT 40.633541 -73.783997 0 300 12
2018-10-10 21:12:36 GMT 40.633286 -73.783463 0 284 7
2018-10-10 21:12:28 GMT 40.633179 -73.783165 0 255 8
2018-10-10 21:12:23 GMT 40.633186 -73.782913 0 227 9
2018-10-10 21:12:14 GMT 40.633438 -73.782593 0 210 13
2018-10-10 21:12:04 GMT 40.633923 -73.782227 0 210 12
2018-10-10 21:11:58 GMT 40.634205 -73.782028 0 225 11
2018-10-10 21:11:53 GMT 40.634399 -73.781845 0 247 11
2018-10-10 21:11:44 GMT 40.634541 -73.781403 0 295 10
2018-10-10 21:11:41 GMT 40.634468 -73.781204 0 300 11
2018-10-10 21:11:35 GMT 40.634308 -73.780853 0 298 11
2018-10-10 21:11:30 GMT 40.634205 -73.780609 0 292 10
2018-10-10 21:11:25 GMT 40.634090 -73.780319 0 281 10
2018-10-10 21:11:20 GMT 40.634045 -73.780075 0 270 10
2018-10-10 21:11:05 GMT 40.634121 -73.779282 0 230 9
2018-10-10 21:10:59 GMT 40.634239 -73.779030 0 222 9
2018-10-10 21:10:50 GMT 40.634495 -73.778732 0 213 8
2018-10-10 21:10:47 GMT 40.634583 -73.778656 0 210 8
2018-10-10 21:10:43 GMT 40.634708 -73.778564 0 210 8
2018-10-10 21:10:38 GMT 40.634869 -73.778427 0 210 7
2018-10-10 21:10:31 GMT 40.635029 -73.778305 0 210 7
2018-10-10 21:10:22 GMT 40.635246 -73.778137 0 210 5
2018-10-10 21:09:58 GMT 40.635384 -73.778030 0 210 0
2018-10-10 21:09:53 GMT 40.635384 -73.778015 0 210 0
2018-10-10 21:09:38 GMT 40.635380 -73.778015 0 210 0
2018-10-10 21:09:33 GMT 40.635384 -73.778015 0 210 0
2018-10-10 21:09:08 GMT 40.635380 -73.778015 0 210 0
2018-10-10 21:08:58 GMT 40.635384 -73.778015 0 210 0
2018-10-10 21:08:42 GMT 40.635380 -73.778015 0 210 0
2018-10-10 21:08:22 GMT 40.635384 -73.778015 0 210 0
2018-10-10 21:08:05 GMT 40.635380 -73.778015 0 210 0
2018-10-10 21:07:55 GMT 40.635384 -73.778015 0 210 0
2018-10-10 21:07:43 GMT 40.635380 -73.778015 0 210 0
2018-10-10 21:07:33 GMT 40.635426 -73.777985 0 210 4
2018-10-10 21:07:22 GMT 40.635635 -73.777824 0 210 7
2018-10-10 21:07:11 GMT 40.635983 -73.777550 0 210 11
2018-10-10 21:06:59 GMT 40.636528 -73.777130 0 210 13
2018-10-10 21:06:50 GMT 40.636963 -73.776794 0 210 13
2018-10-10 21:06:39 GMT 40.637512 -73.776352 0 210 14
2018-10-10 21:06:30 GMT 40.638359 -73.775711 0 210 15
2018-10-10 21:06:19 GMT 40.638680 -73.775452 0 210 14
2018-10-10 21:06:08 GMT 40.639240 -73.775009 0 210 14
2018-10-10 21:05:56 GMT 40.639954 -73.774460 0 210 16
2018-10-10 21:05:47 GMT 40.640499 -73.774017 0 210 16
2018-10-10 21:05:36 GMT 40.641106 -73.773544 0 210 15
2018-10-10 21:05:26 GMT 40.641720 -73.773087 0 210 15
2018-10-10 21:05:15 GMT 40.642315 -73.772614 0 210 14
2018-10-10 21:05:04 GMT 40.642849 -73.772194 0 210 13
2018-10-10 21:04:53 GMT 40.643398 -73.771774 0 210 12
2018-10-10 21:04:43 GMT 40.643852 -73.771454 0 222 11
2018-10-10 21:04:31 GMT 40.644207 -73.770935 0 264 11
2018-10-10 21:04:20 GMT 40.644199 -73.770264 0 284 11
2018-10-10 21:04:10 GMT 40.644062 -73.769585 0 286 11
2018-10-10 21:03:59 GMT 40.643909 -73.768875 0 247 12
2018-10-10 21:03:48 GMT 40.644287 -73.768204 0 210 17
2018-10-10 21:03:36 GMT 40.645226 -73.767464 0 210 22
2018-10-10 21:03:28 GMT 40.645901 -73.766937 0 210 21
2018-10-10 21:03:25 GMT 40.646111 -73.766762 0 210 21
2018-10-10 21:03:13 GMT 40.647034 -73.766052 0 210 18
2018-10-10 21:03:04 GMT 40.647697 -73.765533 0 210 16
2018-10-10 21:02:56 GMT 40.648144 -73.765182 0 210 15
2018-10-10 21:02:52 GMT 40.648396 -73.764984 0 210 14
2018-10-10 21:02:42 GMT 40.648899 -73.764587 0 210 12
2018-10-10 21:02:29 GMT 40.649460 -73.764145 0 210 11
2018-10-10 21:02:19 GMT 40.649860 -73.763809 0 199 10
2018-10-10 21:02:13 GMT 40.650101 -73.763641 0 177 11
2018-10-10 21:02:08 GMT 40.650364 -73.763596 0 140 12
2018-10-10 21:02:02 GMT 40.650593 -73.763870 0 123 13
2018-10-10 21:01:52 GMT 40.650906 -73.764534 0 106 12
2018-10-10 21:01:35 GMT 40.650696 -73.765518 0 30 12
2018-10-10 21:01:31 GMT 40.650501 -73.765656 0 30 12
2018-10-10 21:01:26 GMT 40.650238 -73.765854 0 30 11
2018-10-10 21:01:21 GMT 40.650043 -73.765999 0 30 9
2018-10-10 21:01:14 GMT 40.649826 -73.766174 0 30 6
2018-10-10 21:01:04 GMT 40.649635 -73.766327 0 30 4
2018-10-10 21:00:53 GMT 40.649494 -73.766418 0 30 3
2018-10-10 21:00:48 GMT 40.649448 -73.766464 0 30 3
2018-10-10 21:00:42 GMT 40.649368 -73.766525 0 30 5
2018-10-10 21:00:37 GMT 40.649254 -73.766617 0 30 6
2018-10-10 21:00:30 GMT 40.649124 -73.766731 0 30 6
2018-10-10 21:00:24 GMT 40.648991 -73.766830 0 30 6
2018-10-10 21:00:21 GMT 40.648937 -73.766876 0 30 5
2018-10-10 21:00:18 GMT 40.648865 -73.766937 0 30 5
2018-10-10 21:00:09 GMT 40.648727 -73.767029 0 30 3
2018-10-10 21:00:06 GMT 40.648705 -73.767059 0 30 3
2018-10-10 20:59:58 GMT 40.648636 -73.767105 0 30 1
2018-10-10 20:59:46 GMT 40.648575 -73.767151 0 30 0
2018-10-10 20:59:31 GMT 40.648540 -73.767181 0 30 0
2018-10-10 20:58:56 GMT 40.648533 -73.767181 0 30 0
2018-10-10 20:58:26 GMT 40.648540 -73.767181 0 30 0
2018-10-10 20:58:01 GMT 40.648533 -73.767181 0 30 0
2018-10-10 20:57:11 GMT 40.648540 -73.767181 0 30 0
2018-10-10 20:56:56 GMT 40.648533 -73.767181 0 30 0
2018-10-10 20:55:51 GMT 40.648533 -73.767181 0 30 0
2018-10-10 20:55:26 GMT 40.648540 -73.767181 0 30 0
2018-10-10 20:54:56 GMT 40.648533 -73.767181 0 30 0
2018-10-10 20:54:46 GMT 40.648540 -73.767181 0 30 0
2018-10-10 20:53:56 GMT 40.648533 -73.767181 0 30 0
2018-10-10 20:53:41 GMT 40.648540 -73.767181 0 30 0
2018-10-10 20:52:51 GMT 40.648540 -73.767181 0 30 0
2018-10-10 20:52:41 GMT 40.648540 -73.767181 0 30 0
2018-10-10 20:52:31 GMT 40.648533 -73.767181 0 30 0
2018-10-10 20:52:21 GMT 40.648540 -73.767181 0 30 0
2018-10-10 20:52:00 GMT 40.648533 -73.767181 0 30 0
2018-10-10 20:51:45 GMT 40.648540 -73.767181 0 30 0
2018-10-10 20:51:25 GMT 40.648533 -73.767181 0 30 0
2018-10-10 20:51:15 GMT 40.648540 -73.767181 0 30 0
2018-10-10 20:50:45 GMT 40.648533 -73.767181 0 30 0
2018-10-10 20:50:24 GMT 40.648529 -73.767181 0 30 0
2018-10-10 20:50:09 GMT 40.648533 -73.767181 0 30 0
2018-10-10 20:49:44 GMT 40.648529 -73.767181 0 30 0
2018-10-10 20:49:19 GMT 40.648533 -73.767181 0 30 0
2018-10-10 20:49:05 GMT 40.648540 -73.767181 0 30 0
2018-10-10 20:48:54 GMT 40.648529 -73.767181 0 30 0
2018-10-10 20:47:55 GMT 40.648533 -73.767181 0 30 0
2018-10-10 20:47:39 GMT 40.648529 -73.767181 0 30 0
2018-10-10 20:47:14 GMT 40.648533 -73.767181 0 30 0
2018-10-10 20:47:09 GMT 40.648529 -73.767181 0 30 0
2018-10-10 20:46:54 GMT 40.648533 -73.767181 0 30 0
2018-10-10 20:46:49 GMT 40.648529 -73.767181 0 30 0
2018-10-10 20:46:34 GMT 40.648533 -73.767181 0 30 0
2018-10-10 20:46:29 GMT 40.648529 -73.767174 0 30 0
2018-10-10 20:45:57 GMT 40.648533 -73.767181 0 30 3
2018-10-10 20:45:44 GMT 40.648235 -73.767410 0 30 9
2018-10-10 20:45:36 GMT 40.647972 -73.767593 0 50 8
2018-10-10 20:45:25 GMT 40.647720 -73.767899 0 104 6
2018-10-10 20:45:15 GMT 40.647808 -73.768265 0 120 8
2018-10-10 20:45:03 GMT 40.647984 -73.768654 0 120 5
2018-10-10 20:44:53 GMT 40.648075 -73.768867 0 118 3
2018-10-10 20:44:35 GMT 40.648109 -73.768936 0 118 0
2018-10-10 20:44:05 GMT 40.648109 -73.768951 0 118 0
2018-10-10 20:43:40 GMT 40.648109 -73.768936 0 118 0
2018-10-10 20:43:15 GMT 40.648109 -73.768951 0 118 0
2018-10-10 20:43:04 GMT 40.648109 -73.768936 0 118 0
2018-10-10 20:42:49 GMT 40.648109 -73.768951 0 118 0
2018-10-10 20:42:39 GMT 40.648109 -73.768936 0 118 0
2018-10-10 20:42:10 GMT 40.648109 -73.768936 0 118 0
2018-10-10 20:42:00 GMT 40.648109 -73.768951 0 118 0
2018-10-10 20:41:49 GMT 40.648109 -73.768951 0 118 0
2018-10-10 20:41:39 GMT 40.648132 -73.768997 0 118 3
2018-10-10 20:41:27 GMT 40.648224 -73.769257 0 126 5
2018-10-10 20:41:17 GMT 40.648338 -73.769516 0 146 6
2018-10-10 20:41:07 GMT 40.648521 -73.769775 0 196 7
2018-10-10 20:40:55 GMT 40.648830 -73.769623 0 230 7
2018-10-10 20:40:46 GMT 40.649002 -73.769302 0 208 8
2018-10-10 20:40:34 GMT 40.649345 -73.769028 0 137 9
2018-10-10 20:40:24 GMT 40.649586 -73.769363 0 120 9
2018-10-10 20:40:14 GMT 40.649803 -73.769852 0 120 8
2018-10-10 20:40:04 GMT 40.649948 -73.770180 0 120 4
2018-10-10 20:39:51 GMT 40.650009 -73.770294 0 120 0
2018-10-10 20:39:31 GMT 40.650009 -73.770309 0 120 0
2018-10-10 20:38:36 GMT 40.650009 -73.770294 0 120 0
2018-10-10 20:38:21 GMT 40.650009 -73.770309 0 120 0
2018-10-10 20:37:56 GMT 40.650009 -73.770294 0 120 0
2018-10-10 20:37:30 GMT 40.649998 -73.770294 0 120 0
2018-10-10 20:37:20 GMT 40.650009 -73.770309 0 120 0
2018-10-10 20:37:00 GMT 40.649998 -73.770294 0 120 0
2018-10-10 20:36:21 GMT 40.650009 -73.770309 0 120 0
2018-10-10 20:36:16 GMT 40.650009 -73.770294 0 120 0
2018-10-10 20:36:06 GMT 40.650009 -73.770309 0 120 0
2018-10-10 20:35:56 GMT 40.650009 -73.770294 0 120 0
2018-10-10 20:35:43 GMT 40.650009 -73.770309 0 120 0
2018-10-10 20:35:24 GMT 40.650009 -73.770294 0 120 0
2018-10-10 20:35:15 GMT 40.650009 -73.770309 0 120 0
2018-10-10 20:35:05 GMT 40.650032 -73.770340 0 120 0
2018-10-10 20:34:53 GMT 40.650032 -73.770370 0 120 0
2018-10-10 20:34:43 GMT 40.650043 -73.770386 0 120 0
2018-10-10 20:34:38 GMT 40.650055 -73.770416 0 120 2
2018-10-10 20:34:33 GMT 40.650078 -73.770462 0 120 2
2018-10-10 20:34:28 GMT 40.650101 -73.770508 0 120 2
2018-10-10 20:34:22 GMT 40.650124 -73.770554 0 120 2
2018-10-10 20:34:17 GMT 40.650146 -73.770584 0 120 0
2018-10-10 20:34:11 GMT 40.650158 -73.770615 0 120 2
2018-10-10 20:34:06 GMT 40.650181 -73.770676 0 120 3
2018-10-10 20:34:01 GMT 40.650215 -73.770744 0 120 3
2018-10-10 20:33:57 GMT 40.650242 -73.770805 0 120 3
2018-10-10 20:33:49 GMT 40.650288 -73.770912 0 120 3
2018-10-10 20:33:45 GMT 40.650311 -73.770973 0 120 3
2018-10-10 20:33:39 GMT 40.650345 -73.771042 0 120 3
2018-10-10 20:33:35 GMT 40.650368 -73.771103 0 120 4
2018-10-10 20:33:29 GMT 40.650436 -73.771240 0 120 6
2018-10-10 20:33:25 GMT 40.650486 -73.771355 0 120 8
2018-10-10 20:33:17 GMT 40.650673 -73.771759 0 120 11
2018-10-10 20:33:14 GMT 40.650730 -73.771866 0 120 10
2018-10-10 20:33:07 GMT 40.650890 -73.772240 0 120 10
2018-10-10 20:33:04 GMT 40.650970 -73.772400 0 120 10
2018-10-10 20:32:56 GMT 40.651150 -73.772789 0 120 10
2018-10-10 20:32:46 GMT 40.651428 -73.773407 0 120 17
2018-10-10 20:32:17 GMT 40.652927 -73.776718 0 120 24
2018-10-10 20:32:13 GMT 40.653122 -73.777161 0 120 24
2018-10-10 20:31:58 GMT 40.653908 -73.778877 0 120 19
2018-10-10 20:31:46 GMT 40.654396 -73.779968 0 120 15
2018-10-10 20:31:22 GMT 40.654942 -73.781448 0 70 11
2018-10-10 20:31:00 GMT 40.654381 -73.782944 0 30 13
2018-10-10 20:30:50 GMT 40.654060 -73.783646 0 39 14
2018-10-10 20:30:44 GMT 40.653778 -73.783943 0 30 13
2018-10-10 20:30:35 GMT 40.653347 -73.784271 0 22 12
2018-10-10 20:30:26 GMT 40.652893 -73.784477 0 39 11
2018-10-10 20:30:20 GMT 40.652641 -73.784714 0 59 11
2018-10-10 20:30:15 GMT 40.652534 -73.784973 0 61 12
2018-10-10 20:30:10 GMT 40.652393 -73.785301 0 61 10
2018-10-10 20:30:03 GMT 40.652252 -73.785645 0 61 9
2018-10-10 20:29:55 GMT 40.652103 -73.785995 0 59 8
2018-10-10 20:29:52 GMT 40.652069 -73.786072 0 61 8
2018-10-10 20:29:41 GMT 40.651882 -73.786507 0 61 9
2018-10-10 20:29:29 GMT 40.651649 -73.787064 0 64 10
2018-10-10 20:29:17 GMT 40.651428 -73.787781 0 81 12
2018-10-10 20:29:11 GMT 40.651382 -73.788284 0 90 14
2018-10-10 20:28:57 GMT 40.651428 -73.789406 0 106 14
2018-10-10 20:28:48 GMT 40.651600 -73.790161 0 106 14
2018-10-10 20:28:28 GMT 40.651951 -73.791595 0 106 12
2018-10-10 20:25:47 GMT 40.645889 -73.795212 0 345 13
2018-10-10 20:25:20 GMT 40.644653 -73.794983 0 354 9
2018-10-10 20:23:27 GMT 40.640816 -73.795013 0 315 6
2018-10-10 20:23:04 GMT 40.640442 -73.794388 0 300 8
2018-10-10 20:22:55 GMT 40.640266 -73.794014 0 300 8
2018-10-10 20:22:40 GMT 40.640022 -73.793480 0 300 7
2018-10-10 20:22:34 GMT 40.639927 -73.793274 0 300 6
2018-10-10 20:22:22 GMT 40.639778 -73.792923 0 300 7
2018-10-10 20:22:08 GMT 40.639568 -73.792465 0 300 6
2018-10-10 20:21:57 GMT 40.639416 -73.792152 0 300 5
2018-10-10 20:21:54 GMT 40.639389 -73.792084 0 300 4
2018-10-10 20:21:43 GMT 40.639313 -73.791924 0 298 0
2018-10-10 20:21:04 GMT 40.639309 -73.791901 0 298 0
2018-10-10 20:20:59 GMT 40.639301 -73.791901 0 298 0
2018-10-10 20:20:49 GMT 40.639309 -73.791901 0 298 0
2018-10-10 20:19:33 GMT 40.639301 -73.791901 0 298 0
2018-10-10 20:19:08 GMT 40.639309 -73.791901 0 298 0

Making use of Plane Finder data

You are free to use the raw flight data, aircraft information and images provided in this report for your own purposes provided the data is correctly attributed to Plane Finder. We ask that you please credit Plane Finder and link to planefinder.net in close proximity to the content.

Optionally one of the following logos (no smaller then 150x24px) can be used and must link to planefinder.net

Embedding the Plane Finder map

You are welcome to embed the Plane Finder playback map on your website to offer visitors a more interactive experience. We suggest using the following HTML code:

<iframe src="//planefinder.net/data/report/SV20-HZ-AK43-7700-squawk-2018-10-11/map" width="800" height="600" seamless="seamless"></iframe>

Where our data comes from

Plane Finder has a global network of data feeds and antenna radars that receive data broadcast directly from aircraft. The primary technologies used are ADS-B and MLAT. We also show feeds from the FAA and a FLARM glider feed.

Click here to find out more about the Plane Finder network.

How we collect our data